<?xml version='1.0' encoding='UTF-8'?>
<gpx version="1.1" creator="https://www.komoot.de" xmlns="http://www.topografix.com/GPX/1/1" xmlns:xsi="http://www.w3.org/2001/XMLSchema-instance" xsi:schemaLocation="http://www.topografix.com/GPX/1/1 http://www.topografix.com/GPX/1/1/gpx.xsd">
  <metadata>
    <name>65_700LaeufelfEptingen</name>
    <author>
      <link href="https://www.komoot.de">
        <text>komoot</text>
        <type>text/html</type>
      </link>
    </author>
  </metadata>
  <trk>
    <name>65_700LaeufelfEptingen</name>
    <trkseg>
      <trkpt lat="47.541576" lon="7.870664">
        <ele>341.796709</ele>
        <time>2021-11-18T19:26:30.381Z</time>
      </trkpt>
      <trkpt lat="47.541576" lon="7.870664">
        <ele>341.796709</ele>
        <time>2021-11-18T19:26:30.420Z</time>
      </trkpt>
      <trkpt lat="47.541410" lon="7.870791">
        <ele>341.796709</ele>
        <time>2021-11-18T19:26:34.907Z</time>
      </trkpt>
      <trkpt lat="47.540933" lon="7.871187">
        <ele>341.796709</ele>
        <time>2021-11-18T19:26:47.791Z</time>
      </trkpt>
      <trkpt lat="47.540894" lon="7.871220">
        <ele>341.796709</ele>
        <time>2021-11-18T19:26:48.986Z</time>
      </trkpt>
      <trkpt lat="47.540693" lon="7.871390">
        <ele>342.022747</ele>
        <time>2021-11-18T19:26:54.577Z</time>
      </trkpt>
      <trkpt lat="47.540463" lon="7.871584">
        <ele>342.563283</ele>
        <time>2021-11-18T19:27:01.127Z</time>
      </trkpt>
      <trkpt lat="47.540265" lon="7.871808">
        <ele>343.072095</ele>
        <time>2021-11-18T19:27:06.857Z</time>
      </trkpt>
      <trkpt lat="47.540216" lon="7.871851">
        <ele>343.188409</ele>
        <time>2021-11-18T19:27:08.397Z</time>
      </trkpt>
      <trkpt lat="47.540034" lon="7.871970">
        <ele>343.594703</ele>
        <time>2021-11-18T19:27:13.056Z</time>
      </trkpt>
      <trkpt lat="47.539930" lon="7.872041">
        <ele>343.828572</ele>
        <time>2021-11-18T19:27:15.643Z</time>
      </trkpt>
      <trkpt lat="47.539841" lon="7.872151">
        <ele>344.065295</ele>
        <time>2021-11-18T19:27:18.674Z</time>
      </trkpt>
      <trkpt lat="47.539678" lon="7.872430">
        <ele>344.573998</ele>
        <time>2021-11-18T19:27:24.196Z</time>
      </trkpt>
      <trkpt lat="47.539222" lon="7.873416">
        <ele>345.863347</ele>
        <time>2021-11-18T19:27:41.737Z</time>
      </trkpt>
      <trkpt lat="47.538278" lon="7.874319">
        <ele>347.064006</ele>
        <time>2021-11-18T19:28:01.391Z</time>
      </trkpt>
      <trkpt lat="47.537716" lon="7.874966">
        <ele>348.041740</ele>
        <time>2021-11-18T19:28:15.366Z</time>
      </trkpt>
      <trkpt lat="47.537261" lon="7.875237">
        <ele>348.828780</ele>
        <time>2021-11-18T19:28:24.883Z</time>
      </trkpt>
      <trkpt lat="47.537182" lon="7.875293">
        <ele>348.969335</ele>
        <time>2021-11-18T19:28:26.871Z</time>
      </trkpt>
      <trkpt lat="47.536921" lon="7.875537">
        <ele>349.464658</ele>
        <time>2021-11-18T19:28:32.838Z</time>
      </trkpt>
      <trkpt lat="47.536757" lon="7.875759">
        <ele>349.821211</ele>
        <time>2021-11-18T19:28:37.440Z</time>
      </trkpt>
      <trkpt lat="47.536632" lon="7.875912">
        <ele>350.081450</ele>
        <time>2021-11-18T19:28:40.608Z</time>
      </trkpt>
      <trkpt lat="47.536444" lon="7.876177">
        <ele>350.886757</ele>
        <time>2021-11-18T19:28:47.570Z</time>
      </trkpt>
      <trkpt lat="47.535851" lon="7.877319">
        <ele>355.212595</ele>
        <time>2021-11-18T19:29:18.884Z</time>
      </trkpt>
      <trkpt lat="47.535770" lon="7.877432">
        <ele>355.707460</ele>
        <time>2021-11-18T19:29:23.064Z</time>
      </trkpt>
      <trkpt lat="47.535635" lon="7.877484">
        <ele>356.327829</ele>
        <time>2021-11-18T19:29:28.931Z</time>
      </trkpt>
      <trkpt lat="47.535551" lon="7.877487">
        <ele>356.701519</ele>
        <time>2021-11-18T19:29:30.839Z</time>
      </trkpt>
      <trkpt lat="47.535322" lon="7.877590">
        <ele>357.765896</ele>
        <time>2021-11-18T19:29:40.891Z</time>
      </trkpt>
      <trkpt lat="47.535088" lon="7.877742">
        <ele>359.031874</ele>
        <time>2021-11-18T19:29:48.723Z</time>
      </trkpt>
      <trkpt lat="47.534855" lon="7.878090">
        <ele>360.808883</ele>
        <time>2021-11-18T19:30:01.141Z</time>
      </trkpt>
      <trkpt lat="47.534778" lon="7.878270">
        <ele>361.581494</ele>
        <time>2021-11-18T19:30:08.936Z</time>
      </trkpt>
      <trkpt lat="47.534825" lon="7.878414">
        <ele>362.161413</ele>
        <time>2021-11-18T19:30:11.408Z</time>
      </trkpt>
      <trkpt lat="47.534946" lon="7.878790">
        <ele>363.671640</ele>
        <time>2021-11-18T19:30:23.622Z</time>
      </trkpt>
      <trkpt lat="47.534908" lon="7.878975">
        <ele>364.372759</ele>
        <time>2021-11-18T19:30:27.439Z</time>
      </trkpt>
      <trkpt lat="47.534616" lon="7.879490">
        <ele>366.811147</ele>
        <time>2021-11-18T19:30:44.251Z</time>
      </trkpt>
      <trkpt lat="47.534572" lon="7.879543">
        <ele>367.115717</ele>
        <time>2021-11-18T19:30:47.319Z</time>
      </trkpt>
      <trkpt lat="47.533892" lon="7.880353">
        <ele>369.850249</ele>
        <time>2021-11-18T19:31:12.207Z</time>
      </trkpt>
      <trkpt lat="47.533606" lon="7.880961">
        <ele>371.180241</ele>
        <time>2021-11-18T19:31:24.314Z</time>
      </trkpt>
      <trkpt lat="47.533374" lon="7.881639">
        <ele>372.544501</ele>
        <time>2021-11-18T19:31:35.140Z</time>
      </trkpt>
      <trkpt lat="47.533014" lon="7.882949">
        <ele>372.918881</ele>
        <time>2021-11-18T19:31:52.704Z</time>
      </trkpt>
      <trkpt lat="47.532859" lon="7.883508">
        <ele>373.010779</ele>
        <time>2021-11-18T19:31:58.581Z</time>
      </trkpt>
      <trkpt lat="47.532713" lon="7.884122">
        <ele>373.109773</ele>
        <time>2021-11-18T19:32:04.279Z</time>
      </trkpt>
      <trkpt lat="47.532699" lon="7.884224">
        <ele>373.111292</ele>
        <time>2021-11-18T19:32:05.233Z</time>
      </trkpt>
      <trkpt lat="47.532670" lon="7.884773">
        <ele>372.576618</ele>
        <time>2021-11-18T19:32:09.727Z</time>
      </trkpt>
      <trkpt lat="47.532658" lon="7.884989">
        <ele>372.366186</ele>
        <time>2021-11-18T19:32:11.338Z</time>
      </trkpt>
      <trkpt lat="47.532650" lon="7.885569">
        <ele>371.802924</ele>
        <time>2021-11-18T19:32:15.841Z</time>
      </trkpt>
      <trkpt lat="47.532505" lon="7.887120">
        <ele>370.236926</ele>
        <time>2021-11-18T19:32:27.792Z</time>
      </trkpt>
      <trkpt lat="47.532288" lon="7.887728">
        <ele>369.449264</ele>
        <time>2021-11-18T19:32:32.969Z</time>
      </trkpt>
      <trkpt lat="47.532011" lon="7.888896">
        <ele>368.031400</ele>
        <time>2021-11-18T19:32:42.199Z</time>
      </trkpt>
      <trkpt lat="47.531843" lon="7.889349">
        <ele>367.477562</ele>
        <time>2021-11-18T19:32:46.235Z</time>
      </trkpt>
      <trkpt lat="47.531560" lon="7.889776">
        <ele>367.353420</ele>
        <time>2021-11-18T19:32:51.175Z</time>
      </trkpt>
      <trkpt lat="47.531265" lon="7.889937">
        <ele>367.256810</ele>
        <time>2021-11-18T19:32:55.143Z</time>
      </trkpt>
      <trkpt lat="47.531076" lon="7.890029">
        <ele>367.195675</ele>
        <time>2021-11-18T19:32:57.985Z</time>
      </trkpt>
      <trkpt lat="47.530606" lon="7.890373">
        <ele>367.034575</ele>
        <time>2021-11-18T19:33:05.834Z</time>
      </trkpt>
      <trkpt lat="47.530322" lon="7.890690">
        <ele>366.959641</ele>
        <time>2021-11-18T19:33:11.827Z</time>
      </trkpt>
      <trkpt lat="47.529972" lon="7.891210">
        <ele>367.462082</ele>
        <time>2021-11-18T19:33:20.989Z</time>
      </trkpt>
      <trkpt lat="47.529714" lon="7.891609">
        <ele>367.840132</ele>
        <time>2021-11-18T19:33:28.323Z</time>
      </trkpt>
      <trkpt lat="47.529695" lon="7.891638">
        <ele>367.867784</ele>
        <time>2021-11-18T19:33:29.309Z</time>
      </trkpt>
      <trkpt lat="47.529235" lon="7.892158">
        <ele>368.454273</ele>
        <time>2021-11-18T19:33:40.242Z</time>
      </trkpt>
      <trkpt lat="47.528331" lon="7.892682">
        <ele>369.604833</ele>
        <time>2021-11-18T19:33:58.945Z</time>
      </trkpt>
      <trkpt lat="47.528003" lon="7.892732">
        <ele>370.020699</ele>
        <time>2021-11-18T19:34:04.651Z</time>
      </trkpt>
      <trkpt lat="47.527498" lon="7.892650">
        <ele>370.661432</ele>
        <time>2021-11-18T19:34:14.124Z</time>
      </trkpt>
      <trkpt lat="47.527011" lon="7.893061">
        <ele>371.762154</ele>
        <time>2021-11-18T19:34:27.316Z</time>
      </trkpt>
      <trkpt lat="47.526709" lon="7.893617">
        <ele>373.066046</ele>
        <time>2021-11-18T19:34:39.848Z</time>
      </trkpt>
      <trkpt lat="47.526504" lon="7.894030">
        <ele>374.002693</ele>
        <time>2021-11-18T19:34:50.029Z</time>
      </trkpt>
      <trkpt lat="47.526451" lon="7.893983">
        <ele>374.169867</ele>
        <time>2021-11-18T19:34:51.418Z</time>
      </trkpt>
      <trkpt lat="47.526401" lon="7.893964">
        <ele>374.309557</ele>
        <time>2021-11-18T19:34:52.236Z</time>
      </trkpt>
      <trkpt lat="47.526335" lon="7.893960">
        <ele>374.488313</ele>
        <time>2021-11-18T19:34:54.310Z</time>
      </trkpt>
      <trkpt lat="47.526257" lon="7.894278">
        <ele>375.106554</ele>
        <time>2021-11-18T19:35:00.522Z</time>
      </trkpt>
      <trkpt lat="47.525725" lon="7.895110">
        <ele>376.826554</ele>
        <time>2021-11-18T19:35:19.604Z</time>
      </trkpt>
      <trkpt lat="47.525603" lon="7.895265">
        <ele>377.137260</ele>
        <time>2021-11-18T19:35:25.220Z</time>
      </trkpt>
      <trkpt lat="47.525631" lon="7.895442">
        <ele>377.374539</ele>
        <time>2021-11-18T19:35:28.069Z</time>
      </trkpt>
      <trkpt lat="47.525631" lon="7.895583">
        <ele>377.558575</ele>
        <time>2021-11-18T19:35:29.261Z</time>
      </trkpt>
      <trkpt lat="47.525622" lon="7.895944">
        <ele>378.030082</ele>
        <time>2021-11-18T19:35:36.696Z</time>
      </trkpt>
      <trkpt lat="47.525590" lon="7.896117">
        <ele>378.264204</ele>
        <time>2021-11-18T19:35:38.249Z</time>
      </trkpt>
      <trkpt lat="47.525518" lon="7.896336">
        <ele>378.582127</ele>
        <time>2021-11-18T19:35:43.057Z</time>
      </trkpt>
      <trkpt lat="47.524834" lon="7.897636">
        <ele>379.379708</ele>
        <time>2021-11-18T19:35:59.970Z</time>
      </trkpt>
      <trkpt lat="47.524617" lon="7.898216">
        <ele>379.386696</ele>
        <time>2021-11-18T19:36:06.150Z</time>
      </trkpt>
      <trkpt lat="47.524360" lon="7.898951">
        <ele>379.395419</ele>
        <time>2021-11-18T19:36:13.679Z</time>
      </trkpt>
      <trkpt lat="47.524309" lon="7.899115">
        <ele>379.438935</ele>
        <time>2021-11-18T19:36:15.611Z</time>
      </trkpt>
      <trkpt lat="47.524204" lon="7.899339">
        <ele>379.655306</ele>
        <time>2021-11-18T19:36:18.174Z</time>
      </trkpt>
      <trkpt lat="47.524073" lon="7.899621">
        <ele>379.926910</ele>
        <time>2021-11-18T19:36:22.349Z</time>
      </trkpt>
      <trkpt lat="47.523896" lon="7.900001">
        <ele>380.293217</ele>
        <time>2021-11-18T19:36:27.557Z</time>
      </trkpt>
      <trkpt lat="47.523861" lon="7.900049">
        <ele>380.349273</ele>
        <time>2021-11-18T19:36:28.536Z</time>
      </trkpt>
      <trkpt lat="47.523890" lon="7.900131">
        <ele>380.422724</ele>
        <time>2021-11-18T19:36:29.478Z</time>
      </trkpt>
      <trkpt lat="47.523945" lon="7.900256">
        <ele>380.541111</ele>
        <time>2021-11-18T19:36:31.060Z</time>
      </trkpt>
      <trkpt lat="47.523989" lon="7.900340">
        <ele>380.625467</ele>
        <time>2021-11-18T19:36:32.121Z</time>
      </trkpt>
      <trkpt lat="47.523957" lon="7.900371">
        <ele>380.670401</ele>
        <time>2021-11-18T19:36:32.831Z</time>
      </trkpt>
      <trkpt lat="47.523878" lon="7.900445">
        <ele>380.780245</ele>
        <time>2021-11-18T19:36:34.952Z</time>
      </trkpt>
      <trkpt lat="47.523739" lon="7.900557">
        <ele>380.966194</ele>
        <time>2021-11-18T19:36:37.863Z</time>
      </trkpt>
      <trkpt lat="47.523648" lon="7.900606">
        <ele>381.079976</ele>
        <time>2021-11-18T19:36:40.057Z</time>
      </trkpt>
      <trkpt lat="47.523620" lon="7.900698">
        <ele>381.160051</ele>
        <time>2021-11-18T19:36:42.027Z</time>
      </trkpt>
      <trkpt lat="47.523567" lon="7.900820">
        <ele>381.275162</ele>
        <time>2021-11-18T19:36:44.110Z</time>
      </trkpt>
      <trkpt lat="47.523433" lon="7.901043">
        <ele>381.516119</ele>
        <time>2021-11-18T19:36:49.363Z</time>
      </trkpt>
      <trkpt lat="47.523340" lon="7.901197">
        <ele>382.069059</ele>
        <time>2021-11-18T19:36:53.419Z</time>
      </trkpt>
      <trkpt lat="47.523036" lon="7.901580">
        <ele>383.650976</ele>
        <time>2021-11-18T19:37:05.183Z</time>
      </trkpt>
      <trkpt lat="47.522688" lon="7.901843">
        <ele>385.199463</ele>
        <time>2021-11-18T19:37:17.494Z</time>
      </trkpt>
      <trkpt lat="47.522554" lon="7.901999">
        <ele>385.875026</ele>
        <time>2021-11-18T19:37:23.789Z</time>
      </trkpt>
      <trkpt lat="47.522260" lon="7.902356">
        <ele>387.381921</ele>
        <time>2021-11-18T19:37:36.169Z</time>
      </trkpt>
      <trkpt lat="47.522132" lon="7.902476">
        <ele>387.982352</ele>
        <time>2021-11-18T19:37:40.750Z</time>
      </trkpt>
      <trkpt lat="47.522065" lon="7.902526">
        <ele>388.279712</ele>
        <time>2021-11-18T19:37:42.928Z</time>
      </trkpt>
      <trkpt lat="47.522038" lon="7.902562">
        <ele>388.423710</ele>
        <time>2021-11-18T19:37:44.424Z</time>
      </trkpt>
      <trkpt lat="47.522013" lon="7.902637">
        <ele>388.646194</ele>
        <time>2021-11-18T19:37:46.545Z</time>
      </trkpt>
      <trkpt lat="47.521949" lon="7.902842">
        <ele>389.153986</ele>
        <time>2021-11-18T19:37:50.864Z</time>
      </trkpt>
      <trkpt lat="47.521792" lon="7.903347">
        <ele>390.403970</ele>
        <time>2021-11-18T19:38:02.656Z</time>
      </trkpt>
      <trkpt lat="47.521297" lon="7.904312">
        <ele>393.128633</ele>
        <time>2021-11-18T19:38:26.636Z</time>
      </trkpt>
      <trkpt lat="47.520989" lon="7.905130">
        <ele>394.795861</ele>
        <time>2021-11-18T19:38:41.994Z</time>
      </trkpt>
      <trkpt lat="47.520678" lon="7.906050">
        <ele>395.437742</ele>
        <time>2021-11-18T19:38:55.464Z</time>
      </trkpt>
      <trkpt lat="47.520566" lon="7.906668">
        <ele>395.836955</ele>
        <time>2021-11-18T19:39:02.483Z</time>
      </trkpt>
      <trkpt lat="47.520528" lon="7.906930">
        <ele>396.004145</ele>
        <time>2021-11-18T19:39:05.744Z</time>
      </trkpt>
      <trkpt lat="47.520515" lon="7.907103">
        <ele>396.112746</ele>
        <time>2021-11-18T19:39:07.541Z</time>
      </trkpt>
      <trkpt lat="47.520506" lon="7.907236">
        <ele>396.196140</ele>
        <time>2021-11-18T19:39:08.618Z</time>
      </trkpt>
      <trkpt lat="47.520551" lon="7.907422">
        <ele>396.291485</ele>
        <time>2021-11-18T19:39:11.028Z</time>
      </trkpt>
      <trkpt lat="47.520733" lon="7.907655">
        <ele>396.308842</ele>
        <time>2021-11-18T19:39:14.214Z</time>
      </trkpt>
      <trkpt lat="47.520738" lon="7.907839">
        <ele>396.317813</ele>
        <time>2021-11-18T19:39:16.357Z</time>
      </trkpt>
      <trkpt lat="47.520493" lon="7.908683">
        <ele>396.362570</ele>
        <time>2021-11-18T19:39:24.536Z</time>
      </trkpt>
      <trkpt lat="47.519997" lon="7.910833">
        <ele>397.119288</ele>
        <time>2021-11-18T19:39:50.483Z</time>
      </trkpt>
      <trkpt lat="47.519891" lon="7.911129">
        <ele>397.329518</ele>
        <time>2021-11-18T19:39:55.073Z</time>
      </trkpt>
      <trkpt lat="47.519720" lon="7.911522">
        <ele>397.622868</ele>
        <time>2021-11-18T19:40:01.157Z</time>
      </trkpt>
      <trkpt lat="47.519421" lon="7.912098">
        <ele>398.078729</ele>
        <time>2021-11-18T19:40:10.724Z</time>
      </trkpt>
      <trkpt lat="47.517688" lon="7.914418">
        <ele>400.548859</ele>
        <time>2021-11-18T19:40:55.302Z</time>
      </trkpt>
      <trkpt lat="47.517281" lon="7.915238">
        <ele>401.220007</ele>
        <time>2021-11-18T19:41:08.316Z</time>
      </trkpt>
      <trkpt lat="47.517140" lon="7.915259">
        <ele>401.358394</ele>
        <time>2021-11-18T19:41:10.816Z</time>
      </trkpt>
      <trkpt lat="47.516806" lon="7.914896">
        <ele>401.762991</ele>
        <time>2021-11-18T19:41:18.391Z</time>
      </trkpt>
      <trkpt lat="47.516748" lon="7.914873">
        <ele>401.819279</ele>
        <time>2021-11-18T19:41:19.563Z</time>
      </trkpt>
      <trkpt lat="47.516662" lon="7.914835">
        <ele>401.899932</ele>
        <time>2021-11-18T19:41:21.354Z</time>
      </trkpt>
      <trkpt lat="47.516626" lon="7.914830">
        <ele>401.932426</ele>
        <time>2021-11-18T19:41:22.049Z</time>
      </trkpt>
      <trkpt lat="47.516590" lon="7.914840">
        <ele>401.965343</ele>
        <time>2021-11-18T19:41:22.645Z</time>
      </trkpt>
      <trkpt lat="47.516569" lon="7.914864">
        <ele>401.989182</ele>
        <time>2021-11-18T19:41:23.179Z</time>
      </trkpt>
      <trkpt lat="47.516544" lon="7.914936">
        <ele>402.038319</ele>
        <time>2021-11-18T19:41:24.026Z</time>
      </trkpt>
      <trkpt lat="47.516391" lon="7.915243">
        <ele>402.269887</ele>
        <time>2021-11-18T19:41:28.819Z</time>
      </trkpt>
      <trkpt lat="47.515014" lon="7.917030">
        <ele>404.103798</ele>
        <time>2021-11-18T19:42:02.595Z</time>
      </trkpt>
      <trkpt lat="47.514635" lon="7.917349">
        <ele>404.641216</ele>
        <time>2021-11-18T19:42:10.714Z</time>
      </trkpt>
      <trkpt lat="47.514561" lon="7.917409">
        <ele>404.745220</ele>
        <time>2021-11-18T19:42:12.606Z</time>
      </trkpt>
      <trkpt lat="47.514255" lon="7.917714">
        <ele>405.199945</ele>
        <time>2021-11-18T19:42:20.074Z</time>
      </trkpt>
      <trkpt lat="47.513378" lon="7.918393">
        <ele>407.073641</ele>
        <time>2021-11-18T19:42:41.801Z</time>
      </trkpt>
      <trkpt lat="47.513160" lon="7.918764">
        <ele>407.820104</ele>
        <time>2021-11-18T19:42:49.303Z</time>
      </trkpt>
      <trkpt lat="47.513058" lon="7.918896">
        <ele>408.124571</ele>
        <time>2021-11-18T19:42:52.458Z</time>
      </trkpt>
      <trkpt lat="47.512938" lon="7.919052">
        <ele>408.483475</ele>
        <time>2021-11-18T19:42:56.238Z</time>
      </trkpt>
      <trkpt lat="47.512664" lon="7.919306">
        <ele>409.210027</ele>
        <time>2021-11-18T19:43:04.460Z</time>
      </trkpt>
      <trkpt lat="47.512255" lon="7.919538">
        <ele>410.467569</ele>
        <time>2021-11-18T19:43:16.386Z</time>
      </trkpt>
      <trkpt lat="47.512085" lon="7.919732">
        <ele>411.200383</ele>
        <time>2021-11-18T19:43:22.595Z</time>
      </trkpt>
      <trkpt lat="47.511964" lon="7.919989">
        <ele>411.922812</ele>
        <time>2021-11-18T19:43:29.074Z</time>
      </trkpt>
      <trkpt lat="47.511883" lon="7.920133">
        <ele>412.354958</ele>
        <time>2021-11-18T19:43:33.088Z</time>
      </trkpt>
      <trkpt lat="47.511632" lon="7.920105">
        <ele>413.214344</ele>
        <time>2021-11-18T19:43:42.069Z</time>
      </trkpt>
      <trkpt lat="47.511375" lon="7.920079">
        <ele>414.093832</ele>
        <time>2021-11-18T19:43:50.566Z</time>
      </trkpt>
      <trkpt lat="47.510704" lon="7.919944">
        <ele>416.444033</ele>
        <time>2021-11-18T19:44:13.073Z</time>
      </trkpt>
      <trkpt lat="47.510627" lon="7.919935">
        <ele>416.724639</ele>
        <time>2021-11-18T19:44:15.410Z</time>
      </trkpt>
      <trkpt lat="47.510551" lon="7.919925">
        <ele>417.001830</ele>
        <time>2021-11-18T19:44:18.519Z</time>
      </trkpt>
      <trkpt lat="47.509902" lon="7.920009">
        <ele>419.368593</ele>
        <time>2021-11-18T19:44:39.117Z</time>
      </trkpt>
      <trkpt lat="47.509811" lon="7.920040">
        <ele>419.707829</ele>
        <time>2021-11-18T19:44:43.101Z</time>
      </trkpt>
      <trkpt lat="47.509809" lon="7.920155">
        <ele>419.990122</ele>
        <time>2021-11-18T19:44:44.695Z</time>
      </trkpt>
      <trkpt lat="47.509746" lon="7.920320">
        <ele>420.455229</ele>
        <time>2021-11-18T19:44:47.935Z</time>
      </trkpt>
      <trkpt lat="47.509586" lon="7.920497">
        <ele>421.180851</ele>
        <time>2021-11-18T19:44:56.313Z</time>
      </trkpt>
      <trkpt lat="47.509370" lon="7.920707">
        <ele>422.119644</ele>
        <time>2021-11-18T19:45:04.620Z</time>
      </trkpt>
      <trkpt lat="47.509138" lon="7.920939">
        <ele>423.327681</ele>
        <time>2021-11-18T19:45:13.582Z</time>
      </trkpt>
      <trkpt lat="47.508613" lon="7.921495">
        <ele>426.237122</ele>
        <time>2021-11-18T19:45:33.162Z</time>
      </trkpt>
      <trkpt lat="47.508585" lon="7.921587">
        <ele>426.544340</ele>
        <time>2021-11-18T19:45:34.094Z</time>
      </trkpt>
      <trkpt lat="47.508464" lon="7.921688">
        <ele>427.170433</ele>
        <time>2021-11-18T19:45:40.401Z</time>
      </trkpt>
      <trkpt lat="47.508248" lon="7.921916">
        <ele>428.366129</ele>
        <time>2021-11-18T19:45:47.987Z</time>
      </trkpt>
      <trkpt lat="47.508175" lon="7.922172">
        <ele>429.212145</ele>
        <time>2021-11-18T19:45:54.546Z</time>
      </trkpt>
      <trkpt lat="47.508171" lon="7.922196">
        <ele>429.287406</ele>
        <time>2021-11-18T19:45:56.385Z</time>
      </trkpt>
      <trkpt lat="47.508141" lon="7.922350">
        <ele>429.775380</ele>
        <time>2021-11-18T19:45:58.958Z</time>
      </trkpt>
      <trkpt lat="47.508128" lon="7.922441">
        <ele>430.058565</ele>
        <time>2021-11-18T19:46:01.754Z</time>
      </trkpt>
      <trkpt lat="47.508064" lon="7.922687">
        <ele>430.660997</ele>
        <time>2021-11-18T19:46:08.263Z</time>
      </trkpt>
      <trkpt lat="47.507981" lon="7.923001">
        <ele>431.187435</ele>
        <time>2021-11-18T19:46:16.577Z</time>
      </trkpt>
      <trkpt lat="47.507956" lon="7.923075">
        <ele>431.316613</ele>
        <time>2021-11-18T19:46:18.568Z</time>
      </trkpt>
      <trkpt lat="47.507876" lon="7.923234">
        <ele>431.626153</ele>
        <time>2021-11-18T19:46:22.893Z</time>
      </trkpt>
      <trkpt lat="47.507823" lon="7.923307">
        <ele>431.793473</ele>
        <time>2021-11-18T19:46:24.626Z</time>
      </trkpt>
      <trkpt lat="47.507715" lon="7.923412">
        <ele>432.092114</ele>
        <time>2021-11-18T19:46:29.342Z</time>
      </trkpt>
      <trkpt lat="47.507337" lon="7.923777">
        <ele>433.135219</ele>
        <time>2021-11-18T19:46:37.716Z</time>
      </trkpt>
      <trkpt lat="47.507226" lon="7.923898">
        <ele>433.453827</ele>
        <time>2021-11-18T19:46:41.308Z</time>
      </trkpt>
      <trkpt lat="47.507191" lon="7.924066">
        <ele>433.728316</ele>
        <time>2021-11-18T19:46:42.857Z</time>
      </trkpt>
      <trkpt lat="47.506562" lon="7.924949">
        <ele>433.881171</ele>
        <time>2021-11-18T19:46:55.756Z</time>
      </trkpt>
      <trkpt lat="47.506019" lon="7.926055">
        <ele>432.501971</ele>
        <time>2021-11-18T19:47:05.454Z</time>
      </trkpt>
      <trkpt lat="47.505768" lon="7.926636">
        <ele>431.938904</ele>
        <time>2021-11-18T19:47:10.542Z</time>
      </trkpt>
      <trkpt lat="47.505699" lon="7.926906">
        <ele>431.982440</ele>
        <time>2021-11-18T19:47:13.255Z</time>
      </trkpt>
      <trkpt lat="47.505690" lon="7.927200">
        <ele>432.026826</ele>
        <time>2021-11-18T19:47:15.441Z</time>
      </trkpt>
      <trkpt lat="47.505748" lon="7.927310">
        <ele>432.047871</ele>
        <time>2021-11-18T19:47:17.200Z</time>
      </trkpt>
      <trkpt lat="47.505858" lon="7.927551">
        <ele>432.091737</ele>
        <time>2021-11-18T19:47:20.301Z</time>
      </trkpt>
      <trkpt lat="47.505881" lon="7.927601">
        <ele>432.100860</ele>
        <time>2021-11-18T19:47:21.444Z</time>
      </trkpt>
      <trkpt lat="47.505868" lon="7.927611">
        <ele>432.104131</ele>
        <time>2021-11-18T19:47:21.709Z</time>
      </trkpt>
      <trkpt lat="47.505814" lon="7.927657">
        <ele>432.118041</ele>
        <time>2021-11-18T19:47:22.979Z</time>
      </trkpt>
      <trkpt lat="47.505253" lon="7.928170">
        <ele>432.265259</ele>
        <time>2021-11-18T19:47:35.367Z</time>
      </trkpt>
      <trkpt lat="47.504799" lon="7.928777">
        <ele>432.803482</ele>
        <time>2021-11-18T19:47:45.681Z</time>
      </trkpt>
      <trkpt lat="47.504724" lon="7.928871">
        <ele>432.937505</ele>
        <time>2021-11-18T19:47:49.676Z</time>
      </trkpt>
      <trkpt lat="47.504650" lon="7.928941">
        <ele>433.057273</ele>
        <time>2021-11-18T19:47:51.648Z</time>
      </trkpt>
      <trkpt lat="47.504005" lon="7.929312">
        <ele>434.001003</ele>
        <time>2021-11-18T19:48:06.987Z</time>
      </trkpt>
      <trkpt lat="47.503815" lon="7.929426">
        <ele>434.280604</ele>
        <time>2021-11-18T19:48:09.856Z</time>
      </trkpt>
      <trkpt lat="47.503598" lon="7.929585">
        <ele>434.610821</ele>
        <time>2021-11-18T19:48:15.267Z</time>
      </trkpt>
      <trkpt lat="47.503528" lon="7.929650">
        <ele>434.723516</ele>
        <time>2021-11-18T19:48:16.326Z</time>
      </trkpt>
      <trkpt lat="47.503485" lon="7.929688">
        <ele>434.785781</ele>
        <time>2021-11-18T19:48:17.870Z</time>
      </trkpt>
      <trkpt lat="47.503014" lon="7.930220">
        <ele>435.280899</ele>
        <time>2021-11-18T19:48:27.955Z</time>
      </trkpt>
      <trkpt lat="47.502761" lon="7.930610">
        <ele>435.586159</ele>
        <time>2021-11-18T19:48:34.308Z</time>
      </trkpt>
      <trkpt lat="47.502613" lon="7.930856">
        <ele>435.772133</ele>
        <time>2021-11-18T19:48:38.106Z</time>
      </trkpt>
      <trkpt lat="47.502400" lon="7.931256">
        <ele>436.059681</ele>
        <time>2021-11-18T19:48:44.910Z</time>
      </trkpt>
      <trkpt lat="47.502023" lon="7.932158">
        <ele>436.576757</ele>
        <time>2021-11-18T19:48:57.927Z</time>
      </trkpt>
      <trkpt lat="47.501901" lon="7.932351">
        <ele>436.693806</ele>
        <time>2021-11-18T19:49:01.779Z</time>
      </trkpt>
      <trkpt lat="47.501794" lon="7.932466">
        <ele>436.780484</ele>
        <time>2021-11-18T19:49:03.599Z</time>
      </trkpt>
      <trkpt lat="47.501463" lon="7.932668">
        <ele>437.015175</ele>
        <time>2021-11-18T19:49:09.739Z</time>
      </trkpt>
      <trkpt lat="47.501075" lon="7.932885">
        <ele>437.287062</ele>
        <time>2021-11-18T19:49:17.272Z</time>
      </trkpt>
      <trkpt lat="47.500990" lon="7.932950">
        <ele>437.349777</ele>
        <time>2021-11-18T19:49:19.236Z</time>
      </trkpt>
      <trkpt lat="47.500843" lon="7.933102">
        <ele>437.465697</ele>
        <time>2021-11-18T19:49:21.978Z</time>
      </trkpt>
      <trkpt lat="47.500435" lon="7.933872">
        <ele>437.820247</ele>
        <time>2021-11-18T19:49:31.852Z</time>
      </trkpt>
      <trkpt lat="47.500386" lon="7.933937">
        <ele>437.855534</ele>
        <time>2021-11-18T19:49:32.688Z</time>
      </trkpt>
      <trkpt lat="47.500352" lon="7.933976">
        <ele>437.878602</ele>
        <time>2021-11-18T19:49:33.445Z</time>
      </trkpt>
      <trkpt lat="47.500275" lon="7.934029">
        <ele>437.924143</ele>
        <time>2021-11-18T19:49:34.598Z</time>
      </trkpt>
      <trkpt lat="47.500208" lon="7.934071">
        <ele>437.963164</ele>
        <time>2021-11-18T19:49:35.879Z</time>
      </trkpt>
      <trkpt lat="47.500193" lon="7.934023">
        <ele>437.982325</ele>
        <time>2021-11-18T19:49:36.341Z</time>
      </trkpt>
      <trkpt lat="47.500169" lon="7.933984">
        <ele>438.001439</ele>
        <time>2021-11-18T19:49:36.764Z</time>
      </trkpt>
      <trkpt lat="47.500138" lon="7.933956">
        <ele>438.020914</ele>
        <time>2021-11-18T19:49:37.282Z</time>
      </trkpt>
      <trkpt lat="47.500067" lon="7.933946">
        <ele>438.059163</ele>
        <time>2021-11-18T19:49:38.209Z</time>
      </trkpt>
      <trkpt lat="47.500034" lon="7.933965">
        <ele>438.078152</ele>
        <time>2021-11-18T19:49:39.024Z</time>
      </trkpt>
      <trkpt lat="47.499993" lon="7.933864">
        <ele>438.120844</ele>
        <time>2021-11-18T19:49:40.652Z</time>
      </trkpt>
      <trkpt lat="47.499822" lon="7.933272">
        <ele>438.354116</ele>
        <time>2021-11-18T19:49:48.530Z</time>
      </trkpt>
      <trkpt lat="47.499538" lon="7.932868">
        <ele>438.856440</ele>
        <time>2021-11-18T19:49:56.486Z</time>
      </trkpt>
      <trkpt lat="47.499421" lon="7.932805">
        <ele>439.059730</ele>
        <time>2021-11-18T19:49:59.538Z</time>
      </trkpt>
      <trkpt lat="47.499354" lon="7.932769">
        <ele>439.176114</ele>
        <time>2021-11-18T19:50:01.265Z</time>
      </trkpt>
      <trkpt lat="47.499088" lon="7.932741">
        <ele>439.611544</ele>
        <time>2021-11-18T19:50:07.142Z</time>
      </trkpt>
      <trkpt lat="47.498997" lon="7.932758">
        <ele>439.761310</ele>
        <time>2021-11-18T19:50:09.180Z</time>
      </trkpt>
      <trkpt lat="47.498925" lon="7.932781">
        <ele>439.881581</ele>
        <time>2021-11-18T19:50:10.887Z</time>
      </trkpt>
      <trkpt lat="47.498481" lon="7.933011">
        <ele>440.649674</ele>
        <time>2021-11-18T19:50:20.141Z</time>
      </trkpt>
      <trkpt lat="47.498431" lon="7.932995">
        <ele>440.733202</ele>
        <time>2021-11-18T19:50:21.363Z</time>
      </trkpt>
      <trkpt lat="47.498391" lon="7.932972">
        <ele>440.803270</ele>
        <time>2021-11-18T19:50:22.282Z</time>
      </trkpt>
      <trkpt lat="47.498196" lon="7.932613">
        <ele>441.311426</ele>
        <time>2021-11-18T19:50:29.006Z</time>
      </trkpt>
      <trkpt lat="47.498138" lon="7.932522">
        <ele>441.455084</ele>
        <time>2021-11-18T19:50:31.006Z</time>
      </trkpt>
      <trkpt lat="47.498068" lon="7.932426">
        <ele>441.620730</ele>
        <time>2021-11-18T19:50:33.453Z</time>
      </trkpt>
      <trkpt lat="47.497907" lon="7.932254">
        <ele>441.965387</ele>
        <time>2021-11-18T19:50:38.155Z</time>
      </trkpt>
      <trkpt lat="47.497676" lon="7.932013">
        <ele>442.455956</ele>
        <time>2021-11-18T19:50:44.634Z</time>
      </trkpt>
      <trkpt lat="47.497430" lon="7.931757">
        <ele>442.977943</ele>
        <time>2021-11-18T19:50:52.225Z</time>
      </trkpt>
      <trkpt lat="47.497221" lon="7.931528">
        <ele>443.429315</ele>
        <time>2021-11-18T19:50:58.222Z</time>
      </trkpt>
      <trkpt lat="47.497104" lon="7.931414">
        <ele>443.672460</ele>
        <time>2021-11-18T19:51:01.020Z</time>
      </trkpt>
      <trkpt lat="47.496998" lon="7.931330">
        <ele>443.881168</ele>
        <time>2021-11-18T19:51:03.431Z</time>
      </trkpt>
      <trkpt lat="47.496424" lon="7.931075">
        <ele>444.913796</ele>
        <time>2021-11-18T19:51:14.180Z</time>
      </trkpt>
      <trkpt lat="47.496205" lon="7.930904">
        <ele>445.336124</ele>
        <time>2021-11-18T19:51:18.200Z</time>
      </trkpt>
      <trkpt lat="47.496162" lon="7.930842">
        <ele>445.438516</ele>
        <time>2021-11-18T19:51:19.765Z</time>
      </trkpt>
      <trkpt lat="47.496117" lon="7.930763">
        <ele>445.557593</ele>
        <time>2021-11-18T19:51:21.033Z</time>
      </trkpt>
      <trkpt lat="47.496051" lon="7.930607">
        <ele>445.769705</ele>
        <time>2021-11-18T19:51:23.815Z</time>
      </trkpt>
      <trkpt lat="47.495985" lon="7.930428">
        <ele>446.004702</ele>
        <time>2021-11-18T19:51:26.647Z</time>
      </trkpt>
      <trkpt lat="47.495801" lon="7.929891">
        <ele>446.698574</ele>
        <time>2021-11-18T19:51:36.305Z</time>
      </trkpt>
      <trkpt lat="47.495622" lon="7.929400">
        <ele>447.341520</ele>
        <time>2021-11-18T19:51:44.917Z</time>
      </trkpt>
      <trkpt lat="47.495562" lon="7.929221">
        <ele>447.593276</ele>
        <time>2021-11-18T19:51:47.877Z</time>
      </trkpt>
      <trkpt lat="47.495530" lon="7.929063">
        <ele>447.969134</ele>
        <time>2021-11-18T19:51:50.351Z</time>
      </trkpt>
      <trkpt lat="47.495455" lon="7.928595">
        <ele>449.065140</ele>
        <time>2021-11-18T19:51:59.179Z</time>
      </trkpt>
      <trkpt lat="47.495268" lon="7.927740">
        <ele>451.112945</ele>
        <time>2021-11-18T19:52:16.188Z</time>
      </trkpt>
      <trkpt lat="47.495031" lon="7.927006">
        <ele>452.966679</ele>
        <time>2021-11-18T19:52:33.090Z</time>
      </trkpt>
      <trkpt lat="47.494945" lon="7.926765">
        <ele>453.587732</ele>
        <time>2021-11-18T19:52:39.733Z</time>
      </trkpt>
      <trkpt lat="47.494515" lon="7.925509">
        <ele>457.119420</ele>
        <time>2021-11-18T19:53:08.152Z</time>
      </trkpt>
      <trkpt lat="47.494438" lon="7.925289">
        <ele>457.741380</ele>
        <time>2021-11-18T19:53:13.585Z</time>
      </trkpt>
      <trkpt lat="47.494034" lon="7.924101">
        <ele>461.019650</ele>
        <time>2021-11-18T19:53:38.649Z</time>
      </trkpt>
      <trkpt lat="47.493708" lon="7.923049">
        <ele>463.700554</ele>
        <time>2021-11-18T19:54:00.221Z</time>
      </trkpt>
      <trkpt lat="47.493397" lon="7.921760">
        <ele>466.992095</ele>
        <time>2021-11-18T19:54:27.200Z</time>
      </trkpt>
      <trkpt lat="47.493307" lon="7.921373">
        <ele>468.222533</ele>
        <time>2021-11-18T19:54:35.694Z</time>
      </trkpt>
      <trkpt lat="47.493236" lon="7.921091">
        <ele>469.127266</ele>
        <time>2021-11-18T19:54:42.075Z</time>
      </trkpt>
      <trkpt lat="47.493132" lon="7.920716">
        <ele>470.345918</ele>
        <time>2021-11-18T19:54:51.125Z</time>
      </trkpt>
      <trkpt lat="47.492813" lon="7.919900">
        <ele>473.180120</ele>
        <time>2021-11-18T19:55:12.608Z</time>
      </trkpt>
      <trkpt lat="47.492584" lon="7.919482">
        <ele>474.800404</ele>
        <time>2021-11-18T19:55:25.381Z</time>
      </trkpt>
      <trkpt lat="47.492227" lon="7.918989">
        <ele>476.989050</ele>
        <time>2021-11-18T19:55:42.282Z</time>
      </trkpt>
      <trkpt lat="47.491324" lon="7.917985">
        <ele>482.051637</ele>
        <time>2021-11-18T19:56:19.067Z</time>
      </trkpt>
      <trkpt lat="47.490822" lon="7.917158">
        <ele>484.494232</ele>
        <time>2021-11-18T19:56:41.227Z</time>
      </trkpt>
      <trkpt lat="47.490607" lon="7.916690">
        <ele>485.659793</ele>
        <time>2021-11-18T19:56:51.425Z</time>
      </trkpt>
      <trkpt lat="47.490429" lon="7.916164">
        <ele>486.871404</ele>
        <time>2021-11-18T19:57:01.294Z</time>
      </trkpt>
      <trkpt lat="47.490283" lon="7.915612">
        <ele>488.074048</ele>
        <time>2021-11-18T19:57:11.122Z</time>
      </trkpt>
      <trkpt lat="47.489987" lon="7.914083">
        <ele>490.605281</ele>
        <time>2021-11-18T19:57:36.903Z</time>
      </trkpt>
      <trkpt lat="47.489951" lon="7.913893">
        <ele>490.919321</ele>
        <time>2021-11-18T19:57:39.897Z</time>
      </trkpt>
      <trkpt lat="47.489922" lon="7.913738">
        <ele>491.175279</ele>
        <time>2021-11-18T19:57:42.402Z</time>
      </trkpt>
      <trkpt lat="47.489843" lon="7.913398">
        <ele>491.747473</ele>
        <time>2021-11-18T19:57:47.749Z</time>
      </trkpt>
      <trkpt lat="47.489607" lon="7.912646">
        <ele>493.509275</ele>
        <time>2021-11-18T19:58:01.977Z</time>
      </trkpt>
      <trkpt lat="47.489216" lon="7.911685">
        <ele>496.258716</ele>
        <time>2021-11-18T19:58:24.291Z</time>
      </trkpt>
      <trkpt lat="47.489040" lon="7.911300">
        <ele>497.398017</ele>
        <time>2021-11-18T19:58:33.758Z</time>
      </trkpt>
      <trkpt lat="47.488908" lon="7.911009">
        <ele>498.257068</ele>
        <time>2021-11-18T19:58:42.319Z</time>
      </trkpt>
      <trkpt lat="47.488699" lon="7.910498">
        <ele>499.741980</ele>
        <time>2021-11-18T19:58:55.982Z</time>
      </trkpt>
      <trkpt lat="47.488366" lon="7.909318">
        <ele>502.945257</ele>
        <time>2021-11-18T19:59:21.855Z</time>
      </trkpt>
      <trkpt lat="47.488241" lon="7.908835">
        <ele>504.240863</ele>
        <time>2021-11-18T19:59:31.041Z</time>
      </trkpt>
      <trkpt lat="47.488185" lon="7.908663">
        <ele>504.719123</ele>
        <time>2021-11-18T19:59:35.093Z</time>
      </trkpt>
      <trkpt lat="47.488080" lon="7.908344">
        <ele>505.591209</ele>
        <time>2021-11-18T19:59:41.054Z</time>
      </trkpt>
      <trkpt lat="47.487763" lon="7.907711">
        <ele>507.368008</ele>
        <time>2021-11-18T19:59:56.112Z</time>
      </trkpt>
      <trkpt lat="47.487587" lon="7.907459">
        <ele>508.185301</ele>
        <time>2021-11-18T20:00:02.571Z</time>
      </trkpt>
      <trkpt lat="47.487378" lon="7.907191">
        <ele>509.108224</ele>
        <time>2021-11-18T20:00:09.770Z</time>
      </trkpt>
      <trkpt lat="47.487197" lon="7.906946">
        <ele>509.926857</ele>
        <time>2021-11-18T20:00:15.911Z</time>
      </trkpt>
      <trkpt lat="47.486969" lon="7.906583">
        <ele>511.044508</ele>
        <time>2021-11-18T20:00:24.220Z</time>
      </trkpt>
      <trkpt lat="47.486769" lon="7.905976">
        <ele>513.870462</ele>
        <time>2021-11-18T20:00:40.019Z</time>
      </trkpt>
      <trkpt lat="47.486724" lon="7.905485">
        <ele>516.282175</ele>
        <time>2021-11-18T20:00:54.243Z</time>
      </trkpt>
      <trkpt lat="47.486755" lon="7.904487">
        <ele>521.144849</ele>
        <time>2021-11-18T20:01:26.156Z</time>
      </trkpt>
      <trkpt lat="47.486721" lon="7.904326">
        <ele>521.965854</ele>
        <time>2021-11-18T20:01:32.567Z</time>
      </trkpt>
      <trkpt lat="47.486721" lon="7.904326">
        <ele>521.965854</ele>
        <time>2021-11-18T20:01:32.686Z</time>
      </trkpt>
      <trkpt lat="47.486787" lon="7.904241">
        <ele>522.596049</ele>
        <time>2021-11-18T20:01:38.309Z</time>
      </trkpt>
      <trkpt lat="47.486851" lon="7.904088">
        <ele>523.471869</ele>
        <time>2021-11-18T20:01:46.327Z</time>
      </trkpt>
      <trkpt lat="47.486956" lon="7.903776">
        <ele>525.346853</ele>
        <time>2021-11-18T20:02:03.860Z</time>
      </trkpt>
      <trkpt lat="47.487094" lon="7.903449">
        <ele>527.657844</ele>
        <time>2021-11-18T20:02:22.931Z</time>
      </trkpt>
      <trkpt lat="47.487618" lon="7.902286">
        <ele>536.036709</ele>
        <time>2021-11-18T20:03:33.963Z</time>
      </trkpt>
      <trkpt lat="47.488244" lon="7.900510">
        <ele>545.090402</ele>
        <time>2021-11-18T20:05:07.746Z</time>
      </trkpt>
      <trkpt lat="47.488318" lon="7.900297">
        <ele>545.974773</ele>
        <time>2021-11-18T20:05:17.639Z</time>
      </trkpt>
      <trkpt lat="47.488332" lon="7.900256">
        <ele>546.144398</ele>
        <time>2021-11-18T20:05:19.980Z</time>
      </trkpt>
      <trkpt lat="47.488488" lon="7.899603">
        <ele>548.701868</ele>
        <time>2021-11-18T20:05:44.090Z</time>
      </trkpt>
      <trkpt lat="47.488504" lon="7.899482">
        <ele>549.157137</ele>
        <time>2021-11-18T20:05:48.235Z</time>
      </trkpt>
      <trkpt lat="47.488505" lon="7.899198">
        <ele>550.174532</ele>
        <time>2021-11-18T20:05:52.420Z</time>
      </trkpt>
      <trkpt lat="47.488244" lon="7.897339">
        <ele>548.342892</ele>
        <time>2021-11-18T20:06:09.126Z</time>
      </trkpt>
      <trkpt lat="47.488196" lon="7.897116">
        <ele>548.117117</ele>
        <time>2021-11-18T20:06:10.532Z</time>
      </trkpt>
      <trkpt lat="47.488140" lon="7.896871">
        <ele>547.867615</ele>
        <time>2021-11-18T20:06:12.384Z</time>
      </trkpt>
      <trkpt lat="47.488083" lon="7.896718">
        <ele>547.699073</ele>
        <time>2021-11-18T20:06:13.490Z</time>
      </trkpt>
      <trkpt lat="47.487908" lon="7.896570">
        <ele>546.760117</ele>
        <time>2021-11-18T20:06:15.435Z</time>
      </trkpt>
      <trkpt lat="47.487805" lon="7.896601">
        <ele>546.126231</ele>
        <time>2021-11-18T20:06:16.527Z</time>
      </trkpt>
      <trkpt lat="47.487421" lon="7.896715">
        <ele>543.764275</ele>
        <time>2021-11-18T20:06:20.249Z</time>
      </trkpt>
      <trkpt lat="47.487234" lon="7.896710">
        <ele>542.636337</ele>
        <time>2021-11-18T20:06:21.977Z</time>
      </trkpt>
      <trkpt lat="47.487132" lon="7.896643">
        <ele>541.963321</ele>
        <time>2021-11-18T20:06:23.237Z</time>
      </trkpt>
      <trkpt lat="47.487062" lon="7.896463">
        <ele>541.116962</ele>
        <time>2021-11-18T20:06:24.474Z</time>
      </trkpt>
      <trkpt lat="47.487081" lon="7.896178">
        <ele>539.949854</ele>
        <time>2021-11-18T20:06:26.213Z</time>
      </trkpt>
      <trkpt lat="47.487149" lon="7.895169">
        <ele>535.213361</ele>
        <time>2021-11-18T20:06:32.269Z</time>
      </trkpt>
      <trkpt lat="47.487161" lon="7.894314">
        <ele>529.508866</ele>
        <time>2021-11-18T20:06:37.321Z</time>
      </trkpt>
      <trkpt lat="47.487170" lon="7.894195">
        <ele>528.710123</ele>
        <time>2021-11-18T20:06:37.985Z</time>
      </trkpt>
      <trkpt lat="47.487181" lon="7.894092">
        <ele>528.014536</ele>
        <time>2021-11-18T20:06:38.587Z</time>
      </trkpt>
      <trkpt lat="47.487216" lon="7.893977">
        <ele>527.173219</ele>
        <time>2021-11-18T20:06:39.432Z</time>
      </trkpt>
      <trkpt lat="47.487256" lon="7.893919">
        <ele>526.620421</ele>
        <time>2021-11-18T20:06:39.934Z</time>
      </trkpt>
      <trkpt lat="47.487323" lon="7.893893">
        <ele>525.936692</ele>
        <time>2021-11-18T20:06:40.527Z</time>
      </trkpt>
      <trkpt lat="47.487476" lon="7.893956">
        <ele>524.369030</ele>
        <time>2021-11-18T20:06:41.854Z</time>
      </trkpt>
      <trkpt lat="47.487632" lon="7.894208">
        <ele>522.089363</ele>
        <time>2021-11-18T20:06:43.883Z</time>
      </trkpt>
      <trkpt lat="47.487657" lon="7.894274">
        <ele>521.584667</ele>
        <time>2021-11-18T20:06:44.304Z</time>
      </trkpt>
      <trkpt lat="47.487689" lon="7.894368">
        <ele>520.882576</ele>
        <time>2021-11-18T20:06:44.891Z</time>
      </trkpt>
      <trkpt lat="47.487840" lon="7.894546">
        <ele>518.978582</ele>
        <time>2021-11-18T20:06:46.625Z</time>
      </trkpt>
      <trkpt lat="47.488123" lon="7.894358">
        <ele>516.063021</ele>
        <time>2021-11-18T20:06:49.234Z</time>
      </trkpt>
      <trkpt lat="47.488180" lon="7.894303">
        <ele>515.423469</ele>
        <time>2021-11-18T20:06:49.819Z</time>
      </trkpt>
      <trkpt lat="47.488216" lon="7.894259">
        <ele>514.984633</ele>
        <time>2021-11-18T20:06:50.193Z</time>
      </trkpt>
      <trkpt lat="47.488316" lon="7.893785">
        <ele>511.830888</ele>
        <time>2021-11-18T20:06:53.073Z</time>
      </trkpt>
      <trkpt lat="47.488417" lon="7.893532">
        <ele>509.964597</ele>
        <time>2021-11-18T20:06:54.781Z</time>
      </trkpt>
      <trkpt lat="47.488372" lon="7.893226">
        <ele>507.975665</ele>
        <time>2021-11-18T20:06:56.652Z</time>
      </trkpt>
      <trkpt lat="47.488323" lon="7.893133">
        <ele>507.226686</ele>
        <time>2021-11-18T20:06:57.325Z</time>
      </trkpt>
      <trkpt lat="47.488250" lon="7.893055">
        <ele>506.380425</ele>
        <time>2021-11-18T20:06:58.152Z</time>
      </trkpt>
      <trkpt lat="47.488168" lon="7.892899">
        <ele>505.125188</ele>
        <time>2021-11-18T20:06:59.349Z</time>
      </trkpt>
      <trkpt lat="47.488137" lon="7.892763">
        <ele>504.213615</ele>
        <time>2021-11-18T20:07:00.197Z</time>
      </trkpt>
      <trkpt lat="47.488084" lon="7.892534">
        <ele>502.676260</ele>
        <time>2021-11-18T20:07:01.669Z</time>
      </trkpt>
      <trkpt lat="47.487680" lon="7.891282">
        <ele>497.479757</ele>
        <time>2021-11-18T20:07:10.207Z</time>
      </trkpt>
      <trkpt lat="47.487518" lon="7.890485">
        <ele>494.512461</ele>
        <time>2021-11-18T20:07:15.576Z</time>
      </trkpt>
      <trkpt lat="47.487490" lon="7.890449">
        <ele>494.316763</ele>
        <time>2021-11-18T20:07:15.948Z</time>
      </trkpt>
      <trkpt lat="47.487367" lon="7.890321">
        <ele>493.523414</ele>
        <time>2021-11-18T20:07:17.428Z</time>
      </trkpt>
      <trkpt lat="47.486940" lon="7.889619">
        <ele>490.785713</ele>
        <time>2021-11-18T20:07:23.899Z</time>
      </trkpt>
      <trkpt lat="47.486763" lon="7.889251">
        <ele>489.587412</ele>
        <time>2021-11-18T20:07:27.036Z</time>
      </trkpt>
      <trkpt lat="47.486746" lon="7.889218">
        <ele>489.477329</ele>
        <time>2021-11-18T20:07:27.276Z</time>
      </trkpt>
      <trkpt lat="47.486185" lon="7.888073">
        <ele>485.725357</ele>
        <time>2021-11-18T20:07:36.590Z</time>
      </trkpt>
      <trkpt lat="47.485991" lon="7.887744">
        <ele>484.462617</ele>
        <time>2021-11-18T20:07:39.423Z</time>
      </trkpt>
      <trkpt lat="47.485842" lon="7.887493">
        <ele>483.482732</ele>
        <time>2021-11-18T20:07:41.513Z</time>
      </trkpt>
      <trkpt lat="47.485824" lon="7.887463">
        <ele>483.365064</ele>
        <time>2021-11-18T20:07:41.771Z</time>
      </trkpt>
      <trkpt lat="47.485730" lon="7.887323">
        <ele>482.786223</ele>
        <time>2021-11-18T20:07:43.051Z</time>
      </trkpt>
      <trkpt lat="47.484923" lon="7.886213">
        <ele>478.004254</ele>
        <time>2021-11-18T20:07:53.665Z</time>
      </trkpt>
      <trkpt lat="47.484859" lon="7.886144">
        <ele>477.680484</ele>
        <time>2021-11-18T20:07:54.381Z</time>
      </trkpt>
      <trkpt lat="47.484724" lon="7.885990">
        <ele>477.107135</ele>
        <time>2021-11-18T20:07:56.177Z</time>
      </trkpt>
      <trkpt lat="47.484124" lon="7.885514">
        <ele>474.817236</ele>
        <time>2021-11-18T20:08:03.082Z</time>
      </trkpt>
      <trkpt lat="47.483644" lon="7.884992">
        <ele>472.813586</ele>
        <time>2021-11-18T20:08:08.968Z</time>
      </trkpt>
      <trkpt lat="47.483551" lon="7.884901">
        <ele>472.438565</ele>
        <time>2021-11-18T20:08:10.116Z</time>
      </trkpt>
      <trkpt lat="47.483495" lon="7.884861">
        <ele>472.229406</ele>
        <time>2021-11-18T20:08:10.919Z</time>
      </trkpt>
      <trkpt lat="47.483344" lon="7.884768">
        <ele>471.684607</ele>
        <time>2021-11-18T20:08:12.551Z</time>
      </trkpt>
      <trkpt lat="47.482795" lon="7.884621">
        <ele>470.311754</ele>
        <time>2021-11-18T20:08:18.541Z</time>
      </trkpt>
      <trkpt lat="47.482343" lon="7.884501">
        <ele>469.181765</ele>
        <time>2021-11-18T20:08:23.353Z</time>
      </trkpt>
      <trkpt lat="47.482094" lon="7.884439">
        <ele>468.560441</ele>
        <time>2021-11-18T20:08:26.077Z</time>
      </trkpt>
      <trkpt lat="47.481625" lon="7.884355">
        <ele>467.397958</ele>
        <time>2021-11-18T20:08:31.149Z</time>
      </trkpt>
      <trkpt lat="47.481202" lon="7.884417">
        <ele>466.592072</ele>
        <time>2021-11-18T20:08:35.719Z</time>
      </trkpt>
      <trkpt lat="47.481022" lon="7.884472">
        <ele>466.257660</ele>
        <time>2021-11-18T20:08:37.612Z</time>
      </trkpt>
      <trkpt lat="47.480931" lon="7.884489">
        <ele>466.090776</ele>
        <time>2021-11-18T20:08:38.678Z</time>
      </trkpt>
      <trkpt lat="47.480537" lon="7.884477">
        <ele>465.373759</ele>
        <time>2021-11-18T20:08:43.060Z</time>
      </trkpt>
      <trkpt lat="47.479813" lon="7.884128">
        <ele>463.998362</ele>
        <time>2021-11-18T20:08:51.847Z</time>
      </trkpt>
      <trkpt lat="47.479273" lon="7.883853">
        <ele>463.799959</ele>
        <time>2021-11-18T20:08:58.716Z</time>
      </trkpt>
      <trkpt lat="47.479105" lon="7.883776">
        <ele>463.738858</ele>
        <time>2021-11-18T20:09:00.889Z</time>
      </trkpt>
      <trkpt lat="47.478811" lon="7.883733">
        <ele>463.636222</ele>
        <time>2021-11-18T20:09:04.651Z</time>
      </trkpt>
      <trkpt lat="47.478579" lon="7.883777">
        <ele>463.554963</ele>
        <time>2021-11-18T20:09:07.699Z</time>
      </trkpt>
      <trkpt lat="47.477249" lon="7.884423">
        <ele>466.038206</ele>
        <time>2021-11-18T20:09:34.160Z</time>
      </trkpt>
      <trkpt lat="47.476108" lon="7.884690">
        <ele>470.063633</ele>
        <time>2021-11-18T20:10:13.887Z</time>
      </trkpt>
      <trkpt lat="47.475795" lon="7.884698">
        <ele>471.717817</ele>
        <time>2021-11-18T20:10:25.905Z</time>
      </trkpt>
      <trkpt lat="47.475660" lon="7.884681">
        <ele>472.433756</ele>
        <time>2021-11-18T20:10:31.480Z</time>
      </trkpt>
      <trkpt lat="47.475395" lon="7.884643">
        <ele>473.840616</ele>
        <time>2021-11-18T20:10:42.066Z</time>
      </trkpt>
      <trkpt lat="47.474825" lon="7.884590">
        <ele>476.858521</ele>
        <time>2021-11-18T20:11:02.575Z</time>
      </trkpt>
      <trkpt lat="47.474703" lon="7.884534">
        <ele>477.533502</ele>
        <time>2021-11-18T20:11:08.189Z</time>
      </trkpt>
      <trkpt lat="47.474508" lon="7.884402">
        <ele>478.467054</ele>
        <time>2021-11-18T20:11:15.020Z</time>
      </trkpt>
      <trkpt lat="47.473290" lon="7.883592">
        <ele>481.730894</ele>
        <time>2021-11-18T20:11:51.352Z</time>
      </trkpt>
      <trkpt lat="47.473082" lon="7.883408">
        <ele>482.323216</ele>
        <time>2021-11-18T20:11:55.064Z</time>
      </trkpt>
      <trkpt lat="47.472670" lon="7.883027">
        <ele>481.053138</ele>
        <time>2021-11-18T20:12:01.784Z</time>
      </trkpt>
      <trkpt lat="47.471932" lon="7.882355">
        <ele>476.818440</ele>
        <time>2021-11-18T20:12:10.774Z</time>
      </trkpt>
      <trkpt lat="47.471600" lon="7.881776">
        <ele>474.310496</ele>
        <time>2021-11-18T20:12:15.173Z</time>
      </trkpt>
      <trkpt lat="47.471472" lon="7.881494">
        <ele>471.822164</ele>
        <time>2021-11-18T20:12:17.194Z</time>
      </trkpt>
      <trkpt lat="47.471451" lon="7.881438">
        <ele>471.205580</ele>
        <time>2021-11-18T20:12:17.570Z</time>
      </trkpt>
      <trkpt lat="47.471376" lon="7.881235">
        <ele>468.978191</ele>
        <time>2021-11-18T20:12:18.863Z</time>
      </trkpt>
      <trkpt lat="47.471173" lon="7.880721">
        <ele>463.246569</ele>
        <time>2021-11-18T20:12:22.229Z</time>
      </trkpt>
      <trkpt lat="47.471143" lon="7.880602">
        <ele>462.023734</ele>
        <time>2021-11-18T20:12:22.944Z</time>
      </trkpt>
      <trkpt lat="47.471122" lon="7.880528">
        <ele>461.251012</ele>
        <time>2021-11-18T20:12:23.394Z</time>
      </trkpt>
      <trkpt lat="47.471056" lon="7.880271">
        <ele>458.604024</ele>
        <time>2021-11-18T20:12:24.924Z</time>
      </trkpt>
      <trkpt lat="47.470688" lon="7.879298">
        <ele>447.967216</ele>
        <time>2021-11-18T20:12:31.160Z</time>
      </trkpt>
      <trkpt lat="47.470641" lon="7.879203">
        <ele>447.102434</ele>
        <time>2021-11-18T20:12:31.821Z</time>
      </trkpt>
      <trkpt lat="47.470626" lon="7.879175">
        <ele>446.839994</ele>
        <time>2021-11-18T20:12:32.018Z</time>
      </trkpt>
      <trkpt lat="47.470496" lon="7.878920">
        <ele>444.493835</ele>
        <time>2021-11-18T20:12:33.818Z</time>
      </trkpt>
      <trkpt lat="47.470372" lon="7.878664">
        <ele>442.180379</ele>
        <time>2021-11-18T20:12:35.585Z</time>
      </trkpt>
      <trkpt lat="47.470277" lon="7.878469">
        <ele>440.414705</ele>
        <time>2021-11-18T20:12:36.955Z</time>
      </trkpt>
      <trkpt lat="47.470106" lon="7.878102">
        <ele>437.140415</ele>
        <time>2021-11-18T20:12:39.533Z</time>
      </trkpt>
      <trkpt lat="47.469549" lon="7.877073">
        <ele>428.285559</ele>
        <time>2021-11-18T20:12:47.429Z</time>
      </trkpt>
      <trkpt lat="47.469512" lon="7.877020">
        <ele>428.088172</ele>
        <time>2021-11-18T20:12:47.876Z</time>
      </trkpt>
      <trkpt lat="47.469475" lon="7.876966">
        <ele>427.888974</ele>
        <time>2021-11-18T20:12:48.374Z</time>
      </trkpt>
      <trkpt lat="47.469413" lon="7.876875">
        <ele>427.554247</ele>
        <time>2021-11-18T20:12:49.256Z</time>
      </trkpt>
      <trkpt lat="47.469384" lon="7.876836">
        <ele>427.404043</ele>
        <time>2021-11-18T20:12:50.058Z</time>
      </trkpt>
      <trkpt lat="47.469354" lon="7.876797">
        <ele>427.250980</ele>
        <time>2021-11-18T20:12:50.410Z</time>
      </trkpt>
      <trkpt lat="47.469265" lon="7.876688">
        <ele>426.808161</ele>
        <time>2021-11-18T20:12:51.516Z</time>
      </trkpt>
      <trkpt lat="47.468740" lon="7.876159">
        <ele>424.373678</ele>
        <time>2021-11-18T20:12:58.039Z</time>
      </trkpt>
      <trkpt lat="47.468698" lon="7.876140">
        <ele>424.205354</ele>
        <time>2021-11-18T20:12:58.469Z</time>
      </trkpt>
      <trkpt lat="47.468769" lon="7.875848">
        <ele>423.401404</ele>
        <time>2021-11-18T20:13:00.608Z</time>
      </trkpt>
      <trkpt lat="47.468806" lon="7.875696">
        <ele>422.982857</ele>
        <time>2021-11-18T20:13:01.793Z</time>
      </trkpt>
      <trkpt lat="47.468925" lon="7.875205">
        <ele>421.731985</ele>
        <time>2021-11-18T20:13:05.496Z</time>
      </trkpt>
      <trkpt lat="47.468989" lon="7.874967">
        <ele>421.382466</ele>
        <time>2021-11-18T20:13:07.281Z</time>
      </trkpt>
      <trkpt lat="47.469050" lon="7.874738">
        <ele>421.046596</ele>
        <time>2021-11-18T20:13:09.271Z</time>
      </trkpt>
      <trkpt lat="47.469068" lon="7.874689">
        <ele>420.970498</ele>
        <time>2021-11-18T20:13:09.707Z</time>
      </trkpt>
      <trkpt lat="47.469097" lon="7.874606">
        <ele>420.843005</ele>
        <time>2021-11-18T20:13:10.339Z</time>
      </trkpt>
      <trkpt lat="47.469136" lon="7.874516">
        <ele>420.697128</ele>
        <time>2021-11-18T20:13:11.121Z</time>
      </trkpt>
      <trkpt lat="47.469173" lon="7.874432">
        <ele>420.560318</ele>
        <time>2021-11-18T20:13:11.908Z</time>
      </trkpt>
      <trkpt lat="47.469224" lon="7.874328">
        <ele>420.384996</ele>
        <time>2021-11-18T20:13:12.972Z</time>
      </trkpt>
      <trkpt lat="47.469422" lon="7.873965">
        <ele>419.748519</ele>
        <time>2021-11-18T20:13:16.396Z</time>
      </trkpt>
      <trkpt lat="47.469489" lon="7.873809">
        <ele>419.496318</ele>
        <time>2021-11-18T20:13:17.814Z</time>
      </trkpt>
      <trkpt lat="47.469626" lon="7.873477">
        <ele>418.965549</ele>
        <time>2021-11-18T20:13:20.690Z</time>
      </trkpt>
      <trkpt lat="47.469682" lon="7.873326">
        <ele>418.730530</ele>
        <time>2021-11-18T20:13:22.030Z</time>
      </trkpt>
      <trkpt lat="47.469710" lon="7.873249">
        <ele>418.611223</ele>
        <time>2021-11-18T20:13:22.612Z</time>
      </trkpt>
      <trkpt lat="47.469969" lon="7.872276">
        <ele>417.355326</ele>
        <time>2021-11-18T20:13:30.597Z</time>
      </trkpt>
      <trkpt lat="47.470156" lon="7.871491">
        <ele>416.408419</ele>
        <time>2021-11-18T20:13:36.894Z</time>
      </trkpt>
      <trkpt lat="47.470217" lon="7.871214">
        <ele>416.076983</ele>
        <time>2021-11-18T20:13:39.059Z</time>
      </trkpt>
      <trkpt lat="47.470245" lon="7.871088">
        <ele>415.926089</ele>
        <time>2021-11-18T20:13:40.057Z</time>
      </trkpt>
      <trkpt lat="47.470316" lon="7.870753">
        <ele>415.526676</ele>
        <time>2021-11-18T20:13:42.933Z</time>
      </trkpt>
      <trkpt lat="47.470333" lon="7.870669">
        <ele>415.426921</ele>
        <time>2021-11-18T20:13:43.549Z</time>
      </trkpt>
      <trkpt lat="47.470350" lon="7.870570">
        <ele>415.310715</ele>
        <time>2021-11-18T20:13:44.343Z</time>
      </trkpt>
      <trkpt lat="47.470379" lon="7.870338">
        <ele>415.114095</ele>
        <time>2021-11-18T20:13:46.330Z</time>
      </trkpt>
      <trkpt lat="47.470397" lon="7.870147">
        <ele>415.004398</ele>
        <time>2021-11-18T20:13:48.425Z</time>
      </trkpt>
      <trkpt lat="47.470378" lon="7.869626">
        <ele>414.707606</ele>
        <time>2021-11-18T20:13:54.443Z</time>
      </trkpt>
      <trkpt lat="47.470309" lon="7.869201">
        <ele>414.458978</ele>
        <time>2021-11-18T20:13:59.803Z</time>
      </trkpt>
      <trkpt lat="47.470234" lon="7.868884">
        <ele>414.267933</ele>
        <time>2021-11-18T20:14:03.812Z</time>
      </trkpt>
      <trkpt lat="47.470127" lon="7.868484">
        <ele>414.023232</ele>
        <time>2021-11-18T20:14:09.226Z</time>
      </trkpt>
      <trkpt lat="47.469915" lon="7.867494">
        <ele>413.384896</ele>
        <time>2021-11-18T20:14:22.394Z</time>
      </trkpt>
      <trkpt lat="47.469808" lon="7.866690">
        <ele>412.826243</ele>
        <time>2021-11-18T20:14:32.117Z</time>
      </trkpt>
      <trkpt lat="47.469764" lon="7.866452">
        <ele>412.658026</ele>
        <time>2021-11-18T20:14:35.128Z</time>
      </trkpt>
      <trkpt lat="47.469710" lon="7.866208">
        <ele>412.482989</ele>
        <time>2021-11-18T20:14:38.095Z</time>
      </trkpt>
      <trkpt lat="47.469629" lon="7.865918">
        <ele>412.269067</ele>
        <time>2021-11-18T20:14:41.850Z</time>
      </trkpt>
      <trkpt lat="47.469305" lon="7.864692">
        <ele>410.998998</ele>
        <time>2021-11-18T20:14:56.248Z</time>
      </trkpt>
      <trkpt lat="47.469011" lon="7.863405">
        <ele>409.363707</ele>
        <time>2021-11-18T20:15:10.959Z</time>
      </trkpt>
      <trkpt lat="47.468986" lon="7.863323">
        <ele>409.255425</ele>
        <time>2021-11-18T20:15:11.816Z</time>
      </trkpt>
      <trkpt lat="47.468943" lon="7.863195">
        <ele>409.083368</ele>
        <time>2021-11-18T20:15:13.364Z</time>
      </trkpt>
      <trkpt lat="47.468859" lon="7.862978">
        <ele>408.782357</ele>
        <time>2021-11-18T20:15:16.127Z</time>
      </trkpt>
      <trkpt lat="47.468825" lon="7.862900">
        <ele>408.670636</ele>
        <time>2021-11-18T20:15:17.103Z</time>
      </trkpt>
      <trkpt lat="47.468543" lon="7.862357">
        <ele>408.040363</ele>
        <time>2021-11-18T20:15:24.513Z</time>
      </trkpt>
      <trkpt lat="47.468224" lon="7.861805">
        <ele>407.375782</ele>
        <time>2021-11-18T20:15:32.676Z</time>
      </trkpt>
      <trkpt lat="47.467944" lon="7.861300">
        <ele>406.778075</ele>
        <time>2021-11-18T20:15:40.049Z</time>
      </trkpt>
      <trkpt lat="47.467266" lon="7.860107">
        <ele>405.611625</ele>
        <time>2021-11-18T20:15:58.760Z</time>
      </trkpt>
      <trkpt lat="47.467047" lon="7.859682">
        <ele>405.268863</ele>
        <time>2021-11-18T20:16:04.961Z</time>
      </trkpt>
      <trkpt lat="47.466922" lon="7.859398">
        <ele>405.051495</ele>
        <time>2021-11-18T20:16:08.926Z</time>
      </trkpt>
      <trkpt lat="47.466824" lon="7.859137">
        <ele>404.859998</ele>
        <time>2021-11-18T20:16:12.624Z</time>
      </trkpt>
      <trkpt lat="47.466673" lon="7.858620">
        <ele>404.492324</ele>
        <time>2021-11-18T20:16:19.179Z</time>
      </trkpt>
      <trkpt lat="47.466576" lon="7.858236">
        <ele>404.117927</ele>
        <time>2021-11-18T20:16:24.037Z</time>
      </trkpt>
      <trkpt lat="47.466518" lon="7.858022">
        <ele>403.907356</ele>
        <time>2021-11-18T20:16:25.955Z</time>
      </trkpt>
      <trkpt lat="47.466347" lon="7.856973">
        <ele>402.921827</ele>
        <time>2021-11-18T20:16:34.521Z</time>
      </trkpt>
      <trkpt lat="47.466344" lon="7.856945">
        <ele>402.895935</ele>
        <time>2021-11-18T20:16:34.703Z</time>
      </trkpt>
      <trkpt lat="47.466322" lon="7.856655">
        <ele>402.629410</ele>
        <time>2021-11-18T20:16:37.069Z</time>
      </trkpt>
      <trkpt lat="47.466310" lon="7.856541">
        <ele>402.524037</ele>
        <time>2021-11-18T20:16:37.932Z</time>
      </trkpt>
      <trkpt lat="47.466334" lon="7.856525">
        <ele>402.488472</ele>
        <time>2021-11-18T20:16:38.246Z</time>
      </trkpt>
      <trkpt lat="47.466353" lon="7.856496">
        <ele>402.451588</ele>
        <time>2021-11-18T20:16:38.560Z</time>
      </trkpt>
      <trkpt lat="47.466361" lon="7.856459">
        <ele>402.416109</ele>
        <time>2021-11-18T20:16:38.829Z</time>
      </trkpt>
      <trkpt lat="47.466359" lon="7.856420">
        <ele>402.380387</ele>
        <time>2021-11-18T20:16:39.124Z</time>
      </trkpt>
      <trkpt lat="47.466324" lon="7.856362">
        <ele>402.309380</ele>
        <time>2021-11-18T20:16:39.743Z</time>
      </trkpt>
      <trkpt lat="47.466298" lon="7.856354">
        <ele>402.273502</ele>
        <time>2021-11-18T20:16:40.033Z</time>
      </trkpt>
      <trkpt lat="47.466295" lon="7.856234">
        <ele>402.163828</ele>
        <time>2021-11-18T20:16:40.991Z</time>
      </trkpt>
      <trkpt lat="47.466298" lon="7.855895">
        <ele>401.808735</ele>
        <time>2021-11-18T20:16:43.504Z</time>
      </trkpt>
      <trkpt lat="47.466324" lon="7.855062">
        <ele>400.896473</ele>
        <time>2021-11-18T20:16:49.860Z</time>
      </trkpt>
      <trkpt lat="47.466332" lon="7.854775">
        <ele>400.582232</ele>
        <time>2021-11-18T20:16:52.032Z</time>
      </trkpt>
      <trkpt lat="47.466338" lon="7.854554">
        <ele>400.340266</ele>
        <time>2021-11-18T20:16:53.730Z</time>
      </trkpt>
      <trkpt lat="47.466331" lon="7.853936">
        <ele>399.664087</ele>
        <time>2021-11-18T20:16:58.572Z</time>
      </trkpt>
      <trkpt lat="47.466256" lon="7.853287">
        <ele>399.001037</ele>
        <time>2021-11-18T20:17:03.617Z</time>
      </trkpt>
      <trkpt lat="47.465906" lon="7.851776">
        <ele>397.689577</ele>
        <time>2021-11-18T20:17:16.484Z</time>
      </trkpt>
      <trkpt lat="47.465871" lon="7.851620">
        <ele>397.554618</ele>
        <time>2021-11-18T20:17:17.799Z</time>
      </trkpt>
      <trkpt lat="47.465896" lon="7.851603">
        <ele>397.521199</ele>
        <time>2021-11-18T20:17:18.127Z</time>
      </trkpt>
      <trkpt lat="47.465931" lon="7.851497">
        <ele>397.424338</ele>
        <time>2021-11-18T20:17:19.119Z</time>
      </trkpt>
      <trkpt lat="47.465925" lon="7.851458">
        <ele>397.391497</ele>
        <time>2021-11-18T20:17:19.443Z</time>
      </trkpt>
      <trkpt lat="47.465914" lon="7.851427">
        <ele>397.362750</ele>
        <time>2021-11-18T20:17:19.727Z</time>
      </trkpt>
      <trkpt lat="47.465853" lon="7.851380">
        <ele>397.279213</ele>
        <time>2021-11-18T20:17:20.575Z</time>
      </trkpt>
      <trkpt lat="47.465829" lon="7.851383">
        <ele>397.249960</ele>
        <time>2021-11-18T20:17:20.861Z</time>
      </trkpt>
      <trkpt lat="47.465714" lon="7.850917">
        <ele>396.834735</ele>
        <time>2021-11-18T20:17:24.927Z</time>
      </trkpt>
      <trkpt lat="47.465620" lon="7.850585">
        <ele>396.523202</ele>
        <time>2021-11-18T20:17:27.879Z</time>
      </trkpt>
      <trkpt lat="47.465558" lon="7.850405">
        <ele>396.348354</ele>
        <time>2021-11-18T20:17:29.549Z</time>
      </trkpt>
      <trkpt lat="47.465348" lon="7.849875">
        <ele>395.816648</ele>
        <time>2021-11-18T20:17:34.444Z</time>
      </trkpt>
      <trkpt lat="47.465152" lon="7.849351">
        <ele>395.298325</ele>
        <time>2021-11-18T20:17:39.158Z</time>
      </trkpt>
      <trkpt lat="47.464952" lon="7.848443">
        <ele>394.483985</ele>
        <time>2021-11-18T20:17:46.648Z</time>
      </trkpt>
      <trkpt lat="47.464909" lon="7.848219">
        <ele>394.293939</ele>
        <time>2021-11-18T20:17:48.493Z</time>
      </trkpt>
      <trkpt lat="47.464850" lon="7.847870">
        <ele>394.000329</ele>
        <time>2021-11-18T20:17:51.294Z</time>
      </trkpt>
      <trkpt lat="47.464820" lon="7.847644">
        <ele>393.812355</ele>
        <time>2021-11-18T20:17:53.206Z</time>
      </trkpt>
      <trkpt lat="47.464784" lon="7.847333">
        <ele>393.554836</ele>
        <time>2021-11-18T20:17:55.713Z</time>
      </trkpt>
      <trkpt lat="47.464771" lon="7.847028">
        <ele>393.305413</ele>
        <time>2021-11-18T20:17:58.209Z</time>
      </trkpt>
      <trkpt lat="47.464737" lon="7.846119">
        <ele>392.562389</ele>
        <time>2021-11-18T20:18:05.522Z</time>
      </trkpt>
      <trkpt lat="47.464585" lon="7.844988">
        <ele>392.092585</ele>
        <time>2021-11-18T20:18:15.319Z</time>
      </trkpt>
      <trkpt lat="47.464433" lon="7.844273">
        <ele>391.803644</ele>
        <time>2021-11-18T20:18:22.034Z</time>
      </trkpt>
      <trkpt lat="47.464386" lon="7.844088">
        <ele>391.727457</ele>
        <time>2021-11-18T20:18:23.682Z</time>
      </trkpt>
      <trkpt lat="47.464354" lon="7.843960">
        <ele>391.674846</ele>
        <time>2021-11-18T20:18:25.085Z</time>
      </trkpt>
      <trkpt lat="47.464234" lon="7.843434">
        <ele>391.510456</ele>
        <time>2021-11-18T20:18:30.257Z</time>
      </trkpt>
      <trkpt lat="47.464176" lon="7.843178">
        <ele>391.590682</ele>
        <time>2021-11-18T20:18:32.674Z</time>
      </trkpt>
      <trkpt lat="47.464165" lon="7.843130">
        <ele>391.605742</ele>
        <time>2021-11-18T20:18:33.209Z</time>
      </trkpt>
      <trkpt lat="47.464075" lon="7.842774">
        <ele>391.718678</ele>
        <time>2021-11-18T20:18:38.101Z</time>
      </trkpt>
      <trkpt lat="47.464053" lon="7.842690">
        <ele>391.745446</ele>
        <time>2021-11-18T20:18:38.823Z</time>
      </trkpt>
      <trkpt lat="47.463971" lon="7.842355">
        <ele>391.851312</ele>
        <time>2021-11-18T20:18:43.754Z</time>
      </trkpt>
      <trkpt lat="47.463922" lon="7.842123">
        <ele>391.923535</ele>
        <time>2021-11-18T20:18:46.084Z</time>
      </trkpt>
      <trkpt lat="47.463874" lon="7.841863">
        <ele>392.003620</ele>
        <time>2021-11-18T20:18:50.290Z</time>
      </trkpt>
      <trkpt lat="47.463685" lon="7.841203">
        <ele>392.216603</ele>
        <time>2021-11-18T20:18:58.680Z</time>
      </trkpt>
      <trkpt lat="47.463616" lon="7.840992">
        <ele>392.271800</ele>
        <time>2021-11-18T20:19:01.627Z</time>
      </trkpt>
      <trkpt lat="47.463588" lon="7.840904">
        <ele>392.239688</ele>
        <time>2021-11-18T20:19:02.519Z</time>
      </trkpt>
      <trkpt lat="47.463287" lon="7.840028">
        <ele>391.915245</ele>
        <time>2021-11-18T20:19:11.261Z</time>
      </trkpt>
      <trkpt lat="47.463133" lon="7.839561">
        <ele>391.743689</ele>
        <time>2021-11-18T20:19:15.833Z</time>
      </trkpt>
      <trkpt lat="47.463043" lon="7.839292">
        <ele>391.644592</ele>
        <time>2021-11-18T20:19:18.284Z</time>
      </trkpt>
      <trkpt lat="47.462982" lon="7.839106">
        <ele>391.576335</ele>
        <time>2021-11-18T20:19:20.680Z</time>
      </trkpt>
      <trkpt lat="47.462967" lon="7.839047">
        <ele>391.555523</ele>
        <time>2021-11-18T20:19:21.164Z</time>
      </trkpt>
      <trkpt lat="47.462936" lon="7.838934">
        <ele>391.515258</ele>
        <time>2021-11-18T20:19:22.109Z</time>
      </trkpt>
      <trkpt lat="47.462883" lon="7.838488">
        <ele>391.312443</ele>
        <time>2021-11-18T20:19:26.063Z</time>
      </trkpt>
      <trkpt lat="47.462873" lon="7.838016">
        <ele>390.920761</ele>
        <time>2021-11-18T20:19:29.914Z</time>
      </trkpt>
      <trkpt lat="47.462871" lon="7.837954">
        <ele>390.869278</ele>
        <time>2021-11-18T20:19:30.360Z</time>
      </trkpt>
      <trkpt lat="47.462869" lon="7.837866">
        <ele>390.796247</ele>
        <time>2021-11-18T20:19:30.977Z</time>
      </trkpt>
      <trkpt lat="47.462865" lon="7.837711">
        <ele>390.667592</ele>
        <time>2021-11-18T20:19:32.269Z</time>
      </trkpt>
      <trkpt lat="47.462856" lon="7.837506">
        <ele>390.497201</ele>
        <time>2021-11-18T20:19:34.067Z</time>
      </trkpt>
      <trkpt lat="47.462851" lon="7.837404">
        <ele>390.412377</ele>
        <time>2021-11-18T20:19:34.771Z</time>
      </trkpt>
      <trkpt lat="47.462748" lon="7.836556">
        <ele>389.697760</ele>
        <time>2021-11-18T20:19:41.335Z</time>
      </trkpt>
      <trkpt lat="47.462730" lon="7.836472">
        <ele>389.624672</ele>
        <time>2021-11-18T20:19:42.218Z</time>
      </trkpt>
      <trkpt lat="47.462700" lon="7.836337">
        <ele>389.506805</ele>
        <time>2021-11-18T20:19:43.428Z</time>
      </trkpt>
      <trkpt lat="47.462666" lon="7.836201">
        <ele>389.386537</ele>
        <time>2021-11-18T20:19:44.623Z</time>
      </trkpt>
      <trkpt lat="47.462586" lon="7.835900">
        <ele>389.142214</ele>
        <time>2021-11-18T20:19:47.295Z</time>
      </trkpt>
      <trkpt lat="47.462388" lon="7.834991">
        <ele>388.599355</ele>
        <time>2021-11-18T20:19:55.679Z</time>
      </trkpt>
      <trkpt lat="47.462375" lon="7.834910">
        <ele>388.552033</ele>
        <time>2021-11-18T20:19:56.390Z</time>
      </trkpt>
      <trkpt lat="47.462357" lon="7.834782">
        <ele>388.477716</ele>
        <time>2021-11-18T20:19:57.417Z</time>
      </trkpt>
      <trkpt lat="47.462317" lon="7.834216">
        <ele>388.154231</ele>
        <time>2021-11-18T20:20:02.362Z</time>
      </trkpt>
      <trkpt lat="47.462296" lon="7.833933">
        <ele>387.992398</ele>
        <time>2021-11-18T20:20:04.755Z</time>
      </trkpt>
      <trkpt lat="47.462285" lon="7.833721">
        <ele>387.871536</ele>
        <time>2021-11-18T20:20:06.435Z</time>
      </trkpt>
      <trkpt lat="47.462217" lon="7.832953">
        <ele>387.494037</ele>
        <time>2021-11-18T20:20:12.985Z</time>
      </trkpt>
      <trkpt lat="47.462179" lon="7.832744">
        <ele>387.401808</ele>
        <time>2021-11-18T20:20:14.749Z</time>
      </trkpt>
      <trkpt lat="47.462080" lon="7.832335">
        <ele>387.216681</ele>
        <time>2021-11-18T20:20:18.484Z</time>
      </trkpt>
      <trkpt lat="47.462048" lon="7.832204">
        <ele>387.157324</ele>
        <time>2021-11-18T20:20:19.706Z</time>
      </trkpt>
      <trkpt lat="47.461918" lon="7.831668">
        <ele>386.914656</ele>
        <time>2021-11-18T20:20:24.599Z</time>
      </trkpt>
      <trkpt lat="47.461787" lon="7.831158">
        <ele>386.682163</ele>
        <time>2021-11-18T20:20:29.611Z</time>
      </trkpt>
      <trkpt lat="47.461585" lon="7.830158">
        <ele>386.581125</ele>
        <time>2021-11-18T20:20:39.454Z</time>
      </trkpt>
      <trkpt lat="47.461548" lon="7.829918">
        <ele>386.592181</ele>
        <time>2021-11-18T20:20:41.669Z</time>
      </trkpt>
      <trkpt lat="47.461473" lon="7.829886">
        <ele>386.597367</ele>
        <time>2021-11-18T20:20:42.727Z</time>
      </trkpt>
      <trkpt lat="47.460850" lon="7.828883">
        <ele>386.658541</ele>
        <time>2021-11-18T20:20:56.906Z</time>
      </trkpt>
      <trkpt lat="47.460628" lon="7.828763">
        <ele>386.800819</ele>
        <time>2021-11-18T20:21:00.784Z</time>
      </trkpt>
      <trkpt lat="47.460011" lon="7.828663">
        <ele>387.657208</ele>
        <time>2021-11-18T20:21:13.201Z</time>
      </trkpt>
      <trkpt lat="47.459940" lon="7.828652">
        <ele>387.755704</ele>
        <time>2021-11-18T20:21:14.566Z</time>
      </trkpt>
      <trkpt lat="47.459537" lon="7.828672">
        <ele>388.312048</ele>
        <time>2021-11-18T20:21:23.719Z</time>
      </trkpt>
      <trkpt lat="47.459456" lon="7.828693">
        <ele>388.425510</ele>
        <time>2021-11-18T20:21:25.849Z</time>
      </trkpt>
      <trkpt lat="47.458992" lon="7.829105">
        <ele>389.167864</ele>
        <time>2021-11-18T20:21:37.021Z</time>
      </trkpt>
      <trkpt lat="47.458779" lon="7.829408">
        <ele>389.497615</ele>
        <time>2021-11-18T20:21:43.220Z</time>
      </trkpt>
      <trkpt lat="47.458605" lon="7.829769">
        <ele>389.832077</ele>
        <time>2021-11-18T20:21:49.573Z</time>
      </trkpt>
      <trkpt lat="47.458483" lon="7.830002">
        <ele>390.054402</ele>
        <time>2021-11-18T20:21:53.707Z</time>
      </trkpt>
      <trkpt lat="47.458385" lon="7.829959">
        <ele>390.168461</ele>
        <time>2021-11-18T20:21:56.009Z</time>
      </trkpt>
      <trkpt lat="47.458230" lon="7.829919">
        <ele>390.344022</ele>
        <time>2021-11-18T20:21:58.949Z</time>
      </trkpt>
      <trkpt lat="47.457731" lon="7.829812">
        <ele>390.906625</ele>
        <time>2021-11-18T20:22:10.605Z</time>
      </trkpt>
      <trkpt lat="47.457427" lon="7.829810">
        <ele>391.208227</ele>
        <time>2021-11-18T20:22:17.648Z</time>
      </trkpt>
      <trkpt lat="47.456847" lon="7.829841">
        <ele>391.583523</ele>
        <time>2021-11-18T20:22:29.805Z</time>
      </trkpt>
      <trkpt lat="47.456508" lon="7.829890">
        <ele>391.803778</ele>
        <time>2021-11-18T20:22:36.668Z</time>
      </trkpt>
      <trkpt lat="47.456217" lon="7.829960">
        <ele>391.994423</ele>
        <time>2021-11-18T20:22:43.737Z</time>
      </trkpt>
      <trkpt lat="47.455686" lon="7.830084">
        <ele>392.388878</ele>
        <time>2021-11-18T20:22:56.615Z</time>
      </trkpt>
      <trkpt lat="47.455667" lon="7.830016">
        <ele>392.487806</ele>
        <time>2021-11-18T20:22:58.075Z</time>
      </trkpt>
      <trkpt lat="47.455644" lon="7.829891">
        <ele>392.661985</ele>
        <time>2021-11-18T20:23:00.680Z</time>
      </trkpt>
      <trkpt lat="47.455626" lon="7.829799">
        <ele>392.790758</ele>
        <time>2021-11-18T20:23:01.982Z</time>
      </trkpt>
      <trkpt lat="47.455584" lon="7.829685">
        <ele>392.965312</ele>
        <time>2021-11-18T20:23:04.068Z</time>
      </trkpt>
      <trkpt lat="47.455556" lon="7.829615">
        <ele>393.074666</ele>
        <time>2021-11-18T20:23:05.284Z</time>
      </trkpt>
      <trkpt lat="47.455471" lon="7.829717">
        <ele>393.292328</ele>
        <time>2021-11-18T20:23:08.395Z</time>
      </trkpt>
      <trkpt lat="47.455265" lon="7.829874">
        <ele>393.753151</ele>
        <time>2021-11-18T20:23:12.945Z</time>
      </trkpt>
      <trkpt lat="47.455185" lon="7.829882">
        <ele>393.912594</ele>
        <time>2021-11-18T20:23:15.064Z</time>
      </trkpt>
      <trkpt lat="47.455119" lon="7.829864">
        <ele>394.046048</ele>
        <time>2021-11-18T20:23:17.110Z</time>
      </trkpt>
      <trkpt lat="47.454803" lon="7.829577">
        <ele>394.783443</ele>
        <time>2021-11-18T20:23:26.129Z</time>
      </trkpt>
      <trkpt lat="47.454625" lon="7.829495">
        <ele>395.154170</ele>
        <time>2021-11-18T20:23:30.175Z</time>
      </trkpt>
      <trkpt lat="47.454472" lon="7.829506">
        <ele>395.458769</ele>
        <time>2021-11-18T20:23:34.297Z</time>
      </trkpt>
      <trkpt lat="47.454371" lon="7.829564">
        <ele>395.674217</ele>
        <time>2021-11-18T20:23:36.786Z</time>
      </trkpt>
      <trkpt lat="47.454287" lon="7.829611">
        <ele>395.852806</ele>
        <time>2021-11-18T20:23:38.579Z</time>
      </trkpt>
      <trkpt lat="47.453989" lon="7.829813">
        <ele>396.344018</ele>
        <time>2021-11-18T20:23:46.822Z</time>
      </trkpt>
      <trkpt lat="47.453757" lon="7.829984">
        <ele>396.723415</ele>
        <time>2021-11-18T20:23:53.129Z</time>
      </trkpt>
      <trkpt lat="47.453492" lon="7.830220">
        <ele>397.176172</ele>
        <time>2021-11-18T20:23:59.406Z</time>
      </trkpt>
      <trkpt lat="47.453398" lon="7.830308">
        <ele>397.339001</ele>
        <time>2021-11-18T20:24:01.982Z</time>
      </trkpt>
      <trkpt lat="47.453250" lon="7.830464">
        <ele>397.605008</ele>
        <time>2021-11-18T20:24:05.291Z</time>
      </trkpt>
      <trkpt lat="47.453197" lon="7.830530">
        <ele>397.706418</ele>
        <time>2021-11-18T20:24:06.597Z</time>
      </trkpt>
      <trkpt lat="47.452618" lon="7.831252">
        <ele>398.577197</ele>
        <time>2021-11-18T20:24:20.571Z</time>
      </trkpt>
      <trkpt lat="47.452373" lon="7.831505">
        <ele>398.651424</ele>
        <time>2021-11-18T20:24:25.279Z</time>
      </trkpt>
      <trkpt lat="47.452175" lon="7.831696">
        <ele>398.710147</ele>
        <time>2021-11-18T20:24:29.044Z</time>
      </trkpt>
      <trkpt lat="47.451989" lon="7.831857">
        <ele>398.763683</ele>
        <time>2021-11-18T20:24:32.007Z</time>
      </trkpt>
      <trkpt lat="47.451701" lon="7.832106">
        <ele>398.846552</ele>
        <time>2021-11-18T20:24:36.826Z</time>
      </trkpt>
      <trkpt lat="47.451426" lon="7.832356">
        <ele>398.926738</ele>
        <time>2021-11-18T20:24:41.571Z</time>
      </trkpt>
      <trkpt lat="47.451327" lon="7.832461">
        <ele>398.957001</ele>
        <time>2021-11-18T20:24:43.533Z</time>
      </trkpt>
      <trkpt lat="47.451121" lon="7.832696">
        <ele>399.115790</ele>
        <time>2021-11-18T20:24:47.352Z</time>
      </trkpt>
      <trkpt lat="47.450016" lon="7.834124">
        <ele>400.222736</ele>
        <time>2021-11-18T20:25:13.666Z</time>
      </trkpt>
      <trkpt lat="47.449811" lon="7.834354">
        <ele>400.536273</ele>
        <time>2021-11-18T20:25:19.011Z</time>
      </trkpt>
      <trkpt lat="47.449669" lon="7.834494">
        <ele>400.846539</ele>
        <time>2021-11-18T20:25:22.336Z</time>
      </trkpt>
      <trkpt lat="47.449505" lon="7.834629">
        <ele>401.187766</ele>
        <time>2021-11-18T20:25:26.451Z</time>
      </trkpt>
      <trkpt lat="47.449275" lon="7.834788">
        <ele>401.649333</ele>
        <time>2021-11-18T20:25:31.704Z</time>
      </trkpt>
      <trkpt lat="47.448956" lon="7.834983">
        <ele>402.276861</ele>
        <time>2021-11-18T20:25:39.255Z</time>
      </trkpt>
      <trkpt lat="47.448978" lon="7.835062">
        <ele>402.381895</ele>
        <time>2021-11-18T20:25:40.904Z</time>
      </trkpt>
      <trkpt lat="47.448622" lon="7.835311">
        <ele>403.097837</ele>
        <time>2021-11-18T20:25:52.241Z</time>
      </trkpt>
      <trkpt lat="47.447642" lon="7.836303">
        <ele>405.985276</ele>
        <time>2021-11-18T20:26:28.163Z</time>
      </trkpt>
      <trkpt lat="47.447146" lon="7.836805">
        <ele>407.558923</ele>
        <time>2021-11-18T20:26:46.857Z</time>
      </trkpt>
      <trkpt lat="47.446145" lon="7.837696">
        <ele>410.894416</ele>
        <time>2021-11-18T20:27:23.957Z</time>
      </trkpt>
      <trkpt lat="47.446064" lon="7.837840">
        <ele>411.265809</ele>
        <time>2021-11-18T20:27:28.069Z</time>
      </trkpt>
      <trkpt lat="47.445528" lon="7.838233">
        <ele>413.019966</ele>
        <time>2021-11-18T20:27:47.394Z</time>
      </trkpt>
      <trkpt lat="47.445072" lon="7.838787">
        <ele>414.688787</ele>
        <time>2021-11-18T20:28:06.319Z</time>
      </trkpt>
      <trkpt lat="47.444584" lon="7.839628">
        <ele>416.770011</ele>
        <time>2021-11-18T20:28:30.190Z</time>
      </trkpt>
      <trkpt lat="47.443079" lon="7.842585">
        <ele>422.951453</ele>
        <time>2021-11-18T20:29:45.441Z</time>
      </trkpt>
      <trkpt lat="47.442391" lon="7.843670">
        <ele>424.651641</ele>
        <time>2021-11-18T20:30:13.139Z</time>
      </trkpt>
      <trkpt lat="47.438127" lon="7.849642">
        <ele>432.003744</ele>
        <time>2021-11-18T20:32:40.818Z</time>
      </trkpt>
      <trkpt lat="47.437750" lon="7.850017">
        <ele>432.525923</ele>
        <time>2021-11-18T20:32:50.990Z</time>
      </trkpt>
      <trkpt lat="47.437310" lon="7.850269">
        <ele>433.101243</ele>
        <time>2021-11-18T20:33:01.931Z</time>
      </trkpt>
      <trkpt lat="47.436663" lon="7.850327">
        <ele>433.891550</ele>
        <time>2021-11-18T20:33:18.486Z</time>
      </trkpt>
      <trkpt lat="47.436538" lon="7.850283">
        <ele>434.048217</ele>
        <time>2021-11-18T20:33:21.377Z</time>
      </trkpt>
      <trkpt lat="47.436479" lon="7.850260">
        <ele>434.122612</ele>
        <time>2021-11-18T20:33:23.538Z</time>
      </trkpt>
      <trkpt lat="47.436050" lon="7.850036">
        <ele>434.792790</ele>
        <time>2021-11-18T20:33:35.485Z</time>
      </trkpt>
      <trkpt lat="47.435744" lon="7.849816">
        <ele>435.456958</ele>
        <time>2021-11-18T20:33:44.899Z</time>
      </trkpt>
      <trkpt lat="47.434500" lon="7.848920">
        <ele>438.119371</ele>
        <time>2021-11-18T20:34:25.206Z</time>
      </trkpt>
      <trkpt lat="47.433795" lon="7.848524">
        <ele>439.240597</ele>
        <time>2021-11-18T20:34:43.955Z</time>
      </trkpt>
      <trkpt lat="47.433528" lon="7.848396">
        <ele>439.657895</ele>
        <time>2021-11-18T20:34:51.137Z</time>
      </trkpt>
      <trkpt lat="47.433365" lon="7.848309">
        <ele>439.915537</ele>
        <time>2021-11-18T20:34:55.274Z</time>
      </trkpt>
      <trkpt lat="47.432515" lon="7.847914">
        <ele>441.454932</ele>
        <time>2021-11-18T20:35:19.556Z</time>
      </trkpt>
      <trkpt lat="47.432368" lon="7.847858">
        <ele>441.765613</ele>
        <time>2021-11-18T20:35:23.405Z</time>
      </trkpt>
      <trkpt lat="47.431726" lon="7.847615">
        <ele>443.121925</ele>
        <time>2021-11-18T20:35:42.011Z</time>
      </trkpt>
      <trkpt lat="47.431292" lon="7.847484">
        <ele>444.028482</ele>
        <time>2021-11-18T20:35:54.901Z</time>
      </trkpt>
      <trkpt lat="47.430641" lon="7.847433">
        <ele>445.534362</ele>
        <time>2021-11-18T20:36:15.450Z</time>
      </trkpt>
      <trkpt lat="47.430098" lon="7.847528">
        <ele>446.843341</ele>
        <time>2021-11-18T20:36:32.245Z</time>
      </trkpt>
      <trkpt lat="47.429436" lon="7.847758">
        <ele>448.471310</ele>
        <time>2021-11-18T20:36:51.834Z</time>
      </trkpt>
      <trkpt lat="47.429321" lon="7.847805">
        <ele>448.732919</ele>
        <time>2021-11-18T20:36:55.417Z</time>
      </trkpt>
      <trkpt lat="47.428781" lon="7.847991">
        <ele>449.741300</ele>
        <time>2021-11-18T20:37:10.533Z</time>
      </trkpt>
      <trkpt lat="47.428268" lon="7.848175">
        <ele>450.701340</ele>
        <time>2021-11-18T20:37:25.111Z</time>
      </trkpt>
      <trkpt lat="47.427648" lon="7.848283">
        <ele>451.836706</ele>
        <time>2021-11-18T20:37:41.928Z</time>
      </trkpt>
      <trkpt lat="47.425165" lon="7.848031">
        <ele>456.127552</ele>
        <time>2021-11-18T20:38:49.887Z</time>
      </trkpt>
      <trkpt lat="47.425093" lon="7.848037">
        <ele>456.239443</ele>
        <time>2021-11-18T20:38:52.076Z</time>
      </trkpt>
      <trkpt lat="47.425016" lon="7.848030">
        <ele>456.359141</ele>
        <time>2021-11-18T20:38:54.066Z</time>
      </trkpt>
      <trkpt lat="47.424743" lon="7.847935">
        <ele>456.794305</ele>
        <time>2021-11-18T20:39:01.134Z</time>
      </trkpt>
      <trkpt lat="47.423887" lon="7.847874">
        <ele>458.183619</ele>
        <time>2021-11-18T20:39:23.280Z</time>
      </trkpt>
      <trkpt lat="47.423788" lon="7.847858">
        <ele>458.384512</ele>
        <time>2021-11-18T20:39:25.659Z</time>
      </trkpt>
      <trkpt lat="47.423488" lon="7.847784">
        <ele>458.998039</ele>
        <time>2021-11-18T20:39:33.760Z</time>
      </trkpt>
      <trkpt lat="47.423401" lon="7.847760">
        <ele>459.176565</ele>
        <time>2021-11-18T20:39:35.986Z</time>
      </trkpt>
      <trkpt lat="47.423326" lon="7.847739">
        <ele>459.330546</ele>
        <time>2021-11-18T20:39:38.011Z</time>
      </trkpt>
      <trkpt lat="47.423175" lon="7.847645">
        <ele>459.661056</ele>
        <time>2021-11-18T20:39:42.326Z</time>
      </trkpt>
      <trkpt lat="47.423160" lon="7.847639">
        <ele>459.692403</ele>
        <time>2021-11-18T20:39:42.754Z</time>
      </trkpt>
      <trkpt lat="47.422830" lon="7.847504">
        <ele>460.383104</ele>
        <time>2021-11-18T20:39:52.526Z</time>
      </trkpt>
      <trkpt lat="47.422224" lon="7.847204">
        <ele>461.729495</ele>
        <time>2021-11-18T20:40:12.425Z</time>
      </trkpt>
      <trkpt lat="47.421782" lon="7.847034">
        <ele>463.094898</ele>
        <time>2021-11-18T20:40:27.185Z</time>
      </trkpt>
      <trkpt lat="47.421469" lon="7.846914">
        <ele>464.061606</ele>
        <time>2021-11-18T20:40:37.863Z</time>
      </trkpt>
      <trkpt lat="47.421216" lon="7.846840">
        <ele>464.832639</ele>
        <time>2021-11-18T20:40:46.112Z</time>
      </trkpt>
      <trkpt lat="47.420292" lon="7.846569">
        <ele>467.762141</ele>
        <time>2021-11-18T20:41:16.162Z</time>
      </trkpt>
      <trkpt lat="47.419677" lon="7.846349">
        <ele>469.952185</ele>
        <time>2021-11-18T20:41:37.644Z</time>
      </trkpt>
      <trkpt lat="47.418787" lon="7.845930">
        <ele>473.179675</ele>
        <time>2021-11-18T20:42:10.608Z</time>
      </trkpt>
      <trkpt lat="47.418505" lon="7.845770">
        <ele>474.030514</ele>
        <time>2021-11-18T20:42:21.396Z</time>
      </trkpt>
      <trkpt lat="47.417834" lon="7.845378">
        <ele>476.062842</ele>
        <time>2021-11-18T20:42:45.431Z</time>
      </trkpt>
      <trkpt lat="47.417634" lon="7.845250">
        <ele>476.676741</ele>
        <time>2021-11-18T20:42:52.825Z</time>
      </trkpt>
      <trkpt lat="47.417039" lon="7.844872">
        <ele>478.234223</ele>
        <time>2021-11-18T20:43:10.828Z</time>
      </trkpt>
      <trkpt lat="47.416215" lon="7.844386">
        <ele>478.340986</ele>
        <time>2021-11-18T20:43:29.188Z</time>
      </trkpt>
      <trkpt lat="47.415184" lon="7.843954">
        <ele>478.685362</ele>
        <time>2021-11-18T20:43:48.600Z</time>
      </trkpt>
      <trkpt lat="47.415123" lon="7.843938">
        <ele>478.744321</ele>
        <time>2021-11-18T20:43:49.690Z</time>
      </trkpt>
      <trkpt lat="47.414737" lon="7.843840">
        <ele>479.117042</ele>
        <time>2021-11-18T20:43:58.116Z</time>
      </trkpt>
      <trkpt lat="47.414534" lon="7.843769">
        <ele>479.315565</ele>
        <time>2021-11-18T20:44:03.041Z</time>
      </trkpt>
      <trkpt lat="47.414131" lon="7.843761">
        <ele>479.699116</ele>
        <time>2021-11-18T20:44:13.791Z</time>
      </trkpt>
      <trkpt lat="47.413673" lon="7.843752">
        <ele>480.135013</ele>
        <time>2021-11-18T20:44:26.648Z</time>
      </trkpt>
      <trkpt lat="47.412891" lon="7.843894">
        <ele>482.176897</ele>
        <time>2021-11-18T20:44:51.039Z</time>
      </trkpt>
      <trkpt lat="47.412769" lon="7.843850">
        <ele>482.506683</ele>
        <time>2021-11-18T20:44:55.329Z</time>
      </trkpt>
      <trkpt lat="47.411785" lon="7.844178">
        <ele>485.265107</ele>
        <time>2021-11-18T20:45:20.947Z</time>
      </trkpt>
      <trkpt lat="47.411264" lon="7.844343">
        <ele>487.207660</ele>
        <time>2021-11-18T20:45:34.172Z</time>
      </trkpt>
      <trkpt lat="47.411235" lon="7.844348">
        <ele>487.314103</ele>
        <time>2021-11-18T20:45:34.665Z</time>
      </trkpt>
      <trkpt lat="47.411166" lon="7.844371">
        <ele>487.571979</ele>
        <time>2021-11-18T20:45:36.298Z</time>
      </trkpt>
      <trkpt lat="47.410433" lon="7.844607">
        <ele>490.306989</ele>
        <time>2021-11-18T20:45:58.910Z</time>
      </trkpt>
      <trkpt lat="47.410293" lon="7.844651">
        <ele>490.828807</ele>
        <time>2021-11-18T20:46:03.829Z</time>
      </trkpt>
      <trkpt lat="47.410148" lon="7.844709">
        <ele>491.376462</ele>
        <time>2021-11-18T20:46:08.789Z</time>
      </trkpt>
      <trkpt lat="47.409986" lon="7.844760">
        <ele>492.379767</ele>
        <time>2021-11-18T20:46:14.654Z</time>
      </trkpt>
      <trkpt lat="47.409830" lon="7.844820">
        <ele>493.394933</ele>
        <time>2021-11-18T20:46:21.155Z</time>
      </trkpt>
      <trkpt lat="47.409752" lon="7.844850">
        <ele>493.902516</ele>
        <time>2021-11-18T20:46:24.355Z</time>
      </trkpt>
      <trkpt lat="47.409665" lon="7.844882">
        <ele>494.467130</ele>
        <time>2021-11-18T20:46:28.512Z</time>
      </trkpt>
      <trkpt lat="47.409459" lon="7.844940">
        <ele>495.787784</ele>
        <time>2021-11-18T20:46:37.774Z</time>
      </trkpt>
      <trkpt lat="47.409210" lon="7.844968">
        <ele>497.360431</ele>
        <time>2021-11-18T20:46:48.504Z</time>
      </trkpt>
      <trkpt lat="47.409142" lon="7.844968">
        <ele>497.788670</ele>
        <time>2021-11-18T20:46:52.040Z</time>
      </trkpt>
      <trkpt lat="47.408437" lon="7.844931">
        <ele>502.231307</ele>
        <time>2021-11-18T20:47:20.681Z</time>
      </trkpt>
      <trkpt lat="47.408170" lon="7.844961">
        <ele>503.400400</ele>
        <time>2021-11-18T20:47:30.935Z</time>
      </trkpt>
      <trkpt lat="47.407704" lon="7.845059">
        <ele>505.042063</ele>
        <time>2021-11-18T20:47:48.644Z</time>
      </trkpt>
      <trkpt lat="47.406668" lon="7.845324">
        <ele>508.709099</ele>
        <time>2021-11-18T20:48:14.923Z</time>
      </trkpt>
      <trkpt lat="47.406444" lon="7.845434">
        <ele>509.118887</ele>
        <time>2021-11-18T20:48:18.760Z</time>
      </trkpt>
      <trkpt lat="47.406156" lon="7.845724">
        <ele>509.330789</ele>
        <time>2021-11-18T20:48:24.339Z</time>
      </trkpt>
      <trkpt lat="47.405939" lon="7.846047">
        <ele>509.518067</ele>
        <time>2021-11-18T20:48:29.299Z</time>
      </trkpt>
      <trkpt lat="47.405700" lon="7.846541">
        <ele>509.767944</ele>
        <time>2021-11-18T20:48:36.200Z</time>
      </trkpt>
      <trkpt lat="47.404908" lon="7.848505">
        <ele>510.878042</ele>
        <time>2021-11-18T20:49:01.489Z</time>
      </trkpt>
      <trkpt lat="47.404852" lon="7.848646">
        <ele>510.964838</ele>
        <time>2021-11-18T20:49:03.815Z</time>
      </trkpt>
      <trkpt lat="47.404726" lon="7.848932">
        <ele>511.146013</ele>
        <time>2021-11-18T20:49:06.789Z</time>
      </trkpt>
      <trkpt lat="47.404599" lon="7.849165">
        <ele>511.304843</ele>
        <time>2021-11-18T20:49:10.568Z</time>
      </trkpt>
      <trkpt lat="47.404383" lon="7.849389">
        <ele>511.511850</ele>
        <time>2021-11-18T20:49:15.573Z</time>
      </trkpt>
      <trkpt lat="47.403486" lon="7.850249">
        <ele>516.692874</ele>
        <time>2021-11-18T20:49:44.728Z</time>
      </trkpt>
      <trkpt lat="47.402868" lon="7.850841">
        <ele>520.350467</ele>
        <time>2021-11-18T20:50:16.481Z</time>
      </trkpt>
      <trkpt lat="47.401845" lon="7.851841">
        <ele>531.747751</ele>
        <time>2021-11-18T20:51:25.631Z</time>
      </trkpt>
      <trkpt lat="47.401481" lon="7.852058">
        <ele>535.428238</ele>
        <time>2021-11-18T20:51:47.400Z</time>
      </trkpt>
      <trkpt lat="47.400993" lon="7.852181">
        <ele>538.674816</ele>
        <time>2021-11-18T20:52:11.172Z</time>
      </trkpt>
      <trkpt lat="47.400748" lon="7.852175">
        <ele>539.800992</ele>
        <time>2021-11-18T20:52:21.057Z</time>
      </trkpt>
      <trkpt lat="47.399819" lon="7.851860">
        <ele>544.181691</ele>
        <time>2021-11-18T20:52:51.471Z</time>
      </trkpt>
      <trkpt lat="47.399740" lon="7.851900">
        <ele>544.565507</ele>
        <time>2021-11-18T20:52:52.733Z</time>
      </trkpt>
      <trkpt lat="47.397752" lon="7.852894">
        <ele>546.657882</ele>
        <time>2021-11-18T20:53:26.696Z</time>
      </trkpt>
      <trkpt lat="47.397584" lon="7.852978">
        <ele>546.795774</ele>
        <time>2021-11-18T20:53:29.208Z</time>
      </trkpt>
      <trkpt lat="47.397466" lon="7.853058">
        <ele>546.896714</ele>
        <time>2021-11-18T20:53:31.880Z</time>
      </trkpt>
      <trkpt lat="47.397399" lon="7.853113">
        <ele>546.956306</ele>
        <time>2021-11-18T20:53:33.021Z</time>
      </trkpt>
      <trkpt lat="47.397240" lon="7.853282">
        <ele>547.108593</ele>
        <time>2021-11-18T20:53:36.220Z</time>
      </trkpt>
      <trkpt lat="47.397171" lon="7.853390">
        <ele>547.186749</ele>
        <time>2021-11-18T20:53:38.464Z</time>
      </trkpt>
      <trkpt lat="47.397100" lon="7.853327">
        <ele>547.251141</ele>
        <time>2021-11-18T20:53:39.964Z</time>
      </trkpt>
      <trkpt lat="47.397017" lon="7.853300">
        <ele>547.317217</ele>
        <time>2021-11-18T20:53:42.092Z</time>
      </trkpt>
      <trkpt lat="47.396618" lon="7.853483">
        <ele>547.642031</ele>
        <time>2021-11-18T20:53:51.580Z</time>
      </trkpt>
      <trkpt lat="47.395681" lon="7.854098">
        <ele>549.260647</ele>
        <time>2021-11-18T20:54:17.920Z</time>
      </trkpt>
      <trkpt lat="47.395599" lon="7.854137">
        <ele>549.452300</ele>
        <time>2021-11-18T20:54:21.211Z</time>
      </trkpt>
      <trkpt lat="47.395568" lon="7.854054">
        <ele>549.595065</ele>
        <time>2021-11-18T20:54:22.480Z</time>
      </trkpt>
      <trkpt lat="47.395509" lon="7.853930">
        <ele>549.823328</ele>
        <time>2021-11-18T20:54:24.652Z</time>
      </trkpt>
      <trkpt lat="47.395464" lon="7.853851">
        <ele>549.978822</ele>
        <time>2021-11-18T20:54:26.455Z</time>
      </trkpt>
      <trkpt lat="47.395275" lon="7.853638">
        <ele>550.507697</ele>
        <time>2021-11-18T20:54:33.863Z</time>
      </trkpt>
      <trkpt lat="47.395202" lon="7.853591">
        <ele>550.684861</ele>
        <time>2021-11-18T20:54:35.825Z</time>
      </trkpt>
      <trkpt lat="47.395123" lon="7.853546">
        <ele>550.873232</ele>
        <time>2021-11-18T20:54:38.732Z</time>
      </trkpt>
      <trkpt lat="47.395089" lon="7.853542">
        <ele>550.949114</ele>
        <time>2021-11-18T20:54:40.605Z</time>
      </trkpt>
      <trkpt lat="47.394696" lon="7.853664">
        <ele>551.842549</ele>
        <time>2021-11-18T20:54:52.992Z</time>
      </trkpt>
      <trkpt lat="47.394105" lon="7.853679">
        <ele>554.866869</ele>
        <time>2021-11-18T20:55:12.978Z</time>
      </trkpt>
      <trkpt lat="47.393826" lon="7.853658">
        <ele>556.405712</ele>
        <time>2021-11-18T20:55:23.137Z</time>
      </trkpt>
      <trkpt lat="47.393781" lon="7.853664">
        <ele>556.654599</ele>
        <time>2021-11-18T20:55:25.593Z</time>
      </trkpt>
      <trkpt lat="47.393675" lon="7.853681">
        <ele>557.241923</ele>
        <time>2021-11-18T20:55:31.485Z</time>
      </trkpt>
      <trkpt lat="47.393398" lon="7.853765">
        <ele>558.799575</ele>
        <time>2021-11-18T20:55:43.865Z</time>
      </trkpt>
      <trkpt lat="47.393275" lon="7.853890">
        <ele>559.621966</ele>
        <time>2021-11-18T20:55:50.775Z</time>
      </trkpt>
      <trkpt lat="47.393189" lon="7.854045">
        <ele>560.369290</ele>
        <time>2021-11-18T20:55:56.003Z</time>
      </trkpt>
      <trkpt lat="47.393127" lon="7.854024">
        <ele>560.719675</ele>
        <time>2021-11-18T20:55:59.695Z</time>
      </trkpt>
      <trkpt lat="47.392826" lon="7.854008">
        <ele>562.782797</ele>
        <time>2021-11-18T20:56:13.719Z</time>
      </trkpt>
      <trkpt lat="47.392606" lon="7.853710">
        <ele>565.835588</ele>
        <time>2021-11-18T20:56:29.795Z</time>
      </trkpt>
      <trkpt lat="47.392531" lon="7.853545">
        <ele>567.211614</ele>
        <time>2021-11-18T20:56:38.306Z</time>
      </trkpt>
      <trkpt lat="47.392434" lon="7.853433">
        <ele>568.470777</ele>
        <time>2021-11-18T20:56:46.241Z</time>
      </trkpt>
      <trkpt lat="47.391783" lon="7.852784">
        <ele>576.503241</ele>
        <time>2021-11-18T20:57:34.042Z</time>
      </trkpt>
      <trkpt lat="47.391640" lon="7.852608">
        <ele>578.406890</ele>
        <time>2021-11-18T20:57:48.326Z</time>
      </trkpt>
      <trkpt lat="47.391595" lon="7.852537">
        <ele>579.080292</ele>
        <time>2021-11-18T20:57:53.704Z</time>
      </trkpt>
      <trkpt lat="47.391460" lon="7.852289">
        <ele>581.400172</ele>
        <time>2021-11-18T20:58:08.782Z</time>
      </trkpt>
      <trkpt lat="47.391391" lon="7.852032">
        <ele>583.541786</ele>
        <time>2021-11-18T20:58:22.873Z</time>
      </trkpt>
      <trkpt lat="47.391307" lon="7.851550">
        <ele>587.397189</ele>
        <time>2021-11-18T20:58:45.444Z</time>
      </trkpt>
      <trkpt lat="47.391509" lon="7.850967">
        <ele>592.470335</ele>
        <time>2021-11-18T20:59:14.080Z</time>
      </trkpt>
      <trkpt lat="47.391560" lon="7.850863">
        <ele>593.465086</ele>
        <time>2021-11-18T20:59:21.779Z</time>
      </trkpt>
      <trkpt lat="47.391799" lon="7.850323">
        <ele>598.462625</ele>
        <time>2021-11-18T20:59:49.838Z</time>
      </trkpt>
      <trkpt lat="47.391917" lon="7.850119">
        <ele>600.541099</ele>
        <time>2021-11-18T20:59:59.962Z</time>
      </trkpt>
      <trkpt lat="47.392167" lon="7.849685">
        <ele>603.995320</ele>
        <time>2021-11-18T21:00:22.197Z</time>
      </trkpt>
      <trkpt lat="47.392479" lon="7.849322">
        <ele>607.468472</ele>
        <time>2021-11-18T21:00:46.197Z</time>
      </trkpt>
      <trkpt lat="47.392869" lon="7.849215">
        <ele>610.937370</ele>
        <time>2021-11-18T21:01:05.715Z</time>
      </trkpt>
      <trkpt lat="47.393682" lon="7.849411">
        <ele>618.489618</ele>
        <time>2021-11-18T21:01:47.597Z</time>
      </trkpt>
      <trkpt lat="47.393741" lon="7.849387">
        <ele>619.146747</ele>
        <time>2021-11-18T21:01:50.811Z</time>
      </trkpt>
      <trkpt lat="47.393822" lon="7.849356">
        <ele>620.045250</ele>
        <time>2021-11-18T21:01:57.813Z</time>
      </trkpt>
      <trkpt lat="47.394272" lon="7.848809">
        <ele>626.303049</ele>
        <time>2021-11-18T21:02:30.154Z</time>
      </trkpt>
      <trkpt lat="47.394558" lon="7.848667">
        <ele>629.542970</ele>
        <time>2021-11-18T21:02:49.102Z</time>
      </trkpt>
      <trkpt lat="47.394706" lon="7.848628">
        <ele>631.157294</ele>
        <time>2021-11-18T21:03:00.514Z</time>
      </trkpt>
      <trkpt lat="47.394829" lon="7.848557">
        <ele>632.575334</ele>
        <time>2021-11-18T21:03:10.680Z</time>
      </trkpt>
      <trkpt lat="47.395004" lon="7.848355">
        <ele>634.960143</ele>
        <time>2021-11-18T21:03:26.779Z</time>
      </trkpt>
      <trkpt lat="47.395189" lon="7.848023">
        <ele>639.084843</ele>
        <time>2021-11-18T21:03:49.027Z</time>
      </trkpt>
      <trkpt lat="47.395320" lon="7.847661">
        <ele>643.448694</ele>
        <time>2021-11-18T21:04:09.218Z</time>
      </trkpt>
      <trkpt lat="47.395408" lon="7.847208">
        <ele>648.458950</ele>
        <time>2021-11-18T21:04:33.440Z</time>
      </trkpt>
      <trkpt lat="47.395451" lon="7.846896">
        <ele>651.843889</ele>
        <time>2021-11-18T21:04:54.684Z</time>
      </trkpt>
      <trkpt lat="47.395642" lon="7.845887">
        <ele>662.982120</ele>
        <time>2021-11-18T21:05:57.417Z</time>
      </trkpt>
      <trkpt lat="47.395719" lon="7.845127">
        <ele>671.095032</ele>
        <time>2021-11-18T21:06:40.574Z</time>
      </trkpt>
      <trkpt lat="47.395721" lon="7.844953">
        <ele>672.930074</ele>
        <time>2021-11-18T21:06:53.784Z</time>
      </trkpt>
      <trkpt lat="47.395717" lon="7.844793">
        <ele>674.618376</ele>
        <time>2021-11-18T21:07:04.886Z</time>
      </trkpt>
      <trkpt lat="47.395691" lon="7.844570">
        <ele>677.004468</ele>
        <time>2021-11-18T21:07:14.424Z</time>
      </trkpt>
      <trkpt lat="47.395650" lon="7.844362">
        <ele>679.288862</ele>
        <time>2021-11-18T21:07:30.622Z</time>
      </trkpt>
      <trkpt lat="47.395621" lon="7.844300">
        <ele>680.083524</ele>
        <time>2021-11-18T21:07:34.515Z</time>
      </trkpt>
      <trkpt lat="47.395580" lon="7.844173">
        <ele>681.567200</ele>
        <time>2021-11-18T21:07:39.901Z</time>
      </trkpt>
      <trkpt lat="47.395528" lon="7.844012">
        <ele>683.448242</ele>
        <time>2021-11-18T21:07:49.090Z</time>
      </trkpt>
      <trkpt lat="47.395492" lon="7.843901">
        <ele>684.746111</ele>
        <time>2021-11-18T21:07:58.388Z</time>
      </trkpt>
      <trkpt lat="47.395366" lon="7.843284">
        <ele>691.541834</ele>
        <time>2021-11-18T21:08:30.757Z</time>
      </trkpt>
      <trkpt lat="47.395316" lon="7.842556">
        <ele>696.221294</ele>
        <time>2021-11-18T21:09:03.655Z</time>
      </trkpt>
      <trkpt lat="47.395400" lon="7.841921">
        <ele>700.112190</ele>
        <time>2021-11-18T21:09:30.017Z</time>
      </trkpt>
      <trkpt lat="47.395488" lon="7.841652">
        <ele>701.908854</ele>
        <time>2021-11-18T21:09:42.724Z</time>
      </trkpt>
      <trkpt lat="47.396029" lon="7.840179">
        <ele>709.585189</ele>
        <time>2021-11-18T21:10:29.902Z</time>
      </trkpt>
      <trkpt lat="47.396102" lon="7.839984">
        <ele>710.082116</ele>
        <time>2021-11-18T21:10:34.967Z</time>
      </trkpt>
      <trkpt lat="47.396133" lon="7.839911">
        <ele>710.274291</ele>
        <time>2021-11-18T21:10:37.203Z</time>
      </trkpt>
      <trkpt lat="47.396203" lon="7.839767">
        <ele>710.669639</ele>
        <time>2021-11-18T21:10:41.160Z</time>
      </trkpt>
      <trkpt lat="47.396241" lon="7.839701">
        <ele>710.862860</ele>
        <time>2021-11-18T21:10:43.375Z</time>
      </trkpt>
      <trkpt lat="47.396349" lon="7.839501">
        <ele>711.433394</ele>
        <time>2021-11-18T21:10:48.594Z</time>
      </trkpt>
      <trkpt lat="47.397143" lon="7.838280">
        <ele>714.160369</ele>
        <time>2021-11-18T21:11:22.053Z</time>
      </trkpt>
      <trkpt lat="47.398216" lon="7.835378">
        <ele>713.266990</ele>
        <time>2021-11-18T21:12:03.962Z</time>
      </trkpt>
      <trkpt lat="47.398385" lon="7.835032">
        <ele>712.830610</ele>
        <time>2021-11-18T21:12:08.667Z</time>
      </trkpt>
      <trkpt lat="47.398404" lon="7.835002">
        <ele>712.788592</ele>
        <time>2021-11-18T21:12:09.158Z</time>
      </trkpt>
      <trkpt lat="47.398507" lon="7.834895">
        <ele>712.598341</ele>
        <time>2021-11-18T21:12:11.266Z</time>
      </trkpt>
      <trkpt lat="47.398598" lon="7.834858">
        <ele>712.455734</ele>
        <time>2021-11-18T21:12:12.669Z</time>
      </trkpt>
      <trkpt lat="47.399986" lon="7.834561">
        <ele>707.452712</ele>
        <time>2021-11-18T21:12:33.552Z</time>
      </trkpt>
      <trkpt lat="47.400046" lon="7.834530">
        <ele>707.157114</ele>
        <time>2021-11-18T21:12:34.421Z</time>
      </trkpt>
      <trkpt lat="47.400079" lon="7.834478">
        <ele>706.932739</ele>
        <time>2021-11-18T21:12:35.168Z</time>
      </trkpt>
      <trkpt lat="47.400118" lon="7.834167">
        <ele>705.937122</ele>
        <time>2021-11-18T21:12:38.173Z</time>
      </trkpt>
      <trkpt lat="47.400113" lon="7.834143">
        <ele>705.858078</ele>
        <time>2021-11-18T21:12:38.403Z</time>
      </trkpt>
      <trkpt lat="47.400076" lon="7.833981">
        <ele>705.319891</ele>
        <time>2021-11-18T21:12:40.047Z</time>
      </trkpt>
      <trkpt lat="47.398935" lon="7.830846">
        <ele>685.383101</ele>
        <time>2021-11-18T21:13:09.926Z</time>
      </trkpt>
      <trkpt lat="47.398914" lon="7.830838">
        <ele>685.170758</ele>
        <time>2021-11-18T21:13:10.179Z</time>
      </trkpt>
      <trkpt lat="47.398920" lon="7.830784">
        <ele>684.808076</ele>
        <time>2021-11-18T21:13:13.122Z</time>
      </trkpt>
      <trkpt lat="47.398885" lon="7.830409">
        <ele>682.299199</ele>
        <time>2021-11-18T21:13:36.599Z</time>
      </trkpt>
      <trkpt lat="47.398845" lon="7.829974">
        <ele>679.389695</ele>
        <time>2021-11-18T21:14:01.919Z</time>
      </trkpt>
      <trkpt lat="47.398906" lon="7.829522">
        <ele>676.335043</ele>
        <time>2021-11-18T21:14:29.573Z</time>
      </trkpt>
      <trkpt lat="47.398921" lon="7.829472">
        <ele>675.972574</ele>
        <time>2021-11-18T21:14:32.504Z</time>
      </trkpt>
      <trkpt lat="47.399027" lon="7.829110">
        <ele>673.358506</ele>
        <time>2021-11-18T21:14:56.195Z</time>
      </trkpt>
      <trkpt lat="47.399041" lon="7.828986">
        <ele>672.525328</ele>
        <time>2021-11-18T21:15:03.595Z</time>
      </trkpt>
      <trkpt lat="47.399066" lon="7.828878">
        <ele>671.768847</ele>
        <time>2021-11-18T21:15:04.589Z</time>
      </trkpt>
      <trkpt lat="47.399059" lon="7.828318">
        <ele>669.284850</ele>
        <time>2021-11-18T21:15:09.257Z</time>
      </trkpt>
      <trkpt lat="47.399021" lon="7.828050">
        <ele>668.891004</ele>
        <time>2021-11-18T21:15:12.255Z</time>
      </trkpt>
      <trkpt lat="47.398959" lon="7.827999">
        <ele>668.740211</ele>
        <time>2021-11-18T21:15:13.116Z</time>
      </trkpt>
      <trkpt lat="47.398918" lon="7.827978">
        <ele>668.648000</ele>
        <time>2021-11-18T21:15:13.644Z</time>
      </trkpt>
      <trkpt lat="47.398064" lon="7.827549">
        <ele>666.731246</ele>
        <time>2021-11-18T21:15:29.571Z</time>
      </trkpt>
      <trkpt lat="47.397884" lon="7.827503">
        <ele>666.343073</ele>
        <time>2021-11-18T21:15:32.874Z</time>
      </trkpt>
      <trkpt lat="47.397238" lon="7.827401">
        <ele>667.171421</ele>
        <time>2021-11-18T21:15:52.195Z</time>
      </trkpt>
      <trkpt lat="47.397050" lon="7.827229">
        <ele>667.936175</ele>
        <time>2021-11-18T21:15:59.976Z</time>
      </trkpt>
      <trkpt lat="47.396828" lon="7.826473">
        <ele>669.865329</ele>
        <time>2021-11-18T21:16:19.806Z</time>
      </trkpt>
      <trkpt lat="47.396478" lon="7.825710">
        <ele>672.023018</ele>
        <time>2021-11-18T21:16:44.518Z</time>
      </trkpt>
      <trkpt lat="47.395402" lon="7.824071">
        <ele>677.679262</ele>
        <time>2021-11-18T21:17:38.154Z</time>
      </trkpt>
      <trkpt lat="47.395259" lon="7.823953">
        <ele>678.278713</ele>
        <time>2021-11-18T21:17:43.789Z</time>
      </trkpt>
      <trkpt lat="47.394014" lon="7.823879">
        <ele>680.791105</ele>
        <time>2021-11-18T21:18:24.060Z</time>
      </trkpt>
      <trkpt lat="47.393945" lon="7.823263">
        <ele>681.589645</ele>
        <time>2021-11-18T21:18:34.251Z</time>
      </trkpt>
      <trkpt lat="47.393742" lon="7.822702">
        <ele>681.022117</ele>
        <time>2021-11-18T21:18:42.339Z</time>
      </trkpt>
      <trkpt lat="47.393714" lon="7.822603">
        <ele>680.684409</ele>
        <time>2021-11-18T21:18:45.234Z</time>
      </trkpt>
      <trkpt lat="47.393708" lon="7.822494">
        <ele>680.340196</ele>
        <time>2021-11-18T21:18:46.131Z</time>
      </trkpt>
      <trkpt lat="47.393730" lon="7.822240">
        <ele>679.534206</ele>
        <time>2021-11-18T21:18:48.906Z</time>
      </trkpt>
      <trkpt lat="47.393914" lon="7.821827">
        <ele>677.978020</ele>
        <time>2021-11-18T21:18:53.641Z</time>
      </trkpt>
      <trkpt lat="47.393867" lon="7.820917">
        <ele>675.105453</ele>
        <time>2021-11-18T21:19:01.769Z</time>
      </trkpt>
      <trkpt lat="47.393779" lon="7.820343">
        <ele>672.826957</ele>
        <time>2021-11-18T21:19:06.785Z</time>
      </trkpt>
      <trkpt lat="47.393503" lon="7.819621">
        <ele>667.353475</ele>
        <time>2021-11-18T21:19:13.600Z</time>
      </trkpt>
      <trkpt lat="47.392787" lon="7.818334">
        <ele>656.356789</ele>
        <time>2021-11-18T21:19:27.364Z</time>
      </trkpt>
      <trkpt lat="47.392690" lon="7.818200">
        <ele>654.823080</ele>
        <time>2021-11-18T21:19:28.940Z</time>
      </trkpt>
      <trkpt lat="47.392659" lon="7.818175">
        <ele>654.399675</ele>
        <time>2021-11-18T21:19:29.368Z</time>
      </trkpt>
      <trkpt lat="47.392629" lon="7.818162">
        <ele>654.024879</ele>
        <time>2021-11-18T21:19:29.758Z</time>
      </trkpt>
      <trkpt lat="47.392590" lon="7.818159">
        <ele>653.556712</ele>
        <time>2021-11-18T21:19:30.402Z</time>
      </trkpt>
      <trkpt lat="47.392460" lon="7.818257">
        <ele>651.807057</ele>
        <time>2021-11-18T21:19:32.319Z</time>
      </trkpt>
      <trkpt lat="47.392423" lon="7.818649">
        <ele>648.594978</ele>
        <time>2021-11-18T21:19:35.491Z</time>
      </trkpt>
      <trkpt lat="47.392298" lon="7.818874">
        <ele>646.232815</ele>
        <time>2021-11-18T21:19:37.774Z</time>
      </trkpt>
      <trkpt lat="47.391809" lon="7.819450">
        <ele>638.735033</ele>
        <time>2021-11-18T21:19:45.335Z</time>
      </trkpt>
      <trkpt lat="47.391498" lon="7.819654">
        <ele>634.655685</ele>
        <time>2021-11-18T21:19:49.345Z</time>
      </trkpt>
      <trkpt lat="47.391460" lon="7.819671">
        <ele>634.087021</ele>
        <time>2021-11-18T21:19:49.827Z</time>
      </trkpt>
      <trkpt lat="47.391427" lon="7.819670">
        <ele>633.589541</ele>
        <time>2021-11-18T21:19:50.216Z</time>
      </trkpt>
      <trkpt lat="47.390992" lon="7.819409">
        <ele>626.512990</ele>
        <time>2021-11-18T21:19:55.801Z</time>
      </trkpt>
      <trkpt lat="47.390457" lon="7.819279">
        <ele>618.341097</ele>
        <time>2021-11-18T21:20:02.160Z</time>
      </trkpt>
      <trkpt lat="47.389637" lon="7.818812">
        <ele>605.260826</ele>
        <time>2021-11-18T21:20:12.300Z</time>
      </trkpt>
      <trkpt lat="47.388385" lon="7.818625">
        <ele>587.639071</ele>
        <time>2021-11-18T21:20:27.065Z</time>
      </trkpt>
      <trkpt lat="47.388042" lon="7.818733">
        <ele>582.727955</ele>
        <time>2021-11-18T21:20:31.256Z</time>
      </trkpt>
      <trkpt lat="47.387844" lon="7.818926">
        <ele>580.821452</ele>
        <time>2021-11-18T21:20:34.097Z</time>
      </trkpt>
      <trkpt lat="47.387616" lon="7.819226">
        <ele>578.678500</ele>
        <time>2021-11-18T21:20:37.824Z</time>
      </trkpt>
      <trkpt lat="47.387515" lon="7.819333">
        <ele>577.806199</ele>
        <time>2021-11-18T21:20:39.424Z</time>
      </trkpt>
      <trkpt lat="47.387455" lon="7.819356">
        <ele>577.371165</ele>
        <time>2021-11-18T21:20:40.169Z</time>
      </trkpt>
      <trkpt lat="47.387344" lon="7.819291">
        <ele>576.533172</ele>
        <time>2021-11-18T21:20:41.744Z</time>
      </trkpt>
      <trkpt lat="47.387295" lon="7.819228">
        <ele>576.077251</ele>
        <time>2021-11-18T21:20:42.529Z</time>
      </trkpt>
      <trkpt lat="47.386982" lon="7.818727">
        <ele>572.838101</ele>
        <time>2021-11-18T21:20:48.758Z</time>
      </trkpt>
      <trkpt lat="47.386756" lon="7.818366">
        <ele>570.501882</ele>
        <time>2021-11-18T21:20:53.372Z</time>
      </trkpt>
      <trkpt lat="47.387125" lon="7.817809">
        <ele>568.272528</ele>
        <time>2021-11-18T21:21:01.598Z</time>
      </trkpt>
      <trkpt lat="47.387291" lon="7.817580">
        <ele>567.510891</ele>
        <time>2021-11-18T21:21:04.975Z</time>
      </trkpt>
      <trkpt lat="47.387476" lon="7.817327">
        <ele>566.665498</ele>
        <time>2021-11-18T21:21:08.949Z</time>
      </trkpt>
      <trkpt lat="47.387576" lon="7.817190">
        <ele>566.208153</ele>
        <time>2021-11-18T21:21:10.944Z</time>
      </trkpt>
      <trkpt lat="47.387708" lon="7.817012">
        <ele>565.608825</ele>
        <time>2021-11-18T21:21:13.644Z</time>
      </trkpt>
      <trkpt lat="47.387912" lon="7.816788">
        <ele>564.756479</ele>
        <time>2021-11-18T21:21:17.339Z</time>
      </trkpt>
      <trkpt lat="47.388090" lon="7.816620">
        <ele>564.048178</ele>
        <time>2021-11-18T21:21:20.406Z</time>
      </trkpt>
      <trkpt lat="47.388184" lon="7.816538">
        <ele>563.682119</ele>
        <time>2021-11-18T21:21:21.891Z</time>
      </trkpt>
      <trkpt lat="47.388346" lon="7.816395">
        <ele>562.456108</ele>
        <time>2021-11-18T21:21:24.461Z</time>
      </trkpt>
      <trkpt lat="47.388771" lon="7.816079">
        <ele>559.108919</ele>
        <time>2021-11-18T21:21:30.594Z</time>
      </trkpt>
      <trkpt lat="47.389319" lon="7.815732">
        <ele>554.914588</ele>
        <time>2021-11-18T21:21:38.161Z</time>
      </trkpt>
      <trkpt lat="47.389865" lon="7.815413">
        <ele>550.818507</ele>
        <time>2021-11-18T21:21:45.442Z</time>
      </trkpt>
      <trkpt lat="47.390484" lon="7.815052">
        <ele>547.193549</ele>
        <time>2021-11-18T21:21:53.866Z</time>
      </trkpt>
      <trkpt lat="47.390680" lon="7.814949">
        <ele>546.060392</ele>
        <time>2021-11-18T21:21:56.641Z</time>
      </trkpt>
      <trkpt lat="47.391072" lon="7.814743">
        <ele>543.794081</ele>
        <time>2021-11-18T21:22:02.259Z</time>
      </trkpt>
      <trkpt lat="47.391330" lon="7.814611">
        <ele>542.306853</ele>
        <time>2021-11-18T21:22:06.123Z</time>
      </trkpt>
      <trkpt lat="47.391510" lon="7.814535">
        <ele>541.287133</ele>
        <time>2021-11-18T21:22:08.921Z</time>
      </trkpt>
      <trkpt lat="47.391815" lon="7.814430">
        <ele>541.053834</ele>
        <time>2021-11-18T21:22:14.057Z</time>
      </trkpt>
      <trkpt lat="47.391873" lon="7.814418">
        <ele>541.036301</ele>
        <time>2021-11-18T21:22:14.954Z</time>
      </trkpt>
      <trkpt lat="47.391965" lon="7.814402">
        <ele>541.008568</ele>
        <time>2021-11-18T21:22:16.530Z</time>
      </trkpt>
      <trkpt lat="47.392009" lon="7.814397">
        <ele>540.995357</ele>
        <time>2021-11-18T21:22:17.480Z</time>
      </trkpt>
      <trkpt lat="47.392247" lon="7.814378">
        <ele>540.924002</ele>
        <time>2021-11-18T21:22:21.677Z</time>
      </trkpt>
      <trkpt lat="47.392571" lon="7.814403">
        <ele>540.826873</ele>
        <time>2021-11-18T21:22:27.477Z</time>
      </trkpt>
      <trkpt lat="47.392674" lon="7.814421">
        <ele>540.795823</ele>
        <time>2021-11-18T21:22:29.188Z</time>
      </trkpt>
      <trkpt lat="47.392812" lon="7.814454">
        <ele>540.753971</ele>
        <time>2021-11-18T21:22:32.541Z</time>
      </trkpt>
      <trkpt lat="47.394138" lon="7.814860">
        <ele>541.601084</ele>
        <time>2021-11-18T21:23:10.725Z</time>
      </trkpt>
      <trkpt lat="47.394617" lon="7.815011">
        <ele>542.181963</ele>
        <time>2021-11-18T21:23:24.682Z</time>
      </trkpt>
      <trkpt lat="47.395284" lon="7.815226">
        <ele>541.976948</ele>
        <time>2021-11-18T21:23:38.642Z</time>
      </trkpt>
      <trkpt lat="47.395894" lon="7.815362">
        <ele>539.825008</ele>
        <time>2021-11-18T21:23:47.779Z</time>
      </trkpt>
      <trkpt lat="47.396481" lon="7.815220">
        <ele>537.750123</ele>
        <time>2021-11-18T21:23:55.860Z</time>
      </trkpt>
      <trkpt lat="47.396655" lon="7.815127">
        <ele>537.104660</ele>
        <time>2021-11-18T21:23:58.348Z</time>
      </trkpt>
      <trkpt lat="47.396819" lon="7.815041">
        <ele>536.497612</ele>
        <time>2021-11-18T21:24:00.644Z</time>
      </trkpt>
      <trkpt lat="47.397420" lon="7.814610">
        <ele>532.981220</ele>
        <time>2021-11-18T21:24:09.475Z</time>
      </trkpt>
      <trkpt lat="47.397971" lon="7.814039">
        <ele>529.419049</ele>
        <time>2021-11-18T21:24:18.387Z</time>
      </trkpt>
      <trkpt lat="47.398378" lon="7.813502">
        <ele>526.611388</ele>
        <time>2021-11-18T21:24:25.877Z</time>
      </trkpt>
      <trkpt lat="47.398873" lon="7.812642">
        <ele>523.361551</ele>
        <time>2021-11-18T21:24:36.641Z</time>
      </trkpt>
      <trkpt lat="47.399003" lon="7.812335">
        <ele>522.319069</ele>
        <time>2021-11-18T21:24:40.120Z</time>
      </trkpt>
      <trkpt lat="47.399034" lon="7.812265">
        <ele>522.078257</ele>
        <time>2021-11-18T21:24:40.869Z</time>
      </trkpt>
      <trkpt lat="47.399530" lon="7.811091">
        <ele>517.867111</ele>
        <time>2021-11-18T21:24:53.852Z</time>
      </trkpt>
      <trkpt lat="47.399771" lon="7.810732">
        <ele>516.135261</ele>
        <time>2021-11-18T21:24:58.460Z</time>
      </trkpt>
      <trkpt lat="47.400026" lon="7.810485">
        <ele>514.592267</ele>
        <time>2021-11-18T21:25:02.523Z</time>
      </trkpt>
      <trkpt lat="47.400552" lon="7.810295">
        <ele>511.852148</ele>
        <time>2021-11-18T21:25:09.839Z</time>
      </trkpt>
      <trkpt lat="47.401421" lon="7.810310">
        <ele>507.438035</ele>
        <time>2021-11-18T21:25:21.411Z</time>
      </trkpt>
      <trkpt lat="47.402137" lon="7.810207">
        <ele>503.775880</ele>
        <time>2021-11-18T21:25:31.055Z</time>
      </trkpt>
      <trkpt lat="47.402761" lon="7.810009">
        <ele>500.666197</ele>
        <time>2021-11-18T21:25:39.732Z</time>
      </trkpt>
      <trkpt lat="47.403065" lon="7.809891">
        <ele>499.506604</ele>
        <time>2021-11-18T21:25:44.111Z</time>
      </trkpt>
      <trkpt lat="47.403266" lon="7.809816">
        <ele>498.741781</ele>
        <time>2021-11-18T21:25:47.019Z</time>
      </trkpt>
      <trkpt lat="47.403310" lon="7.809800">
        <ele>498.574609</ele>
        <time>2021-11-18T21:25:47.661Z</time>
      </trkpt>
      <trkpt lat="47.403507" lon="7.809728">
        <ele>497.825919</ele>
        <time>2021-11-18T21:25:50.540Z</time>
      </trkpt>
      <trkpt lat="47.403732" lon="7.809654">
        <ele>496.975520</ele>
        <time>2021-11-18T21:25:53.824Z</time>
      </trkpt>
      <trkpt lat="47.403833" lon="7.809618">
        <ele>496.592215</ele>
        <time>2021-11-18T21:25:55.348Z</time>
      </trkpt>
      <trkpt lat="47.404082" lon="7.809543">
        <ele>495.654696</ele>
        <time>2021-11-18T21:25:58.965Z</time>
      </trkpt>
      <trkpt lat="47.404543" lon="7.809480">
        <ele>494.088787</ele>
        <time>2021-11-18T21:26:05.967Z</time>
      </trkpt>
      <trkpt lat="47.404882" lon="7.809460">
        <ele>493.231813</ele>
        <time>2021-11-18T21:26:11.053Z</time>
      </trkpt>
      <trkpt lat="47.405269" lon="7.809435">
        <ele>492.253342</ele>
        <time>2021-11-18T21:26:16.938Z</time>
      </trkpt>
      <trkpt lat="47.405362" lon="7.809433">
        <ele>492.018405</ele>
        <time>2021-11-18T21:26:18.530Z</time>
      </trkpt>
      <trkpt lat="47.405651" lon="7.809411">
        <ele>491.287442</ele>
        <time>2021-11-18T21:26:22.867Z</time>
      </trkpt>
      <trkpt lat="47.405740" lon="7.809402">
        <ele>491.062108</ele>
        <time>2021-11-18T21:26:24.661Z</time>
      </trkpt>
      <trkpt lat="47.405843" lon="7.809380">
        <ele>490.799232</ele>
        <time>2021-11-18T21:26:26.169Z</time>
      </trkpt>
      <trkpt lat="47.405944" lon="7.809350">
        <ele>490.539008</ele>
        <time>2021-11-18T21:26:27.718Z</time>
      </trkpt>
      <trkpt lat="47.406093" lon="7.809301">
        <ele>490.153434</ele>
        <time>2021-11-18T21:26:30.203Z</time>
      </trkpt>
      <trkpt lat="47.406259" lon="7.809218">
        <ele>489.703454</ele>
        <time>2021-11-18T21:26:32.701Z</time>
      </trkpt>
      <trkpt lat="47.406932" lon="7.808849">
        <ele>487.797636</ele>
        <time>2021-11-18T21:26:43.473Z</time>
      </trkpt>
      <trkpt lat="47.407303" lon="7.808718">
        <ele>486.784923</ele>
        <time>2021-11-18T21:26:49.360Z</time>
      </trkpt>
      <trkpt lat="47.407661" lon="7.808646">
        <ele>485.825695</ele>
        <time>2021-11-18T21:26:54.623Z</time>
      </trkpt>
      <trkpt lat="47.408203" lon="7.808546">
        <ele>484.427304</ele>
        <time>2021-11-18T21:27:02.825Z</time>
      </trkpt>
      <trkpt lat="47.408773" lon="7.808493">
        <ele>483.022590</ele>
        <time>2021-11-18T21:27:11.518Z</time>
      </trkpt>
      <trkpt lat="47.408899" lon="7.808522">
        <ele>482.708950</ele>
        <time>2021-11-18T21:27:13.408Z</time>
      </trkpt>
      <trkpt lat="47.408924" lon="7.808529">
        <ele>482.646367</ele>
        <time>2021-11-18T21:27:13.821Z</time>
      </trkpt>
      <trkpt lat="47.409009" lon="7.808554">
        <ele>482.433204</ele>
        <time>2021-11-18T21:27:15.086Z</time>
      </trkpt>
      <trkpt lat="47.409739" lon="7.809061">
        <ele>480.483547</ele>
        <time>2021-11-18T21:27:27.653Z</time>
      </trkpt>
      <trkpt lat="47.409973" lon="7.809245">
        <ele>479.940169</ele>
        <time>2021-11-18T21:27:31.733Z</time>
      </trkpt>
      <trkpt lat="47.410057" lon="7.809308">
        <ele>479.747063</ele>
        <time>2021-11-18T21:27:33.268Z</time>
      </trkpt>
      <trkpt lat="47.410267" lon="7.809486">
        <ele>479.250778</ele>
        <time>2021-11-18T21:27:36.967Z</time>
      </trkpt>
      <trkpt lat="47.410407" lon="7.809617">
        <ele>478.911083</ele>
        <time>2021-11-18T21:27:39.614Z</time>
      </trkpt>
      <trkpt lat="47.410574" lon="7.809784">
        <ele>478.497718</ele>
        <time>2021-11-18T21:27:42.843Z</time>
      </trkpt>
      <trkpt lat="47.410795" lon="7.810008">
        <ele>477.948346</ele>
        <time>2021-11-18T21:27:47.121Z</time>
      </trkpt>
      <trkpt lat="47.410988" lon="7.810134">
        <ele>477.515813</ele>
        <time>2021-11-18T21:27:50.530Z</time>
      </trkpt>
      <trkpt lat="47.411038" lon="7.810167">
        <ele>477.403556</ele>
        <time>2021-11-18T21:27:51.390Z</time>
      </trkpt>
      <trkpt lat="47.411512" lon="7.810306">
        <ele>476.417627</ele>
        <time>2021-11-18T21:27:58.847Z</time>
      </trkpt>
      <trkpt lat="47.412719" lon="7.810865">
        <ele>473.846600</ele>
        <time>2021-11-18T21:28:18.474Z</time>
      </trkpt>
      <trkpt lat="47.412829" lon="7.810950">
        <ele>473.594289</ele>
        <time>2021-11-18T21:28:20.464Z</time>
      </trkpt>
      <trkpt lat="47.413209" lon="7.811148">
        <ele>473.011744</ele>
        <time>2021-11-18T21:28:27.136Z</time>
      </trkpt>
      <trkpt lat="47.413295" lon="7.811180">
        <ele>472.910915</ele>
        <time>2021-11-18T21:28:28.631Z</time>
      </trkpt>
      <trkpt lat="47.413351" lon="7.811196">
        <ele>472.846066</ele>
        <time>2021-11-18T21:28:29.493Z</time>
      </trkpt>
      <trkpt lat="47.413454" lon="7.811217">
        <ele>472.727851</ele>
        <time>2021-11-18T21:28:31.312Z</time>
      </trkpt>
      <trkpt lat="47.413652" lon="7.811232">
        <ele>472.502439</ele>
        <time>2021-11-18T21:28:34.753Z</time>
      </trkpt>
      <trkpt lat="47.413716" lon="7.811229">
        <ele>472.429638</ele>
        <time>2021-11-18T21:28:35.733Z</time>
      </trkpt>
      <trkpt lat="47.413799" lon="7.811208">
        <ele>472.333898</ele>
        <time>2021-11-18T21:28:37.304Z</time>
      </trkpt>
      <trkpt lat="47.413867" lon="7.811189">
        <ele>472.255216</ele>
        <time>2021-11-18T21:28:38.477Z</time>
      </trkpt>
      <trkpt lat="47.413959" lon="7.811165">
        <ele>472.148999</ele>
        <time>2021-11-18T21:28:40.182Z</time>
      </trkpt>
      <trkpt lat="47.414237" lon="7.811081">
        <ele>471.826387</ele>
        <time>2021-11-18T21:28:44.938Z</time>
      </trkpt>
      <trkpt lat="47.414706" lon="7.810912">
        <ele>471.277534</ele>
        <time>2021-11-18T21:28:53.542Z</time>
      </trkpt>
      <trkpt lat="47.415390" lon="7.810500">
        <ele>470.608327</ele>
        <time>2021-11-18T21:29:07.133Z</time>
      </trkpt>
      <trkpt lat="47.415633" lon="7.810382">
        <ele>470.377342</ele>
        <time>2021-11-18T21:29:11.645Z</time>
      </trkpt>
      <trkpt lat="47.415923" lon="7.810254">
        <ele>470.104026</ele>
        <time>2021-11-18T21:29:17.200Z</time>
      </trkpt>
      <trkpt lat="47.415983" lon="7.810241">
        <ele>470.049264</ele>
        <time>2021-11-18T21:29:18.106Z</time>
      </trkpt>
      <trkpt lat="47.416026" lon="7.810233">
        <ele>470.010126</ele>
        <time>2021-11-18T21:29:18.847Z</time>
      </trkpt>
      <trkpt lat="47.416349" lon="7.810346">
        <ele>469.710379</ele>
        <time>2021-11-18T21:29:24.449Z</time>
      </trkpt>
      <trkpt lat="47.416432" lon="7.810407">
        <ele>469.621980</ele>
        <time>2021-11-18T21:29:26.130Z</time>
      </trkpt>
      <trkpt lat="47.416598" lon="7.810554">
        <ele>469.396002</ele>
        <time>2021-11-18T21:29:29.600Z</time>
      </trkpt>
      <trkpt lat="47.416690" lon="7.810617">
        <ele>469.277598</ele>
        <time>2021-11-18T21:29:31.073Z</time>
      </trkpt>
      <trkpt lat="47.417067" lon="7.810695">
        <ele>468.833073</ele>
        <time>2021-11-18T21:29:37.469Z</time>
      </trkpt>
      <trkpt lat="47.417675" lon="7.810419">
        <ele>468.090358</ele>
        <time>2021-11-18T21:29:48.563Z</time>
      </trkpt>
      <trkpt lat="47.417743" lon="7.810418">
        <ele>468.010949</ele>
        <time>2021-11-18T21:29:49.526Z</time>
      </trkpt>
      <trkpt lat="47.417828" lon="7.810432">
        <ele>467.911078</ele>
        <time>2021-11-18T21:29:50.958Z</time>
      </trkpt>
      <trkpt lat="47.418377" lon="7.810720">
        <ele>468.229751</ele>
        <time>2021-11-18T21:30:00.537Z</time>
      </trkpt>
      <trkpt lat="47.418762" lon="7.810815">
        <ele>469.235469</ele>
        <time>2021-11-18T21:30:09.514Z</time>
      </trkpt>
      <trkpt lat="47.419015" lon="7.810884">
        <ele>469.898353</ele>
        <time>2021-11-18T21:30:17.325Z</time>
      </trkpt>
      <trkpt lat="47.419069" lon="7.810903">
        <ele>470.041377</ele>
        <time>2021-11-18T21:30:19.038Z</time>
      </trkpt>
      <trkpt lat="47.419134" lon="7.810926">
        <ele>470.213589</ele>
        <time>2021-11-18T21:30:20.423Z</time>
      </trkpt>
      <trkpt lat="47.419155" lon="7.810934">
        <ele>470.269466</ele>
        <time>2021-11-18T21:30:20.806Z</time>
      </trkpt>
      <trkpt lat="47.419414" lon="7.811078">
        <ele>470.982462</ele>
        <time>2021-11-18T21:30:33.840Z</time>
      </trkpt>
      <trkpt lat="47.419508" lon="7.811160">
        <ele>471.263704</ele>
        <time>2021-11-18T21:30:37.163Z</time>
      </trkpt>
      <trkpt lat="47.419632" lon="7.811270">
        <ele>471.636337</ele>
        <time>2021-11-18T21:30:44.858Z</time>
      </trkpt>
      <trkpt lat="47.419766" lon="7.811395">
        <ele>472.044622</ele>
        <time>2021-11-18T21:30:51.368Z</time>
      </trkpt>
      <trkpt lat="47.420135" lon="7.811734">
        <ele>473.738789</ele>
        <time>2021-11-18T21:31:08.521Z</time>
      </trkpt>
      <trkpt lat="47.420458" lon="7.811986">
        <ele>475.227601</ele>
        <time>2021-11-18T21:31:23.233Z</time>
      </trkpt>
      <trkpt lat="47.420607" lon="7.812071">
        <ele>475.878633</ele>
        <time>2021-11-18T21:31:31.295Z</time>
      </trkpt>
      <trkpt lat="47.420767" lon="7.812138">
        <ele>476.556503</ele>
        <time>2021-11-18T21:31:37.048Z</time>
      </trkpt>
      <trkpt lat="47.420870" lon="7.812170">
        <ele>476.985531</ele>
        <time>2021-11-18T21:31:41.528Z</time>
      </trkpt>
      <trkpt lat="47.421065" lon="7.812200">
        <ele>477.784692</ele>
        <time>2021-11-18T21:31:49.714Z</time>
      </trkpt>
      <trkpt lat="47.421441" lon="7.812208">
        <ele>479.317515</ele>
        <time>2021-11-18T21:32:02.287Z</time>
      </trkpt>
      <trkpt lat="47.421893" lon="7.812157">
        <ele>478.320821</ele>
        <time>2021-11-18T21:32:10.395Z</time>
      </trkpt>
      <trkpt lat="47.421898" lon="7.812156">
        <ele>478.306080</ele>
        <time>2021-11-18T21:32:10.451Z</time>
      </trkpt>
      <trkpt lat="47.422397" lon="7.812011">
        <ele>476.820308</ele>
        <time>2021-11-18T21:32:17.784Z</time>
      </trkpt>
      <trkpt lat="47.422720" lon="7.811867">
        <ele>475.834647</ele>
        <time>2021-11-18T21:32:22.321Z</time>
      </trkpt>
      <trkpt lat="47.422978" lon="7.811734">
        <ele>475.036350</ele>
        <time>2021-11-18T21:32:26.004Z</time>
      </trkpt>
      <trkpt lat="47.423172" lon="7.811608">
        <ele>474.417257</ele>
        <time>2021-11-18T21:32:28.969Z</time>
      </trkpt>
      <trkpt lat="47.423767" lon="7.811175">
        <ele>472.096854</ele>
        <time>2021-11-18T21:32:38.015Z</time>
      </trkpt>
      <trkpt lat="47.423941" lon="7.811048">
        <ele>471.407554</ele>
        <time>2021-11-18T21:32:40.707Z</time>
      </trkpt>
      <trkpt lat="47.424697" lon="7.810643">
        <ele>468.551295</ele>
        <time>2021-11-18T21:32:52.673Z</time>
      </trkpt>
      <trkpt lat="47.424871" lon="7.810565">
        <ele>467.905446</ele>
        <time>2021-11-18T21:32:55.316Z</time>
      </trkpt>
      <trkpt lat="47.425184" lon="7.810445">
        <ele>466.739773</ele>
        <time>2021-11-18T21:33:00.774Z</time>
      </trkpt>
      <trkpt lat="47.426541" lon="7.810106">
        <ele>461.775871</ele>
        <time>2021-11-18T21:33:20.784Z</time>
      </trkpt>
      <trkpt lat="47.427284" lon="7.809847">
        <ele>456.638911</ele>
        <time>2021-11-18T21:33:30.572Z</time>
      </trkpt>
      <trkpt lat="47.427626" lon="7.809699">
        <ele>454.052599</ele>
        <time>2021-11-18T21:33:35.053Z</time>
      </trkpt>
      <trkpt lat="47.428078" lon="7.809508">
        <ele>450.640714</ele>
        <time>2021-11-18T21:33:40.931Z</time>
      </trkpt>
      <trkpt lat="47.428531" lon="7.809311">
        <ele>447.457885</ele>
        <time>2021-11-18T21:33:46.872Z</time>
      </trkpt>
      <trkpt lat="47.428816" lon="7.809184">
        <ele>445.772982</ele>
        <time>2021-11-18T21:33:50.625Z</time>
      </trkpt>
      <trkpt lat="47.429678" lon="7.808980">
        <ele>440.831642</ele>
        <time>2021-11-18T21:34:02.085Z</time>
      </trkpt>
      <trkpt lat="47.430471" lon="7.809009">
        <ele>437.342027</ele>
        <time>2021-11-18T21:34:13.711Z</time>
      </trkpt>
      <trkpt lat="47.430630" lon="7.809037">
        <ele>436.939180</ele>
        <time>2021-11-18T21:34:16.276Z</time>
      </trkpt>
      <trkpt lat="47.430797" lon="7.809083">
        <ele>436.511804</ele>
        <time>2021-11-18T21:34:18.874Z</time>
      </trkpt>
      <trkpt lat="47.431419" lon="7.809325">
        <ele>434.893662</ele>
        <time>2021-11-18T21:34:28.803Z</time>
      </trkpt>
      <trkpt lat="47.432022" lon="7.809706">
        <ele>433.294861</ele>
        <time>2021-11-18T21:34:38.934Z</time>
      </trkpt>
      <trkpt lat="47.432174" lon="7.809836">
        <ele>432.913407</ele>
        <time>2021-11-18T21:34:41.608Z</time>
      </trkpt>
      <trkpt lat="47.432554" lon="7.810136">
        <ele>431.977630</ele>
        <time>2021-11-18T21:34:48.327Z</time>
      </trkpt>
      <trkpt lat="47.432928" lon="7.810342">
        <ele>431.110662</ele>
        <time>2021-11-18T21:34:54.608Z</time>
      </trkpt>
      <trkpt lat="47.433316" lon="7.810451">
        <ele>430.252760</ele>
        <time>2021-11-18T21:35:00.686Z</time>
      </trkpt>
      <trkpt lat="47.433643" lon="7.810504">
        <ele>429.565859</ele>
        <time>2021-11-18T21:35:05.840Z</time>
      </trkpt>
      <trkpt lat="47.433643" lon="7.810504">
        <ele>429.565859</ele>
        <time>2021-11-18T21:35:05.851Z</time>
      </trkpt>
      <trkpt lat="47.434093" lon="7.810572">
        <ele>428.741234</ele>
        <time>2021-11-18T21:35:13.036Z</time>
      </trkpt>
      <trkpt lat="47.434221" lon="7.810592">
        <ele>428.506591</ele>
        <time>2021-11-18T21:35:15.209Z</time>
      </trkpt>
      <trkpt lat="47.434532" lon="7.810638">
        <ele>427.936808</ele>
        <time>2021-11-18T21:35:20.223Z</time>
      </trkpt>
      <trkpt lat="47.434890" lon="7.810694">
        <ele>427.280531</ele>
        <time>2021-11-18T21:35:26.031Z</time>
      </trkpt>
      <trkpt lat="47.435107" lon="7.810718">
        <ele>426.883834</ele>
        <time>2021-11-18T21:35:29.442Z</time>
      </trkpt>
      <trkpt lat="47.435676" lon="7.810622">
        <ele>425.822294</ele>
        <time>2021-11-18T21:35:38.831Z</time>
      </trkpt>
      <trkpt lat="47.436034" lon="7.810517">
        <ele>425.137235</ele>
        <time>2021-11-18T21:35:44.658Z</time>
      </trkpt>
      <trkpt lat="47.436286" lon="7.810439">
        <ele>424.653977</ele>
        <time>2021-11-18T21:35:48.654Z</time>
      </trkpt>
      <trkpt lat="47.436714" lon="7.810307">
        <ele>423.833330</ele>
        <time>2021-11-18T21:35:55.579Z</time>
      </trkpt>
      <trkpt lat="47.436754" lon="7.810295">
        <ele>423.756720</ele>
        <time>2021-11-18T21:35:56.200Z</time>
      </trkpt>
      <trkpt lat="47.436910" lon="7.810231">
        <ele>423.452845</ele>
        <time>2021-11-18T21:35:58.774Z</time>
      </trkpt>
      <trkpt lat="47.436971" lon="7.810198">
        <ele>423.330923</ele>
        <time>2021-11-18T21:35:59.786Z</time>
      </trkpt>
      <trkpt lat="47.437405" lon="7.809871">
        <ele>422.745137</ele>
        <time>2021-11-18T21:36:07.596Z</time>
      </trkpt>
      <trkpt lat="47.437530" lon="7.809761">
        <ele>422.612533</ele>
        <time>2021-11-18T21:36:09.930Z</time>
      </trkpt>
      <trkpt lat="47.437880" lon="7.809448">
        <ele>422.239655</ele>
        <time>2021-11-18T21:36:16.431Z</time>
      </trkpt>
      <trkpt lat="47.438351" lon="7.809132">
        <ele>421.768164</ele>
        <time>2021-11-18T21:36:25.409Z</time>
      </trkpt>
      <trkpt lat="47.438917" lon="7.808920">
        <ele>421.940163</ele>
        <time>2021-11-18T21:36:38.625Z</time>
      </trkpt>
      <trkpt lat="47.439160" lon="7.808856">
        <ele>422.596332</ele>
        <time>2021-11-18T21:36:45.158Z</time>
      </trkpt>
      <trkpt lat="47.439256" lon="7.808836">
        <ele>422.854063</ele>
        <time>2021-11-18T21:36:48.170Z</time>
      </trkpt>
      <trkpt lat="47.439561" lon="7.808777">
        <ele>423.671796</ele>
        <time>2021-11-18T21:36:57.309Z</time>
      </trkpt>
      <trkpt lat="47.439717" lon="7.808754">
        <ele>424.088569</ele>
        <time>2021-11-18T21:37:03.331Z</time>
      </trkpt>
      <trkpt lat="47.440417" lon="7.808777">
        <ele>425.949932</ele>
        <time>2021-11-18T21:37:28.481Z</time>
      </trkpt>
      <trkpt lat="47.442177" lon="7.809333">
        <ele>430.396269</ele>
        <time>2021-11-18T21:38:26.562Z</time>
      </trkpt>
      <trkpt lat="47.442683" lon="7.809428">
        <ele>429.557784</ele>
        <time>2021-11-18T21:38:35.542Z</time>
      </trkpt>
      <trkpt lat="47.442919" lon="7.809465">
        <ele>428.953384</ele>
        <time>2021-11-18T21:38:39.260Z</time>
      </trkpt>
      <trkpt lat="47.443441" lon="7.809553">
        <ele>427.615373</ele>
        <time>2021-11-18T21:38:47.661Z</time>
      </trkpt>
      <trkpt lat="47.443720" lon="7.809596">
        <ele>426.900983</ele>
        <time>2021-11-18T21:38:51.601Z</time>
      </trkpt>
      <trkpt lat="47.443991" lon="7.809623">
        <ele>426.209251</ele>
        <time>2021-11-18T21:38:55.160Z</time>
      </trkpt>
      <trkpt lat="47.444386" lon="7.809626">
        <ele>423.982195</ele>
        <time>2021-11-18T21:39:00.276Z</time>
      </trkpt>
      <trkpt lat="47.445054" lon="7.809404">
        <ele>419.699591</ele>
        <time>2021-11-18T21:39:09.051Z</time>
      </trkpt>
      <trkpt lat="47.445120" lon="7.809369">
        <ele>419.261012</ele>
        <time>2021-11-18T21:39:09.956Z</time>
      </trkpt>
      <trkpt lat="47.445298" lon="7.809256">
        <ele>418.049338</ele>
        <time>2021-11-18T21:39:11.727Z</time>
      </trkpt>
      <trkpt lat="47.445880" lon="7.808843">
        <ele>414.108259</ele>
        <time>2021-11-18T21:39:17.742Z</time>
      </trkpt>
      <trkpt lat="47.446066" lon="7.808703">
        <ele>412.964916</ele>
        <time>2021-11-18T21:39:19.627Z</time>
      </trkpt>
      <trkpt lat="47.446096" lon="7.808680">
        <ele>412.779796</ele>
        <time>2021-11-18T21:39:19.962Z</time>
      </trkpt>
      <trkpt lat="47.446142" lon="7.808642">
        <ele>412.491144</ele>
        <time>2021-11-18T21:39:20.442Z</time>
      </trkpt>
      <trkpt lat="47.446375" lon="7.808453">
        <ele>411.035303</ele>
        <time>2021-11-18T21:39:22.827Z</time>
      </trkpt>
      <trkpt lat="47.446473" lon="7.808376">
        <ele>410.427365</ele>
        <time>2021-11-18T21:39:23.822Z</time>
      </trkpt>
      <trkpt lat="47.446662" lon="7.808234">
        <ele>409.266017</ele>
        <time>2021-11-18T21:39:25.729Z</time>
      </trkpt>
      <trkpt lat="47.447314" lon="7.807756">
        <ele>405.279396</ele>
        <time>2021-11-18T21:39:32.618Z</time>
      </trkpt>
      <trkpt lat="47.447388" lon="7.807704">
        <ele>404.884646</ele>
        <time>2021-11-18T21:39:33.379Z</time>
      </trkpt>
      <trkpt lat="47.447457" lon="7.807654">
        <ele>404.675351</ele>
        <time>2021-11-18T21:39:34.227Z</time>
      </trkpt>
      <trkpt lat="47.447633" lon="7.807562">
        <ele>404.166892</ele>
        <time>2021-11-18T21:39:36.273Z</time>
      </trkpt>
      <trkpt lat="47.447668" lon="7.807553">
        <ele>404.070129</ele>
        <time>2021-11-18T21:39:36.637Z</time>
      </trkpt>
      <trkpt lat="47.447689" lon="7.807548">
        <ele>404.012193</ele>
        <time>2021-11-18T21:39:36.826Z</time>
      </trkpt>
      <trkpt lat="47.447914" lon="7.807549">
        <ele>403.399337</ele>
        <time>2021-11-18T21:39:39.345Z</time>
      </trkpt>
      <trkpt lat="47.448245" lon="7.807740">
        <ele>402.431549</ele>
        <time>2021-11-18T21:39:43.072Z</time>
      </trkpt>
      <trkpt lat="47.448284" lon="7.807767">
        <ele>402.314255</ele>
        <time>2021-11-18T21:39:43.485Z</time>
      </trkpt>
      <trkpt lat="47.448442" lon="7.807881">
        <ele>401.835400</ele>
        <time>2021-11-18T21:39:45.294Z</time>
      </trkpt>
      <trkpt lat="47.448807" lon="7.808072">
        <ele>400.780803</ele>
        <time>2021-11-18T21:39:49.424Z</time>
      </trkpt>
      <trkpt lat="47.448903" lon="7.808078">
        <ele>400.519085</ele>
        <time>2021-11-18T21:39:50.571Z</time>
      </trkpt>
      <trkpt lat="47.449015" lon="7.808053">
        <ele>400.210565</ele>
        <time>2021-11-18T21:39:51.756Z</time>
      </trkpt>
      <trkpt lat="47.449267" lon="7.807971">
        <ele>399.723483</ele>
        <time>2021-11-18T21:39:54.612Z</time>
      </trkpt>
      <trkpt lat="47.449353" lon="7.807942">
        <ele>399.580791</ele>
        <time>2021-11-18T21:39:55.526Z</time>
      </trkpt>
      <trkpt lat="47.449829" lon="7.807782">
        <ele>398.791131</ele>
        <time>2021-11-18T21:40:01.180Z</time>
      </trkpt>
      <trkpt lat="47.449896" lon="7.807771">
        <ele>398.682080</ele>
        <time>2021-11-18T21:40:01.968Z</time>
      </trkpt>
      <trkpt lat="47.450005" lon="7.807761">
        <ele>398.505414</ele>
        <time>2021-11-18T21:40:03.327Z</time>
      </trkpt>
      <trkpt lat="47.451415" lon="7.807774">
        <ele>396.238961</ele>
        <time>2021-11-18T21:40:19.541Z</time>
      </trkpt>
      <trkpt lat="47.451791" lon="7.807759">
        <ele>395.640257</ele>
        <time>2021-11-18T21:40:23.873Z</time>
      </trkpt>
      <trkpt lat="47.451923" lon="7.807754">
        <ele>395.430081</ele>
        <time>2021-11-18T21:40:25.395Z</time>
      </trkpt>
      <trkpt lat="47.452253" lon="7.807773">
        <ele>394.904416</ele>
        <time>2021-11-18T21:40:29.186Z</time>
      </trkpt>
      <trkpt lat="47.452456" lon="7.807753">
        <ele>394.580581</ele>
        <time>2021-11-18T21:40:31.496Z</time>
      </trkpt>
      <trkpt lat="47.452556" lon="7.807739">
        <ele>394.420698</ele>
        <time>2021-11-18T21:40:32.564Z</time>
      </trkpt>
      <trkpt lat="47.452649" lon="7.807724">
        <ele>394.271790</ele>
        <time>2021-11-18T21:40:33.627Z</time>
      </trkpt>
      <trkpt lat="47.452830" lon="7.807686">
        <ele>394.002304</ele>
        <time>2021-11-18T21:40:35.693Z</time>
      </trkpt>
      <trkpt lat="47.453183" lon="7.807608">
        <ele>393.476961</ele>
        <time>2021-11-18T21:40:39.577Z</time>
      </trkpt>
      <trkpt lat="47.453371" lon="7.807571">
        <ele>393.197807</ele>
        <time>2021-11-18T21:40:41.694Z</time>
      </trkpt>
      <trkpt lat="47.453677" lon="7.807487">
        <ele>392.739716</ele>
        <time>2021-11-18T21:40:45.422Z</time>
      </trkpt>
      <trkpt lat="47.453815" lon="7.807438">
        <ele>392.530823</ele>
        <time>2021-11-18T21:40:47.174Z</time>
      </trkpt>
      <trkpt lat="47.453901" lon="7.807402">
        <ele>392.399268</ele>
        <time>2021-11-18T21:40:48.275Z</time>
      </trkpt>
      <trkpt lat="47.453985" lon="7.807368">
        <ele>392.271083</ele>
        <time>2021-11-18T21:40:49.265Z</time>
      </trkpt>
      <trkpt lat="47.454310" lon="7.807191">
        <ele>391.761314</ele>
        <time>2021-11-18T21:40:53.517Z</time>
      </trkpt>
      <trkpt lat="47.454428" lon="7.807128">
        <ele>391.566956</ele>
        <time>2021-11-18T21:40:54.994Z</time>
      </trkpt>
      <trkpt lat="47.454559" lon="7.807067">
        <ele>391.318505</ele>
        <time>2021-11-18T21:40:56.785Z</time>
      </trkpt>
      <trkpt lat="47.455379" lon="7.806783">
        <ele>389.794977</ele>
        <time>2021-11-18T21:41:06.142Z</time>
      </trkpt>
      <trkpt lat="47.456100" lon="7.806718">
        <ele>388.488254</ele>
        <time>2021-11-18T21:41:14.037Z</time>
      </trkpt>
      <trkpt lat="47.456331" lon="7.806727">
        <ele>388.019168</ele>
        <time>2021-11-18T21:41:16.559Z</time>
      </trkpt>
      <trkpt lat="47.456502" lon="7.806745">
        <ele>387.655372</ele>
        <time>2021-11-18T21:41:18.377Z</time>
      </trkpt>
      <trkpt lat="47.456988" lon="7.806840">
        <ele>386.615067</ele>
        <time>2021-11-18T21:41:23.740Z</time>
      </trkpt>
      <trkpt lat="47.457291" lon="7.806917">
        <ele>385.962651</ele>
        <time>2021-11-18T21:41:27.031Z</time>
      </trkpt>
      <trkpt lat="47.457326" lon="7.806926">
        <ele>385.887264</ele>
        <time>2021-11-18T21:41:27.433Z</time>
      </trkpt>
      <trkpt lat="47.457732" lon="7.807037">
        <ele>385.011098</ele>
        <time>2021-11-18T21:41:31.873Z</time>
      </trkpt>
      <trkpt lat="47.458181" lon="7.807191">
        <ele>384.176729</ele>
        <time>2021-11-18T21:41:36.935Z</time>
      </trkpt>
      <trkpt lat="47.458237" lon="7.807215">
        <ele>384.087510</ele>
        <time>2021-11-18T21:41:37.566Z</time>
      </trkpt>
      <trkpt lat="47.458342" lon="7.807254">
        <ele>383.921844</ele>
        <time>2021-11-18T21:41:38.771Z</time>
      </trkpt>
      <trkpt lat="47.458678" lon="7.807409">
        <ele>383.383250</ele>
        <time>2021-11-18T21:41:42.764Z</time>
      </trkpt>
      <trkpt lat="47.459007" lon="7.807577">
        <ele>382.850637</ele>
        <time>2021-11-18T21:41:46.868Z</time>
      </trkpt>
      <trkpt lat="47.459282" lon="7.807707">
        <ele>382.408845</ele>
        <time>2021-11-18T21:41:50.420Z</time>
      </trkpt>
      <trkpt lat="47.459423" lon="7.807775">
        <ele>382.181899</ele>
        <time>2021-11-18T21:41:52.187Z</time>
      </trkpt>
      <trkpt lat="47.459865" lon="7.807952">
        <ele>381.500210</ele>
        <time>2021-11-18T21:41:57.440Z</time>
      </trkpt>
      <trkpt lat="47.460078" lon="7.808023">
        <ele>381.186292</ele>
        <time>2021-11-18T21:42:00.005Z</time>
      </trkpt>
      <trkpt lat="47.460298" lon="7.808103">
        <ele>380.860571</ele>
        <time>2021-11-18T21:42:02.615Z</time>
      </trkpt>
      <trkpt lat="47.460439" lon="7.808155">
        <ele>380.651644</ele>
        <time>2021-11-18T21:42:04.295Z</time>
      </trkpt>
      <trkpt lat="47.460827" lon="7.808276">
        <ele>380.081539</ele>
        <time>2021-11-18T21:42:08.868Z</time>
      </trkpt>
      <trkpt lat="47.460870" lon="7.808289">
        <ele>380.018439</ele>
        <time>2021-11-18T21:42:09.339Z</time>
      </trkpt>
      <trkpt lat="47.460938" lon="7.808308">
        <ele>379.918944</ele>
        <time>2021-11-18T21:42:10.184Z</time>
      </trkpt>
      <trkpt lat="47.461296" lon="7.808372">
        <ele>379.400489</ele>
        <time>2021-11-18T21:42:14.394Z</time>
      </trkpt>
      <trkpt lat="47.461822" lon="7.808433">
        <ele>378.850842</ele>
        <time>2021-11-18T21:42:20.429Z</time>
      </trkpt>
      <trkpt lat="47.461997" lon="7.808450">
        <ele>378.691424</ele>
        <time>2021-11-18T21:42:22.480Z</time>
      </trkpt>
      <trkpt lat="47.462052" lon="7.808470">
        <ele>378.639940</ele>
        <time>2021-11-18T21:42:23.142Z</time>
      </trkpt>
      <trkpt lat="47.462087" lon="7.808494">
        <ele>378.604872</ele>
        <time>2021-11-18T21:42:23.632Z</time>
      </trkpt>
      <trkpt lat="47.462189" lon="7.808427">
        <ele>378.503422</ele>
        <time>2021-11-18T21:42:24.914Z</time>
      </trkpt>
      <trkpt lat="47.463004" lon="7.808201">
        <ele>377.749678</ele>
        <time>2021-11-18T21:42:35.492Z</time>
      </trkpt>
      <trkpt lat="47.463084" lon="7.808172">
        <ele>377.674806</ele>
        <time>2021-11-18T21:42:36.560Z</time>
      </trkpt>
      <trkpt lat="47.463139" lon="7.808153">
        <ele>377.623466</ele>
        <time>2021-11-18T21:42:37.430Z</time>
      </trkpt>
      <trkpt lat="47.463234" lon="7.808119">
        <ele>377.597800</ele>
        <time>2021-11-18T21:42:38.702Z</time>
      </trkpt>
      <trkpt lat="47.463497" lon="7.808007">
        <ele>377.737767</ele>
        <time>2021-11-18T21:42:42.948Z</time>
      </trkpt>
      <trkpt lat="47.463812" lon="7.807759">
        <ele>377.920263</ele>
        <time>2021-11-18T21:42:48.587Z</time>
      </trkpt>
      <trkpt lat="47.463974" lon="7.807443">
        <ele>378.057380</ele>
        <time>2021-11-18T21:42:53.355Z</time>
      </trkpt>
      <trkpt lat="47.464656" lon="7.805873">
        <ele>378.405529</ele>
        <time>2021-11-18T21:43:17.044Z</time>
      </trkpt>
      <trkpt lat="47.464756" lon="7.805345">
        <ele>378.323935</ele>
        <time>2021-11-18T21:43:22.310Z</time>
      </trkpt>
      <trkpt lat="47.464762" lon="7.804988">
        <ele>378.270795</ele>
        <time>2021-11-18T21:43:25.829Z</time>
      </trkpt>
      <trkpt lat="47.464766" lon="7.804635">
        <ele>378.218259</ele>
        <time>2021-11-18T21:43:28.759Z</time>
      </trkpt>
      <trkpt lat="47.464804" lon="7.804045">
        <ele>378.130066</ele>
        <time>2021-11-18T21:43:33.870Z</time>
      </trkpt>
      <trkpt lat="47.464850" lon="7.803652">
        <ele>377.909190</ele>
        <time>2021-11-18T21:43:37.053Z</time>
      </trkpt>
      <trkpt lat="47.464951" lon="7.803046">
        <ele>377.286137</ele>
        <time>2021-11-18T21:43:42.053Z</time>
      </trkpt>
      <trkpt lat="47.465087" lon="7.801962">
        <ele>376.185558</ele>
        <time>2021-11-18T21:43:50.350Z</time>
      </trkpt>
      <trkpt lat="47.465087" lon="7.801961">
        <ele>376.184560</ele>
        <time>2021-11-18T21:43:50.362Z</time>
      </trkpt>
      <trkpt lat="47.465091" lon="7.801374">
        <ele>375.598559</ele>
        <time>2021-11-18T21:43:54.977Z</time>
      </trkpt>
      <trkpt lat="47.464765" lon="7.799380">
        <ele>373.449490</ele>
        <time>2021-11-18T21:44:11.106Z</time>
      </trkpt>
      <trkpt lat="47.464772" lon="7.798903">
        <ele>372.947747</ele>
        <time>2021-11-18T21:44:14.697Z</time>
      </trkpt>
      <trkpt lat="47.464820" lon="7.798651">
        <ele>372.672420</ele>
        <time>2021-11-18T21:44:16.698Z</time>
      </trkpt>
      <trkpt lat="47.464909" lon="7.798314">
        <ele>372.273171</ele>
        <time>2021-11-18T21:44:19.377Z</time>
      </trkpt>
      <trkpt lat="47.465142" lon="7.797798">
        <ele>371.585952</ele>
        <time>2021-11-18T21:44:24.070Z</time>
      </trkpt>
      <trkpt lat="47.465357" lon="7.797287">
        <ele>370.919373</ele>
        <time>2021-11-18T21:44:28.796Z</time>
      </trkpt>
      <trkpt lat="47.465466" lon="7.796874">
        <ele>370.428362</ele>
        <time>2021-11-18T21:44:32.065Z</time>
      </trkpt>
      <trkpt lat="47.465539" lon="7.795835">
        <ele>369.421097</ele>
        <time>2021-11-18T21:44:40.153Z</time>
      </trkpt>
      <trkpt lat="47.465548" lon="7.795165">
        <ele>368.938855</ele>
        <time>2021-11-18T21:44:45.750Z</time>
      </trkpt>
      <trkpt lat="47.465562" lon="7.794871">
        <ele>368.726763</ele>
        <time>2021-11-18T21:44:48.041Z</time>
      </trkpt>
      <trkpt lat="47.465644" lon="7.794171">
        <ele>368.215522</ele>
        <time>2021-11-18T21:44:54.013Z</time>
      </trkpt>
      <trkpt lat="47.465672" lon="7.794042">
        <ele>368.118023</ele>
        <time>2021-11-18T21:44:55.087Z</time>
      </trkpt>
      <trkpt lat="47.465837" lon="7.793287">
        <ele>367.772821</ele>
        <time>2021-11-18T21:45:01.956Z</time>
      </trkpt>
      <trkpt lat="47.465907" lon="7.792914">
        <ele>367.759612</ele>
        <time>2021-11-18T21:45:05.197Z</time>
      </trkpt>
      <trkpt lat="47.466109" lon="7.792088">
        <ele>367.729638</ele>
        <time>2021-11-18T21:45:14.554Z</time>
      </trkpt>
      <trkpt lat="47.466412" lon="7.790700">
        <ele>367.654869</ele>
        <time>2021-11-18T21:45:30.022Z</time>
      </trkpt>
      <trkpt lat="47.466432" lon="7.790596">
        <ele>367.644299</ele>
        <time>2021-11-18T21:45:31.884Z</time>
      </trkpt>
      <trkpt lat="47.466514" lon="7.790156">
        <ele>367.599681</ele>
        <time>2021-11-18T21:45:36.620Z</time>
      </trkpt>
      <trkpt lat="47.466603" lon="7.789598">
        <ele>367.543634</ele>
        <time>2021-11-18T21:45:42.746Z</time>
      </trkpt>
      <trkpt lat="47.466719" lon="7.788592">
        <ele>367.443870</ele>
        <time>2021-11-18T21:45:51.732Z</time>
      </trkpt>
      <trkpt lat="47.466734" lon="7.788459">
        <ele>367.415454</ele>
        <time>2021-11-18T21:45:53.157Z</time>
      </trkpt>
      <trkpt lat="47.466939" lon="7.786723">
        <ele>366.187723</ele>
        <time>2021-11-18T21:46:07.166Z</time>
      </trkpt>
      <trkpt lat="47.466949" lon="7.786640">
        <ele>366.128989</ele>
        <time>2021-11-18T21:46:07.861Z</time>
      </trkpt>
      <trkpt lat="47.466956" lon="7.786579">
        <ele>366.085884</ele>
        <time>2021-11-18T21:46:08.304Z</time>
      </trkpt>
      <trkpt lat="47.467094" lon="7.785323">
        <ele>365.191943</ele>
        <time>2021-11-18T21:46:19.278Z</time>
      </trkpt>
      <trkpt lat="47.467119" lon="7.785066">
        <ele>365.007514</ele>
        <time>2021-11-18T21:46:21.474Z</time>
      </trkpt>
      <trkpt lat="47.467092" lon="7.784779">
        <ele>364.801691</ele>
        <time>2021-11-18T21:46:23.899Z</time>
      </trkpt>
      <trkpt lat="47.467074" lon="7.784580">
        <ele>364.659080</ele>
        <time>2021-11-18T21:46:25.622Z</time>
      </trkpt>
      <trkpt lat="47.467114" lon="7.784127">
        <ele>364.334577</ele>
        <time>2021-11-18T21:46:29.367Z</time>
      </trkpt>
      <trkpt lat="47.467275" lon="7.783266">
        <ele>363.700037</ele>
        <time>2021-11-18T21:46:36.784Z</time>
      </trkpt>
      <trkpt lat="47.467308" lon="7.783125">
        <ele>363.444411</ele>
        <time>2021-11-18T21:46:37.918Z</time>
      </trkpt>
      <trkpt lat="47.467374" lon="7.782864">
        <ele>362.936786</ele>
        <time>2021-11-18T21:46:40.138Z</time>
      </trkpt>
      <trkpt lat="47.467411" lon="7.782717">
        <ele>362.651045</ele>
        <time>2021-11-18T21:46:41.335Z</time>
      </trkpt>
      <trkpt lat="47.467673" lon="7.781405">
        <ele>360.158959</ele>
        <time>2021-11-18T21:46:50.970Z</time>
      </trkpt>
      <trkpt lat="47.467837" lon="7.780341">
        <ele>357.938764</ele>
        <time>2021-11-18T21:46:58.234Z</time>
      </trkpt>
      <trkpt lat="47.467858" lon="7.780201">
        <ele>357.587239</ele>
        <time>2021-11-18T21:46:59.145Z</time>
      </trkpt>
      <trkpt lat="47.468054" lon="7.778980">
        <ele>354.511022</ele>
        <time>2021-11-18T21:47:07.484Z</time>
      </trkpt>
      <trkpt lat="47.468174" lon="7.778263">
        <ele>352.700409</ele>
        <time>2021-11-18T21:47:12.417Z</time>
      </trkpt>
      <trkpt lat="47.468193" lon="7.778169">
        <ele>352.459912</ele>
        <time>2021-11-18T21:47:13.048Z</time>
      </trkpt>
      <trkpt lat="47.468501" lon="7.776957">
        <ele>351.577530</ele>
        <time>2021-11-18T21:47:22.486Z</time>
      </trkpt>
      <trkpt lat="47.468600" lon="7.776294">
        <ele>351.169901</ele>
        <time>2021-11-18T21:47:28.219Z</time>
      </trkpt>
      <trkpt lat="47.468932" lon="7.773715">
        <ele>353.039643</ele>
        <time>2021-11-18T21:48:07.041Z</time>
      </trkpt>
      <trkpt lat="47.468986" lon="7.773126">
        <ele>353.771303</ele>
        <time>2021-11-18T21:48:17.419Z</time>
      </trkpt>
      <trkpt lat="47.468989" lon="7.772749">
        <ele>353.997110</ele>
        <time>2021-11-18T21:48:23.708Z</time>
      </trkpt>
      <trkpt lat="47.468967" lon="7.772389">
        <ele>353.994205</ele>
        <time>2021-11-18T21:48:28.260Z</time>
      </trkpt>
      <trkpt lat="47.468873" lon="7.771700">
        <ele>353.988556</ele>
        <time>2021-11-18T21:48:36.568Z</time>
      </trkpt>
      <trkpt lat="47.468826" lon="7.771365">
        <ele>353.985806</ele>
        <time>2021-11-18T21:48:39.730Z</time>
      </trkpt>
      <trkpt lat="47.468805" lon="7.771183">
        <ele>353.984323</ele>
        <time>2021-11-18T21:48:41.626Z</time>
      </trkpt>
      <trkpt lat="47.468811" lon="7.771044">
        <ele>353.983203</ele>
        <time>2021-11-18T21:48:42.739Z</time>
      </trkpt>
      <trkpt lat="47.468958" lon="7.770724">
        <ele>353.980094</ele>
        <time>2021-11-18T21:48:46.138Z</time>
      </trkpt>
      <trkpt lat="47.469109" lon="7.770388">
        <ele>353.895700</ele>
        <time>2021-11-18T21:48:49.094Z</time>
      </trkpt>
      <trkpt lat="47.469432" lon="7.769397">
        <ele>352.181742</ele>
        <time>2021-11-18T21:48:56.834Z</time>
      </trkpt>
      <trkpt lat="47.469647" lon="7.767934">
        <ele>349.849322</ele>
        <time>2021-11-18T21:49:07.416Z</time>
      </trkpt>
      <trkpt lat="47.469667" lon="7.767377">
        <ele>349.590529</ele>
        <time>2021-11-18T21:49:11.800Z</time>
      </trkpt>
      <trkpt lat="47.469610" lon="7.765476">
        <ele>348.749799</ele>
        <time>2021-11-18T21:49:29.764Z</time>
      </trkpt>
      <trkpt lat="47.469603" lon="7.765259">
        <ele>348.653612</ele>
        <time>2021-11-18T21:49:32.019Z</time>
      </trkpt>
      <trkpt lat="47.469581" lon="7.764381">
        <ele>348.235887</ele>
        <time>2021-11-18T21:49:41.175Z</time>
      </trkpt>
      <trkpt lat="47.469604" lon="7.763307">
        <ele>347.725007</ele>
        <time>2021-11-18T21:49:50.731Z</time>
      </trkpt>
      <trkpt lat="47.469611" lon="7.762993">
        <ele>347.575637</ele>
        <time>2021-11-18T21:49:53.166Z</time>
      </trkpt>
      <trkpt lat="47.469718" lon="7.761702">
        <ele>346.270889</ele>
        <time>2021-11-18T21:50:02.910Z</time>
      </trkpt>
      <trkpt lat="47.469785" lon="7.761099">
        <ele>345.521076</ele>
        <time>2021-11-18T21:50:07.413Z</time>
      </trkpt>
      <trkpt lat="47.469830" lon="7.760849">
        <ele>345.203636</ele>
        <time>2021-11-18T21:50:10.240Z</time>
      </trkpt>
      <trkpt lat="47.469935" lon="7.760325">
        <ele>344.533033</ele>
        <time>2021-11-18T21:50:16.189Z</time>
      </trkpt>
      <trkpt lat="47.469993" lon="7.760086">
        <ele>344.221455</ele>
        <time>2021-11-18T21:50:18.912Z</time>
      </trkpt>
      <trkpt lat="47.470048" lon="7.759861">
        <ele>343.980603</ele>
        <time>2021-11-18T21:50:21.517Z</time>
      </trkpt>
      <trkpt lat="47.470056" lon="7.759828">
        <ele>343.948998</ele>
        <time>2021-11-18T21:50:21.900Z</time>
      </trkpt>
      <trkpt lat="47.470081" lon="7.759739">
        <ele>343.862111</ele>
        <time>2021-11-18T21:50:23.041Z</time>
      </trkpt>
      <trkpt lat="47.470133" lon="7.759528">
        <ele>343.659644</ele>
        <time>2021-11-18T21:50:25.352Z</time>
      </trkpt>
      <trkpt lat="47.470169" lon="7.759405">
        <ele>343.538810</ele>
        <time>2021-11-18T21:50:26.804Z</time>
      </trkpt>
      <trkpt lat="47.470176" lon="7.759380">
        <ele>343.514415</ele>
        <time>2021-11-18T21:50:27.135Z</time>
      </trkpt>
      <trkpt lat="47.470270" lon="7.759101">
        <ele>343.233382</ele>
        <time>2021-11-18T21:50:30.485Z</time>
      </trkpt>
      <trkpt lat="47.470312" lon="7.758976">
        <ele>343.107539</ele>
        <time>2021-11-18T21:50:32.049Z</time>
      </trkpt>
      <trkpt lat="47.470419" lon="7.758788">
        <ele>342.885980</ele>
        <time>2021-11-18T21:50:34.998Z</time>
      </trkpt>
      <trkpt lat="47.470644" lon="7.758233">
        <ele>342.302559</ele>
        <time>2021-11-18T21:50:42.492Z</time>
      </trkpt>
      <trkpt lat="47.471191" lon="7.757108">
        <ele>341.126737</ele>
        <time>2021-11-18T21:50:58.992Z</time>
      </trkpt>
      <trkpt lat="47.471363" lon="7.756755">
        <ele>340.777181</ele>
        <time>2021-11-18T21:51:03.917Z</time>
      </trkpt>
      <trkpt lat="47.471870" lon="7.755689">
        <ele>339.730144</ele>
        <time>2021-11-18T21:51:18.521Z</time>
      </trkpt>
      <trkpt lat="47.471952" lon="7.755502">
        <ele>339.556795</ele>
        <time>2021-11-18T21:51:21.016Z</time>
      </trkpt>
      <trkpt lat="47.472173" lon="7.754994">
        <ele>339.141977</ele>
        <time>2021-11-18T21:51:27.994Z</time>
      </trkpt>
      <trkpt lat="47.472317" lon="7.754716">
        <ele>338.901485</ele>
        <time>2021-11-18T21:51:32.088Z</time>
      </trkpt>
      <trkpt lat="47.472425" lon="7.754488">
        <ele>338.710316</ele>
        <time>2021-11-18T21:51:35.353Z</time>
      </trkpt>
      <trkpt lat="47.472617" lon="7.754082">
        <ele>338.370084</ele>
        <time>2021-11-18T21:51:41.169Z</time>
      </trkpt>
      <trkpt lat="47.472651" lon="7.754010">
        <ele>338.309776</ele>
        <time>2021-11-18T21:51:42.210Z</time>
      </trkpt>
      <trkpt lat="47.473203" lon="7.752832">
        <ele>337.997225</ele>
        <time>2021-11-18T21:51:59.350Z</time>
      </trkpt>
      <trkpt lat="47.473427" lon="7.752386">
        <ele>338.201154</ele>
        <time>2021-11-18T21:52:06.227Z</time>
      </trkpt>
      <trkpt lat="47.474210" lon="7.750680">
        <ele>339.689971</ele>
        <time>2021-11-18T21:52:42.653Z</time>
      </trkpt>
      <trkpt lat="47.474380" lon="7.750216">
        <ele>340.533794</ele>
        <time>2021-11-18T21:52:55.227Z</time>
      </trkpt>
      <trkpt lat="47.474792" lon="7.749258">
        <ele>342.349197</ele>
        <time>2021-11-18T21:53:16.597Z</time>
      </trkpt>
      <trkpt lat="47.474890" lon="7.749015">
        <ele>342.801605</ele>
        <time>2021-11-18T21:53:21.309Z</time>
      </trkpt>
      <trkpt lat="47.474983" lon="7.748830">
        <ele>342.869717</ele>
        <time>2021-11-18T21:53:23.878Z</time>
      </trkpt>
      <trkpt lat="47.475083" lon="7.748631">
        <ele>342.588692</ele>
        <time>2021-11-18T21:53:27.670Z</time>
      </trkpt>
      <trkpt lat="47.475204" lon="7.748388">
        <ele>342.246639</ele>
        <time>2021-11-18T21:53:30.149Z</time>
      </trkpt>
      <trkpt lat="47.475491" lon="7.747847">
        <ele>341.467236</ele>
        <time>2021-11-18T21:53:35.869Z</time>
      </trkpt>
      <trkpt lat="47.475711" lon="7.747426">
        <ele>340.864157</ele>
        <time>2021-11-18T21:53:39.717Z</time>
      </trkpt>
      <trkpt lat="47.475970" lon="7.746912">
        <ele>340.137592</ele>
        <time>2021-11-18T21:53:43.996Z</time>
      </trkpt>
      <trkpt lat="47.476172" lon="7.746455">
        <ele>338.736504</ele>
        <time>2021-11-18T21:53:47.472Z</time>
      </trkpt>
      <trkpt lat="47.476298" lon="7.746210">
        <ele>337.794075</ele>
        <time>2021-11-18T21:53:49.413Z</time>
      </trkpt>
      <trkpt lat="47.476334" lon="7.746151">
        <ele>337.550752</ele>
        <time>2021-11-18T21:53:49.934Z</time>
      </trkpt>
      <trkpt lat="47.476362" lon="7.746087">
        <ele>337.317372</ele>
        <time>2021-11-18T21:53:50.408Z</time>
      </trkpt>
      <trkpt lat="47.476410" lon="7.746013">
        <ele>337.003399</ele>
        <time>2021-11-18T21:53:51.322Z</time>
      </trkpt>
      <trkpt lat="47.476621" lon="7.745424">
        <ele>334.962741</ele>
        <time>2021-11-18T21:53:57.291Z</time>
      </trkpt>
      <trkpt lat="47.476632" lon="7.745362">
        <ele>334.766516</ele>
        <time>2021-11-18T21:53:57.858Z</time>
      </trkpt>
      <trkpt lat="47.476639" lon="7.745298">
        <ele>334.568049</ele>
        <time>2021-11-18T21:53:58.493Z</time>
      </trkpt>
      <trkpt lat="47.476685" lon="7.744878">
        <ele>333.265570</ele>
        <time>2021-11-18T21:54:02.552Z</time>
      </trkpt>
      <trkpt lat="47.476683" lon="7.744848">
        <ele>333.173288</ele>
        <time>2021-11-18T21:54:02.802Z</time>
      </trkpt>
      <trkpt lat="47.476680" lon="7.744804">
        <ele>333.037911</ele>
        <time>2021-11-18T21:54:03.237Z</time>
      </trkpt>
      <trkpt lat="47.476675" lon="7.744747">
        <ele>332.861959</ele>
        <time>2021-11-18T21:54:03.747Z</time>
      </trkpt>
      <trkpt lat="47.476668" lon="7.744696">
        <ele>332.702651</ele>
        <time>2021-11-18T21:54:04.222Z</time>
      </trkpt>
      <trkpt lat="47.476787" lon="7.744651">
        <ele>332.146356</ele>
        <time>2021-11-18T21:54:05.996Z</time>
      </trkpt>
      <trkpt lat="47.477112" lon="7.744344">
        <ele>330.976726</ele>
        <time>2021-11-18T21:54:11.850Z</time>
      </trkpt>
      <trkpt lat="47.477121" lon="7.744301">
        <ele>330.894417</ele>
        <time>2021-11-18T21:54:12.329Z</time>
      </trkpt>
      <trkpt lat="47.477111" lon="7.744258">
        <ele>330.811268</ele>
        <time>2021-11-18T21:54:12.732Z</time>
      </trkpt>
      <trkpt lat="47.477026" lon="7.744002">
        <ele>330.289741</ele>
        <time>2021-11-18T21:54:15.638Z</time>
      </trkpt>
      <trkpt lat="47.477242" lon="7.743175">
        <ele>328.668600</ele>
        <time>2021-11-18T21:54:24.912Z</time>
      </trkpt>
      <trkpt lat="47.477301" lon="7.743083">
        <ele>328.436706</ele>
        <time>2021-11-18T21:54:26.090Z</time>
      </trkpt>
      <trkpt lat="47.477411" lon="7.743080">
        <ele>328.139069</ele>
        <time>2021-11-18T21:54:27.344Z</time>
      </trkpt>
      <trkpt lat="47.477597" lon="7.743066">
        <ele>327.635227</ele>
        <time>2021-11-18T21:54:29.256Z</time>
      </trkpt>
      <trkpt lat="47.477888" lon="7.743254">
        <ele>326.850425</ele>
        <time>2021-11-18T21:54:32.591Z</time>
      </trkpt>
      <trkpt lat="47.477941" lon="7.743432">
        <ele>326.633612</ele>
        <time>2021-11-18T21:54:33.887Z</time>
      </trkpt>
      <trkpt lat="47.477857" lon="7.743693">
        <ele>326.311381</ele>
        <time>2021-11-18T21:54:36.225Z</time>
      </trkpt>
      <trkpt lat="47.477839" lon="7.743743">
        <ele>326.248234</ele>
        <time>2021-11-18T21:54:36.709Z</time>
      </trkpt>
      <trkpt lat="47.477843" lon="7.743795">
        <ele>326.189896</ele>
        <time>2021-11-18T21:54:37.045Z</time>
      </trkpt>
      <trkpt lat="47.478032" lon="7.744050">
        <ele>325.768050</ele>
        <time>2021-11-18T21:54:39.918Z</time>
      </trkpt>
      <trkpt lat="47.478089" lon="7.744093">
        <ele>325.662530</ele>
        <time>2021-11-18T21:54:40.699Z</time>
      </trkpt>
      <trkpt lat="47.478130" lon="7.743970">
        <ele>325.509657</ele>
        <time>2021-11-18T21:54:41.606Z</time>
      </trkpt>
      <trkpt lat="47.478238" lon="7.743706">
        <ele>325.165677</ele>
        <time>2021-11-18T21:54:44.118Z</time>
      </trkpt>
      <trkpt lat="47.478326" lon="7.743537">
        <ele>324.927874</ele>
        <time>2021-11-18T21:54:45.822Z</time>
      </trkpt>
      <trkpt lat="47.478402" lon="7.743393">
        <ele>324.724220</ele>
        <time>2021-11-18T21:54:47.325Z</time>
      </trkpt>
      <trkpt lat="47.478481" lon="7.743277">
        <ele>324.540660</ele>
        <time>2021-11-18T21:54:48.761Z</time>
      </trkpt>
      <trkpt lat="47.478673" lon="7.743018">
        <ele>324.112156</ele>
        <time>2021-11-18T21:54:51.875Z</time>
      </trkpt>
      <trkpt lat="47.478747" lon="7.742916">
        <ele>324.009398</ele>
        <time>2021-11-18T21:54:53.154Z</time>
      </trkpt>
      <trkpt lat="47.478848" lon="7.742778">
        <ele>324.048629</ele>
        <time>2021-11-18T21:54:54.783Z</time>
      </trkpt>
      <trkpt lat="47.478895" lon="7.742714">
        <ele>324.066857</ele>
        <time>2021-11-18T21:54:55.547Z</time>
      </trkpt>
      <trkpt lat="47.478949" lon="7.742644">
        <ele>324.087344</ele>
        <time>2021-11-18T21:54:56.472Z</time>
      </trkpt>
      <trkpt lat="47.479105" lon="7.742414">
        <ele>324.150188</ele>
        <time>2021-11-18T21:54:59.284Z</time>
      </trkpt>
      <trkpt lat="47.479130" lon="7.742380">
        <ele>324.159878</ele>
        <time>2021-11-18T21:54:59.680Z</time>
      </trkpt>
      <trkpt lat="47.479629" lon="7.741696">
        <ele>324.353989</ele>
        <time>2021-11-18T21:55:10.906Z</time>
      </trkpt>
      <trkpt lat="47.479843" lon="7.741440">
        <ele>324.432518</ele>
        <time>2021-11-18T21:55:15.807Z</time>
      </trkpt>
      <trkpt lat="47.479963" lon="7.741350">
        <ele>324.470910</ele>
        <time>2021-11-18T21:55:19.152Z</time>
      </trkpt>
      <trkpt lat="47.480104" lon="7.741241">
        <ele>324.537580</ele>
        <time>2021-11-18T21:55:21.894Z</time>
      </trkpt>
      <trkpt lat="47.480294" lon="7.741119">
        <ele>325.003596</ele>
        <time>2021-11-18T21:55:26.747Z</time>
      </trkpt>
      <trkpt lat="47.480539" lon="7.740961">
        <ele>325.604927</ele>
        <time>2021-11-18T21:55:32.166Z</time>
      </trkpt>
      <trkpt lat="47.480591" lon="7.740959">
        <ele>325.721966</ele>
        <time>2021-11-18T21:55:33.969Z</time>
      </trkpt>
      <trkpt lat="47.480603" lon="7.740901">
        <ele>325.814203</ele>
        <time>2021-11-18T21:55:35.074Z</time>
      </trkpt>
      <trkpt lat="47.480676" lon="7.740778">
        <ele>326.063122</ele>
        <time>2021-11-18T21:55:37.087Z</time>
      </trkpt>
      <trkpt lat="47.480792" lon="7.740633">
        <ele>326.404789</ele>
        <time>2021-11-18T21:55:40.217Z</time>
      </trkpt>
      <trkpt lat="47.480807" lon="7.740612">
        <ele>326.451252</ele>
        <time>2021-11-18T21:55:41.335Z</time>
      </trkpt>
      <trkpt lat="47.481331" lon="7.739747">
        <ele>328.217641</ele>
        <time>2021-11-18T21:56:01.016Z</time>
      </trkpt>
      <trkpt lat="47.481583" lon="7.739332">
        <ele>328.985464</ele>
        <time>2021-11-18T21:56:11.202Z</time>
      </trkpt>
      <trkpt lat="47.481699" lon="7.739130">
        <ele>329.324366</ele>
        <time>2021-11-18T21:56:15.506Z</time>
      </trkpt>
      <trkpt lat="47.481926" lon="7.738747">
        <ele>329.975664</ele>
        <time>2021-11-18T21:56:24.669Z</time>
      </trkpt>
      <trkpt lat="47.482019" lon="7.738588">
        <ele>330.244507</ele>
        <time>2021-11-18T21:56:28.055Z</time>
      </trkpt>
      <trkpt lat="47.482167" lon="7.738311">
        <ele>330.695959</ele>
        <time>2021-11-18T21:56:33.330Z</time>
      </trkpt>
      <trkpt lat="47.482267" lon="7.738104">
        <ele>331.021271</ele>
        <time>2021-11-18T21:56:37.240Z</time>
      </trkpt>
      <trkpt lat="47.482290" lon="7.738037">
        <ele>331.117347</ele>
        <time>2021-11-18T21:56:38.526Z</time>
      </trkpt>
      <trkpt lat="47.482367" lon="7.737832">
        <ele>331.417199</ele>
        <time>2021-11-18T21:56:41.390Z</time>
      </trkpt>
      <trkpt lat="47.482451" lon="7.737574">
        <ele>331.783333</ele>
        <time>2021-11-18T21:56:45.294Z</time>
      </trkpt>
      <trkpt lat="47.482503" lon="7.737397">
        <ele>331.922437</ele>
        <time>2021-11-18T21:56:46.997Z</time>
      </trkpt>
      <trkpt lat="47.482585" lon="7.737017">
        <ele>331.616816</ele>
        <time>2021-11-18T21:56:51.463Z</time>
      </trkpt>
      <trkpt lat="47.482656" lon="7.736597">
        <ele>331.285116</ele>
        <time>2021-11-18T21:56:55.462Z</time>
      </trkpt>
      <trkpt lat="47.482729" lon="7.735959">
        <ele>330.789353</ele>
        <time>2021-11-18T21:57:00.743Z</time>
      </trkpt>
      <trkpt lat="47.482759" lon="7.735794">
        <ele>330.658443</ele>
        <time>2021-11-18T21:57:02.086Z</time>
      </trkpt>
      <trkpt lat="47.482798" lon="7.735712">
        <ele>330.581620</ele>
        <time>2021-11-18T21:57:02.805Z</time>
      </trkpt>
      <trkpt lat="47.482843" lon="7.735675">
        <ele>330.523257</ele>
        <time>2021-11-18T21:57:03.388Z</time>
      </trkpt>
      <trkpt lat="47.482931" lon="7.735630">
        <ele>330.417704</ele>
        <time>2021-11-18T21:57:04.509Z</time>
      </trkpt>
      <trkpt lat="47.482953" lon="7.735671">
        <ele>330.377595</ele>
        <time>2021-11-18T21:57:05.013Z</time>
      </trkpt>
      <trkpt lat="47.483022" lon="7.735822">
        <ele>330.237942</ele>
        <time>2021-11-18T21:57:07.015Z</time>
      </trkpt>
      <trkpt lat="47.483095" lon="7.735982">
        <ele>330.090037</ele>
        <time>2021-11-18T21:57:08.991Z</time>
      </trkpt>
      <trkpt lat="47.483352" lon="7.736146">
        <ele>329.373282</ele>
        <time>2021-11-18T21:57:13.259Z</time>
      </trkpt>
      <trkpt lat="47.483356" lon="7.736149">
        <ele>329.354744</ele>
        <time>2021-11-18T21:57:13.310Z</time>
      </trkpt>
      <trkpt lat="47.483599" lon="7.736235">
        <ele>328.321892</ele>
        <time>2021-11-18T21:57:16.967Z</time>
      </trkpt>
      <trkpt lat="47.483778" lon="7.736282">
        <ele>327.570377</ele>
        <time>2021-11-18T21:57:19.572Z</time>
      </trkpt>
      <trkpt lat="47.483917" lon="7.736315">
        <ele>326.988426</ele>
        <time>2021-11-18T21:57:21.557Z</time>
      </trkpt>
      <trkpt lat="47.484114" lon="7.736364">
        <ele>326.162637</ele>
        <time>2021-11-18T21:57:23.497Z</time>
      </trkpt>
      <trkpt lat="47.484515" lon="7.736477">
        <ele>324.475181</ele>
        <time>2021-11-18T21:57:27.364Z</time>
      </trkpt>
      <trkpt lat="47.484700" lon="7.736511">
        <ele>323.704547</ele>
        <time>2021-11-18T21:57:29.115Z</time>
      </trkpt>
      <trkpt lat="47.484870" lon="7.736533">
        <ele>322.999113</ele>
        <time>2021-11-18T21:57:30.688Z</time>
      </trkpt>
      <trkpt lat="47.484905" lon="7.736536">
        <ele>322.854187</ele>
        <time>2021-11-18T21:57:31.034Z</time>
      </trkpt>
      <trkpt lat="47.485005" lon="7.736543">
        <ele>322.439975</ele>
        <time>2021-11-18T21:57:31.985Z</time>
      </trkpt>
      <trkpt lat="47.485052" lon="7.736552">
        <ele>322.242572</ele>
        <time>2021-11-18T21:57:32.434Z</time>
      </trkpt>
      <trkpt lat="47.485143" lon="7.736599">
        <ele>321.841103</ele>
        <time>2021-11-18T21:57:33.305Z</time>
      </trkpt>
      <trkpt lat="47.485182" lon="7.736627">
        <ele>321.660544</ele>
        <time>2021-11-18T21:57:33.711Z</time>
      </trkpt>
      <trkpt lat="47.485212" lon="7.736657">
        <ele>321.509727</ele>
        <time>2021-11-18T21:57:34.074Z</time>
      </trkpt>
      <trkpt lat="47.485357" lon="7.736813">
        <ele>320.762996</ele>
        <time>2021-11-18T21:57:35.796Z</time>
      </trkpt>
      <trkpt lat="47.485412" lon="7.736871">
        <ele>320.481682</ele>
        <time>2021-11-18T21:57:36.401Z</time>
      </trkpt>
      <trkpt lat="47.485482" lon="7.736917">
        <ele>320.162651</ele>
        <time>2021-11-18T21:57:37.131Z</time>
      </trkpt>
      <trkpt lat="47.485564" lon="7.736965">
        <ele>319.795341</ele>
        <time>2021-11-18T21:57:37.989Z</time>
      </trkpt>
      <trkpt lat="47.485679" lon="7.737020">
        <ele>319.291932</ele>
        <time>2021-11-18T21:57:39.160Z</time>
      </trkpt>
      <trkpt lat="47.485750" lon="7.737070">
        <ele>318.964412</ele>
        <time>2021-11-18T21:57:39.875Z</time>
      </trkpt>
      <trkpt lat="47.485806" lon="7.737111">
        <ele>318.704165</ele>
        <time>2021-11-18T21:57:40.469Z</time>
      </trkpt>
      <trkpt lat="47.485875" lon="7.737156">
        <ele>318.390082</ele>
        <time>2021-11-18T21:57:41.234Z</time>
      </trkpt>
      <trkpt lat="47.485976" lon="7.737217">
        <ele>317.935693</ele>
        <time>2021-11-18T21:57:42.290Z</time>
      </trkpt>
      <trkpt lat="47.486087" lon="7.737329">
        <ele>317.376089</ele>
        <time>2021-11-18T21:57:43.566Z</time>
      </trkpt>
      <trkpt lat="47.486287" lon="7.737642">
        <ele>316.163565</ele>
        <time>2021-11-18T21:57:46.433Z</time>
      </trkpt>
      <trkpt lat="47.486314" lon="7.737686">
        <ele>315.996271</ele>
        <time>2021-11-18T21:57:46.805Z</time>
      </trkpt>
      <trkpt lat="47.486354" lon="7.737753">
        <ele>315.744623</ele>
        <time>2021-11-18T21:57:47.404Z</time>
      </trkpt>
      <trkpt lat="47.486384" lon="7.737805">
        <ele>315.552169</ele>
        <time>2021-11-18T21:57:47.924Z</time>
      </trkpt>
      <trkpt lat="47.486495" lon="7.737981">
        <ele>314.976416</ele>
        <time>2021-11-18T21:57:49.729Z</time>
      </trkpt>
      <trkpt lat="47.486621" lon="7.738169">
        <ele>314.853895</ele>
        <time>2021-11-18T21:57:51.540Z</time>
      </trkpt>
      <trkpt lat="47.486676" lon="7.738293">
        <ele>314.785262</ele>
        <time>2021-11-18T21:57:52.966Z</time>
      </trkpt>
      <trkpt lat="47.486689" lon="7.738358">
        <ele>314.753895</ele>
        <time>2021-11-18T21:57:53.449Z</time>
      </trkpt>
      <trkpt lat="47.486827" lon="7.738319">
        <ele>314.657693</ele>
        <time>2021-11-18T21:57:54.939Z</time>
      </trkpt>
      <trkpt lat="47.487288" lon="7.738117">
        <ele>314.328479</ele>
        <time>2021-11-18T21:58:01.426Z</time>
      </trkpt>
      <trkpt lat="47.487552" lon="7.737858">
        <ele>314.111590</ele>
        <time>2021-11-18T21:58:06.362Z</time>
      </trkpt>
      <trkpt lat="47.487621" lon="7.737779">
        <ele>314.051852</ele>
        <time>2021-11-18T21:58:08.360Z</time>
      </trkpt>
      <trkpt lat="47.487864" lon="7.737500">
        <ele>313.841252</ele>
        <time>2021-11-18T21:58:13.695Z</time>
      </trkpt>
      <trkpt lat="47.488046" lon="7.737266">
        <ele>313.704795</ele>
        <time>2021-11-18T21:58:18.204Z</time>
      </trkpt>
      <trkpt lat="47.488606" lon="7.735964">
        <ele>313.221206</ele>
        <time>2021-11-18T21:58:33.206Z</time>
      </trkpt>
      <trkpt lat="47.488804" lon="7.735382">
        <ele>313.017040</ele>
        <time>2021-11-18T21:58:38.364Z</time>
      </trkpt>
      <trkpt lat="47.488949" lon="7.734979">
        <ele>312.707894</ele>
        <time>2021-11-18T21:58:41.929Z</time>
      </trkpt>
      <trkpt lat="47.489032" lon="7.734791">
        <ele>312.431988</ele>
        <time>2021-11-18T21:58:43.606Z</time>
      </trkpt>
      <trkpt lat="47.489918" lon="7.732395">
        <ele>309.193787</ele>
        <time>2021-11-18T21:59:04.009Z</time>
      </trkpt>
      <trkpt lat="47.489972" lon="7.732312">
        <ele>309.080690</ele>
        <time>2021-11-18T21:59:04.824Z</time>
      </trkpt>
      <trkpt lat="47.491123" lon="7.730521">
        <ele>306.717520</ele>
        <time>2021-11-18T21:59:24.513Z</time>
      </trkpt>
      <trkpt lat="47.491189" lon="7.730425">
        <ele>306.604616</ele>
        <time>2021-11-18T21:59:25.669Z</time>
      </trkpt>
      <trkpt lat="47.491229" lon="7.730369">
        <ele>306.537438</ele>
        <time>2021-11-18T21:59:26.357Z</time>
      </trkpt>
      <trkpt lat="47.491274" lon="7.730304">
        <ele>306.460720</ele>
        <time>2021-11-18T21:59:27.144Z</time>
      </trkpt>
      <trkpt lat="47.491352" lon="7.730195">
        <ele>306.329836</ele>
        <time>2021-11-18T21:59:28.369Z</time>
      </trkpt>
      <trkpt lat="47.491749" lon="7.729641">
        <ele>305.664113</ele>
        <time>2021-11-18T21:59:34.926Z</time>
      </trkpt>
      <trkpt lat="47.491764" lon="7.729620">
        <ele>305.638921</ele>
        <time>2021-11-18T21:59:35.118Z</time>
      </trkpt>
      <trkpt lat="47.492018" lon="7.729265">
        <ele>305.212682</ele>
        <time>2021-11-18T21:59:39.310Z</time>
      </trkpt>
      <trkpt lat="47.492160" lon="7.729079">
        <ele>304.981326</ele>
        <time>2021-11-18T21:59:41.485Z</time>
      </trkpt>
      <trkpt lat="47.492253" lon="7.728955">
        <ele>304.833943</ele>
        <time>2021-11-18T21:59:43.025Z</time>
      </trkpt>
      <trkpt lat="47.492640" lon="7.728394">
        <ele>304.315590</ele>
        <time>2021-11-18T21:59:49.526Z</time>
      </trkpt>
      <trkpt lat="47.493051" lon="7.727844">
        <ele>303.785387</ele>
        <time>2021-11-18T21:59:56.271Z</time>
      </trkpt>
      <trkpt lat="47.493304" lon="7.727627">
        <ele>303.505582</ele>
        <time>2021-11-18T21:59:59.843Z</time>
      </trkpt>
      <trkpt lat="47.493736" lon="7.727441">
        <ele>303.110491</ele>
        <time>2021-11-18T22:00:05.639Z</time>
      </trkpt>
      <trkpt lat="47.493928" lon="7.727382">
        <ele>303.039024</ele>
        <time>2021-11-18T22:00:08.218Z</time>
      </trkpt>
      <trkpt lat="47.495388" lon="7.727405">
        <ele>302.506897</ele>
        <time>2021-11-18T22:00:28.777Z</time>
      </trkpt>
      <trkpt lat="47.495736" lon="7.727409">
        <ele>302.306066</ele>
        <time>2021-11-18T22:00:33.383Z</time>
      </trkpt>
      <trkpt lat="47.495777" lon="7.727410">
        <ele>302.279685</ele>
        <time>2021-11-18T22:00:33.935Z</time>
      </trkpt>
      <trkpt lat="47.495921" lon="7.727411">
        <ele>302.187042</ele>
        <time>2021-11-18T22:00:35.750Z</time>
      </trkpt>
      <trkpt lat="47.496039" lon="7.727411">
        <ele>302.111127</ele>
        <time>2021-11-18T22:00:37.318Z</time>
      </trkpt>
      <trkpt lat="47.496162" lon="7.727414">
        <ele>302.031985</ele>
        <time>2021-11-18T22:00:38.908Z</time>
      </trkpt>
      <trkpt lat="47.496367" lon="7.727420">
        <ele>301.900073</ele>
        <time>2021-11-18T22:00:41.497Z</time>
      </trkpt>
      <trkpt lat="47.496689" lon="7.727441">
        <ele>301.692714</ele>
        <time>2021-11-18T22:00:45.539Z</time>
      </trkpt>
      <trkpt lat="47.498171" lon="7.727736">
        <ele>300.828978</ele>
        <time>2021-11-18T22:01:04.667Z</time>
      </trkpt>
      <trkpt lat="47.499222" lon="7.727694">
        <ele>300.248311</ele>
        <time>2021-11-18T22:01:19.029Z</time>
      </trkpt>
      <trkpt lat="47.500808" lon="7.727366">
        <ele>299.226648</ele>
        <time>2021-11-18T22:01:40.516Z</time>
      </trkpt>
      <trkpt lat="47.501683" lon="7.727114">
        <ele>297.672312</ele>
        <time>2021-11-18T22:01:50.249Z</time>
      </trkpt>
      <trkpt lat="47.502070" lon="7.727002">
        <ele>296.970017</ele>
        <time>2021-11-18T22:01:54.552Z</time>
      </trkpt>
      <trkpt lat="47.502089" lon="7.726997">
        <ele>296.935648</ele>
        <time>2021-11-18T22:01:54.777Z</time>
      </trkpt>
      <trkpt lat="47.502204" lon="7.726964">
        <ele>296.727020</ele>
        <time>2021-11-18T22:01:56.091Z</time>
      </trkpt>
      <trkpt lat="47.502204" lon="7.726964">
        <ele>296.727020</ele>
        <time>2021-11-18T22:01:56.301Z</time>
      </trkpt>
      <trkpt lat="47.502204" lon="7.726964">
        <ele>296.727020</ele>
        <time>2021-11-18T22:01:56.382Z</time>
      </trkpt>
      <trkpt lat="47.502189" lon="7.726824">
        <ele>296.556470</ele>
        <time>2021-11-18T22:01:57.361Z</time>
      </trkpt>
      <trkpt lat="47.502177" lon="7.726706">
        <ele>296.412896</ele>
        <time>2021-11-18T22:01:58.344Z</time>
      </trkpt>
      <trkpt lat="47.502122" lon="7.726303">
        <ele>295.969849</ele>
        <time>2021-11-18T22:02:01.393Z</time>
      </trkpt>
      <trkpt lat="47.502115" lon="7.726246">
        <ele>295.941755</ele>
        <time>2021-11-18T22:02:02.060Z</time>
      </trkpt>
      <trkpt lat="47.502048" lon="7.725782">
        <ele>295.711665</ele>
        <time>2021-11-18T22:02:05.658Z</time>
      </trkpt>
      <trkpt lat="47.502031" lon="7.725427">
        <ele>295.539083</ele>
        <time>2021-11-18T22:02:08.680Z</time>
      </trkpt>
      <trkpt lat="47.502031" lon="7.725298">
        <ele>295.476527</ele>
        <time>2021-11-18T22:02:09.650Z</time>
      </trkpt>
      <trkpt lat="47.502029" lon="7.725074">
        <ele>295.367893</ele>
        <time>2021-11-18T22:02:11.574Z</time>
      </trkpt>
      <trkpt lat="47.502040" lon="7.724902">
        <ele>295.284112</ele>
        <time>2021-11-18T22:02:13.128Z</time>
      </trkpt>
      <trkpt lat="47.502055" lon="7.724669">
        <ele>295.170611</ele>
        <time>2021-11-18T22:02:15.071Z</time>
      </trkpt>
      <trkpt lat="47.502172" lon="7.724685">
        <ele>295.086269</ele>
        <time>2021-11-18T22:02:17.156Z</time>
      </trkpt>
      <trkpt lat="47.502179" lon="7.724686">
        <ele>295.081221</ele>
        <time>2021-11-18T22:02:17.289Z</time>
      </trkpt>
      <trkpt lat="47.502205" lon="7.724690">
        <ele>295.062457</ele>
        <time>2021-11-18T22:02:17.760Z</time>
      </trkpt>
      <trkpt lat="47.502283" lon="7.724703">
        <ele>295.006114</ele>
        <time>2021-11-18T22:02:19.233Z</time>
      </trkpt>
      <trkpt lat="47.502295" lon="7.724702">
        <ele>294.997486</ele>
        <time>2021-11-18T22:02:19.478Z</time>
      </trkpt>
      <trkpt lat="47.502584" lon="7.724671">
        <ele>294.789493</ele>
        <time>2021-11-18T22:02:25.842Z</time>
      </trkpt>
      <trkpt lat="47.502794" lon="7.724635">
        <ele>294.666956</ele>
        <time>2021-11-18T22:02:30.659Z</time>
      </trkpt>
      <trkpt lat="47.503201" lon="7.724541">
        <ele>294.485121</ele>
        <time>2021-11-18T22:02:40.129Z</time>
      </trkpt>
      <trkpt lat="47.503333" lon="7.724502">
        <ele>294.425703</ele>
        <time>2021-11-18T22:02:43.009Z</time>
      </trkpt>
      <trkpt lat="47.503457" lon="7.724469">
        <ele>294.370088</ele>
        <time>2021-11-18T22:02:45.652Z</time>
      </trkpt>
      <trkpt lat="47.503494" lon="7.724462">
        <ele>294.353623</ele>
        <time>2021-11-18T22:02:46.453Z</time>
      </trkpt>
      <trkpt lat="47.503945" lon="7.724377">
        <ele>294.152931</ele>
        <time>2021-11-18T22:02:54.692Z</time>
      </trkpt>
      <trkpt lat="47.504048" lon="7.724357">
        <ele>294.107074</ele>
        <time>2021-11-18T22:02:56.408Z</time>
      </trkpt>
      <trkpt lat="47.504396" lon="7.724291">
        <ele>293.952201</ele>
        <time>2021-11-18T22:03:02.321Z</time>
      </trkpt>
      <trkpt lat="47.504514" lon="7.724269">
        <ele>293.826872</ele>
        <time>2021-11-18T22:03:04.340Z</time>
      </trkpt>
      <trkpt lat="47.504610" lon="7.724250">
        <ele>293.627937</ele>
        <time>2021-11-18T22:03:06.005Z</time>
      </trkpt>
      <trkpt lat="47.504856" lon="7.724220">
        <ele>293.120950</ele>
        <time>2021-11-18T22:03:09.915Z</time>
      </trkpt>
      <trkpt lat="47.505012" lon="7.724231">
        <ele>292.800168</ele>
        <time>2021-11-18T22:03:12.470Z</time>
      </trkpt>
      <trkpt lat="47.505073" lon="7.724246">
        <ele>292.673160</ele>
        <time>2021-11-18T22:03:13.362Z</time>
      </trkpt>
      <trkpt lat="47.505161" lon="7.724267">
        <ele>292.490077</ele>
        <time>2021-11-18T22:03:14.782Z</time>
      </trkpt>
      <trkpt lat="47.505365" lon="7.724317">
        <ele>292.065364</ele>
        <time>2021-11-18T22:03:18.135Z</time>
      </trkpt>
      <trkpt lat="47.505646" lon="7.724350">
        <ele>291.486386</ele>
        <time>2021-11-18T22:03:22.434Z</time>
      </trkpt>
      <trkpt lat="47.505783" lon="7.724344">
        <ele>291.204870</ele>
        <time>2021-11-18T22:03:24.469Z</time>
      </trkpt>
      <trkpt lat="47.505851" lon="7.724341">
        <ele>291.065139</ele>
        <time>2021-11-18T22:03:25.550Z</time>
      </trkpt>
      <trkpt lat="47.505891" lon="7.724339">
        <ele>290.982933</ele>
        <time>2021-11-18T22:03:26.146Z</time>
      </trkpt>
      <trkpt lat="47.505930" lon="7.724337">
        <ele>290.902780</ele>
        <time>2021-11-18T22:03:26.749Z</time>
      </trkpt>
      <trkpt lat="47.506453" lon="7.724284">
        <ele>289.860074</ele>
        <time>2021-11-18T22:03:34.717Z</time>
      </trkpt>
      <trkpt lat="47.506607" lon="7.724268">
        <ele>289.570014</ele>
        <time>2021-11-18T22:03:37.034Z</time>
      </trkpt>
      <trkpt lat="47.506921" lon="7.724257">
        <ele>288.979878</ele>
        <time>2021-11-18T22:03:42.031Z</time>
      </trkpt>
      <trkpt lat="47.506945" lon="7.724261">
        <ele>288.934500</ele>
        <time>2021-11-18T22:03:42.411Z</time>
      </trkpt>
      <trkpt lat="47.507064" lon="7.724278">
        <ele>288.709874</ele>
        <time>2021-11-18T22:03:44.287Z</time>
      </trkpt>
      <trkpt lat="47.507444" lon="7.724343">
        <ele>287.991147</ele>
        <time>2021-11-18T22:03:50.411Z</time>
      </trkpt>
      <trkpt lat="47.507810" lon="7.724326">
        <ele>287.303136</ele>
        <time>2021-11-18T22:03:56.393Z</time>
      </trkpt>
      <trkpt lat="47.508175" lon="7.724311">
        <ele>286.741967</ele>
        <time>2021-11-18T22:04:02.433Z</time>
      </trkpt>
      <trkpt lat="47.508425" lon="7.724317">
        <ele>286.528653</ele>
        <time>2021-11-18T22:04:06.658Z</time>
      </trkpt>
      <trkpt lat="47.508629" lon="7.724301">
        <ele>286.354368</ele>
        <time>2021-11-18T22:04:10.027Z</time>
      </trkpt>
      <trkpt lat="47.508823" lon="7.724215">
        <ele>286.181597</ele>
        <time>2021-11-18T22:04:12.510Z</time>
      </trkpt>
      <trkpt lat="47.509150" lon="7.724070">
        <ele>285.890374</ele>
        <time>2021-11-18T22:04:16.684Z</time>
      </trkpt>
      <trkpt lat="47.509672" lon="7.723906">
        <ele>285.435116</ele>
        <time>2021-11-18T22:04:23.608Z</time>
      </trkpt>
      <trkpt lat="47.509849" lon="7.723882">
        <ele>285.312959</ele>
        <time>2021-11-18T22:04:27.211Z</time>
      </trkpt>
      <trkpt lat="47.510349" lon="7.724011">
        <ele>285.338100</ele>
        <time>2021-11-18T22:04:38.179Z</time>
      </trkpt>
      <trkpt lat="47.510952" lon="7.724263">
        <ele>285.369137</ele>
        <time>2021-11-18T22:04:52.239Z</time>
      </trkpt>
      <trkpt lat="47.511606" lon="7.724590">
        <ele>285.464118</ele>
        <time>2021-11-18T22:05:04.709Z</time>
      </trkpt>
      <trkpt lat="47.511791" lon="7.724622">
        <ele>285.667198</ele>
        <time>2021-11-18T22:05:08.278Z</time>
      </trkpt>
      <trkpt lat="47.511979" lon="7.724618">
        <ele>285.872198</ele>
        <time>2021-11-18T22:05:12.121Z</time>
      </trkpt>
      <trkpt lat="47.512214" lon="7.724543">
        <ele>286.134308</ele>
        <time>2021-11-18T22:05:18.189Z</time>
      </trkpt>
      <trkpt lat="47.512277" lon="7.724501">
        <ele>286.209640</ele>
        <time>2021-11-18T22:05:19.289Z</time>
      </trkpt>
      <trkpt lat="47.512857" lon="7.723931">
        <ele>286.968660</ele>
        <time>2021-11-18T22:05:40.045Z</time>
      </trkpt>
      <trkpt lat="47.512888" lon="7.724074">
        <ele>287.079260</ele>
        <time>2021-11-18T22:05:42.176Z</time>
      </trkpt>
      <trkpt lat="47.512910" lon="7.724174">
        <ele>287.156710</ele>
        <time>2021-11-18T22:05:44.111Z</time>
      </trkpt>
      <trkpt lat="47.512976" lon="7.724418">
        <ele>287.350272</ele>
        <time>2021-11-18T22:05:47.704Z</time>
      </trkpt>
      <trkpt lat="47.513078" lon="7.724821">
        <ele>287.574810</ele>
        <time>2021-11-18T22:05:53.538Z</time>
      </trkpt>
      <trkpt lat="47.513150" lon="7.725105">
        <ele>287.730679</ele>
        <time>2021-11-18T22:05:55.974Z</time>
      </trkpt>
      <trkpt lat="47.513193" lon="7.725244">
        <ele>287.809237</ele>
        <time>2021-11-18T22:05:58.730Z</time>
      </trkpt>
      <trkpt lat="47.513232" lon="7.725318">
        <ele>287.857466</ele>
        <time>2021-11-18T22:05:59.957Z</time>
      </trkpt>
      <trkpt lat="47.513538" lon="7.725582">
        <ele>288.126898</ele>
        <time>2021-11-18T22:06:07.049Z</time>
      </trkpt>
      <trkpt lat="47.513681" lon="7.725617">
        <ele>288.237163</ele>
        <time>2021-11-18T22:06:09.539Z</time>
      </trkpt>
      <trkpt lat="47.514078" lon="7.725549">
        <ele>288.541199</ele>
        <time>2021-11-18T22:06:17.641Z</time>
      </trkpt>
      <trkpt lat="47.514143" lon="7.725538">
        <ele>288.590970</ele>
        <time>2021-11-18T22:06:18.891Z</time>
      </trkpt>
      <trkpt lat="47.515140" lon="7.725368">
        <ele>287.237659</ele>
        <time>2021-11-18T22:06:30.938Z</time>
      </trkpt>
      <trkpt lat="47.515697" lon="7.725255">
        <ele>286.215861</ele>
        <time>2021-11-18T22:06:36.670Z</time>
      </trkpt>
      <trkpt lat="47.515959" lon="7.725102">
        <ele>285.703982</ele>
        <time>2021-11-18T22:06:39.653Z</time>
      </trkpt>
      <trkpt lat="47.516416" lon="7.724623">
        <ele>284.554496</ele>
        <time>2021-11-18T22:06:45.610Z</time>
      </trkpt>
      <trkpt lat="47.517269" lon="7.723372">
        <ele>282.000953</ele>
        <time>2021-11-18T22:06:58.673Z</time>
      </trkpt>
      <trkpt lat="47.517885" lon="7.722793">
        <ele>280.973799</ele>
        <time>2021-11-18T22:07:07.007Z</time>
      </trkpt>
      <trkpt lat="47.518038" lon="7.722700">
        <ele>280.777624</ele>
        <time>2021-11-18T22:07:08.887Z</time>
      </trkpt>
      <trkpt lat="47.518237" lon="7.722578">
        <ele>280.522151</ele>
        <time>2021-11-18T22:07:11.505Z</time>
      </trkpt>
      <trkpt lat="47.519305" lon="7.722165">
        <ele>279.623447</ele>
        <time>2021-11-18T22:07:25.105Z</time>
      </trkpt>
      <trkpt lat="47.520760" lon="7.721667">
        <ele>280.368200</ele>
        <time>2021-11-18T22:07:49.103Z</time>
      </trkpt>
      <trkpt lat="47.521121" lon="7.721544">
        <ele>281.946089</ele>
        <time>2021-11-18T22:07:58.544Z</time>
      </trkpt>
      <trkpt lat="47.521455" lon="7.721426">
        <ele>283.666261</ele>
        <time>2021-11-18T22:08:09.715Z</time>
      </trkpt>
      <trkpt lat="47.521722" lon="7.721283">
        <ele>285.088625</ele>
        <time>2021-11-18T22:08:19.314Z</time>
      </trkpt>
      <trkpt lat="47.521846" lon="7.721211">
        <ele>285.755865</ele>
        <time>2021-11-18T22:08:25.589Z</time>
      </trkpt>
      <trkpt lat="47.521984" lon="7.721168">
        <ele>286.462330</ele>
        <time>2021-11-18T22:08:30.343Z</time>
      </trkpt>
      <trkpt lat="47.522249" lon="7.721165">
        <ele>287.789915</ele>
        <time>2021-11-18T22:08:42.399Z</time>
      </trkpt>
      <trkpt lat="47.522498" lon="7.721207">
        <ele>289.045373</ele>
        <time>2021-11-18T22:08:53.037Z</time>
      </trkpt>
      <trkpt lat="47.522682" lon="7.721170">
        <ele>290.030457</ele>
        <time>2021-11-18T22:09:00.488Z</time>
      </trkpt>
      <trkpt lat="47.522888" lon="7.721170">
        <ele>291.162423</ele>
        <time>2021-11-18T22:09:10.221Z</time>
      </trkpt>
      <trkpt lat="47.523111" lon="7.721224">
        <ele>292.404078</ele>
        <time>2021-11-18T22:09:18.586Z</time>
      </trkpt>
      <trkpt lat="47.523300" lon="7.721328">
        <ele>293.512012</ele>
        <time>2021-11-18T22:09:27.910Z</time>
      </trkpt>
      <trkpt lat="47.523671" lon="7.721634">
        <ele>295.845536</ele>
        <time>2021-11-18T22:09:43.827Z</time>
      </trkpt>
      <trkpt lat="47.523902" lon="7.721670">
        <ele>297.121886</ele>
        <time>2021-11-18T22:09:52.642Z</time>
      </trkpt>
      <trkpt lat="47.524263" lon="7.721598">
        <ele>299.123483</ele>
        <time>2021-11-18T22:10:03.985Z</time>
      </trkpt>
      <trkpt lat="47.524632" lon="7.721805">
        <ele>299.409911</ele>
        <time>2021-11-18T22:10:13.344Z</time>
      </trkpt>
      <trkpt lat="47.524884" lon="7.722022">
        <ele>299.503668</ele>
        <time>2021-11-18T22:10:18.592Z</time>
      </trkpt>
      <trkpt lat="47.525258" lon="7.722384">
        <ele>299.647373</ele>
        <time>2021-11-18T22:10:24.730Z</time>
      </trkpt>
      <trkpt lat="47.525373" lon="7.722545">
        <ele>299.698272</ele>
        <time>2021-11-18T22:10:26.737Z</time>
      </trkpt>
      <trkpt lat="47.526099" lon="7.723563">
        <ele>299.350443</ele>
        <time>2021-11-18T22:10:38.248Z</time>
      </trkpt>
      <trkpt lat="47.526744" lon="7.724750">
        <ele>298.188994</ele>
        <time>2021-11-18T22:10:50.388Z</time>
      </trkpt>
      <trkpt lat="47.526894" lon="7.725042">
        <ele>297.909312</ele>
        <time>2021-11-18T22:10:53.386Z</time>
      </trkpt>
      <trkpt lat="47.527014" lon="7.725298">
        <ele>297.889291</ele>
        <time>2021-11-18T22:10:56.349Z</time>
      </trkpt>
      <trkpt lat="47.527101" lon="7.725486">
        <ele>297.939002</ele>
        <time>2021-11-18T22:10:58.246Z</time>
      </trkpt>
      <trkpt lat="47.527862" lon="7.727114">
        <ele>298.370875</ele>
        <time>2021-11-18T22:11:21.970Z</time>
      </trkpt>
      <trkpt lat="47.528009" lon="7.727429">
        <ele>298.402524</ele>
        <time>2021-11-18T22:11:26.505Z</time>
      </trkpt>
      <trkpt lat="47.528065" lon="7.727556">
        <ele>298.382813</ele>
        <time>2021-11-18T22:11:28.175Z</time>
      </trkpt>
      <trkpt lat="47.528164" lon="7.727824">
        <ele>298.343116</ele>
        <time>2021-11-18T22:11:31.565Z</time>
      </trkpt>
      <trkpt lat="47.528320" lon="7.728136">
        <ele>298.292666</ele>
        <time>2021-11-18T22:11:35.550Z</time>
      </trkpt>
      <trkpt lat="47.528408" lon="7.728307">
        <ele>298.264727</ele>
        <time>2021-11-18T22:11:37.610Z</time>
      </trkpt>
      <trkpt lat="47.528552" lon="7.728411">
        <ele>298.233894</ele>
        <time>2021-11-18T22:11:39.808Z</time>
      </trkpt>
      <trkpt lat="47.528614" lon="7.728431">
        <ele>298.221682</ele>
        <time>2021-11-18T22:11:40.696Z</time>
      </trkpt>
      <trkpt lat="47.528688" lon="7.728441">
        <ele>298.207382</ele>
        <time>2021-11-18T22:11:41.677Z</time>
      </trkpt>
      <trkpt lat="47.528715" lon="7.728334">
        <ele>298.192538</ele>
        <time>2021-11-18T22:11:42.672Z</time>
      </trkpt>
      <trkpt lat="47.528746" lon="7.728265">
        <ele>298.181768</ele>
        <time>2021-11-18T22:11:43.428Z</time>
      </trkpt>
      <trkpt lat="47.528803" lon="7.728159">
        <ele>298.164160</ele>
        <time>2021-11-18T22:11:44.656Z</time>
      </trkpt>
      <trkpt lat="47.528848" lon="7.728118">
        <ele>298.153992</ele>
        <time>2021-11-18T22:11:45.360Z</time>
      </trkpt>
      <trkpt lat="47.528941" lon="7.728048">
        <ele>298.133915</ele>
        <time>2021-11-18T22:11:46.710Z</time>
      </trkpt>
      <trkpt lat="47.529269" lon="7.727844">
        <ele>298.027379</ele>
        <time>2021-11-18T22:11:51.174Z</time>
      </trkpt>
      <trkpt lat="47.529976" lon="7.727410">
        <ele>297.334987</ele>
        <time>2021-11-18T22:12:00.463Z</time>
      </trkpt>
      <trkpt lat="47.530372" lon="7.727161">
        <ele>296.945773</ele>
        <time>2021-11-18T22:12:05.809Z</time>
      </trkpt>
      <trkpt lat="47.530756" lon="7.726844">
        <ele>296.548045</ele>
        <time>2021-11-18T22:12:11.197Z</time>
      </trkpt>
      <trkpt lat="47.531031" lon="7.726569">
        <ele>296.325902</ele>
        <time>2021-11-18T22:12:15.332Z</time>
      </trkpt>
      <trkpt lat="47.531193" lon="7.726888">
        <ele>296.176924</ele>
        <time>2021-11-18T22:12:18.730Z</time>
      </trkpt>
      <trkpt lat="47.531296" lon="7.727089">
        <ele>296.082746</ele>
        <time>2021-11-18T22:12:21.279Z</time>
      </trkpt>
      <trkpt lat="47.531623" lon="7.727725">
        <ele>295.784387</ele>
        <time>2021-11-18T22:12:28.338Z</time>
      </trkpt>
      <trkpt lat="47.531815" lon="7.728165">
        <ele>295.588857</ele>
        <time>2021-11-18T22:12:33.093Z</time>
      </trkpt>
      <trkpt lat="47.531944" lon="7.728603">
        <ele>295.443644</ele>
        <time>2021-11-18T22:12:37.465Z</time>
      </trkpt>
      <trkpt lat="47.532193" lon="7.730459">
        <ele>295.272357</ele>
        <time>2021-11-18T22:12:55.033Z</time>
      </trkpt>
      <trkpt lat="47.532405" lon="7.731493">
        <ele>295.233042</ele>
        <time>2021-11-18T22:13:06.990Z</time>
      </trkpt>
      <trkpt lat="47.532473" lon="7.731703">
        <ele>295.243931</ele>
        <time>2021-11-18T22:13:09.458Z</time>
      </trkpt>
      <trkpt lat="47.532665" lon="7.732105">
        <ele>295.266955</ele>
        <time>2021-11-18T22:13:14.942Z</time>
      </trkpt>
      <trkpt lat="47.532776" lon="7.732283">
        <ele>295.278284</ele>
        <time>2021-11-18T22:13:17.517Z</time>
      </trkpt>
      <trkpt lat="47.532853" lon="7.732416">
        <ele>295.286476</ele>
        <time>2021-11-18T22:13:19.433Z</time>
      </trkpt>
      <trkpt lat="47.532961" lon="7.732599">
        <ele>295.297840</ele>
        <time>2021-11-18T22:13:21.724Z</time>
      </trkpt>
      <trkpt lat="47.533220" lon="7.733022">
        <ele>295.324539</ele>
        <time>2021-11-18T22:13:27.259Z</time>
      </trkpt>
      <trkpt lat="47.533324" lon="7.733190">
        <ele>295.335196</ele>
        <time>2021-11-18T22:13:29.563Z</time>
      </trkpt>
      <trkpt lat="47.533436" lon="7.733399">
        <ele>295.236339</ele>
        <time>2021-11-18T22:13:31.908Z</time>
      </trkpt>
      <trkpt lat="47.533577" lon="7.733712">
        <ele>295.058031</ele>
        <time>2021-11-18T22:13:35.420Z</time>
      </trkpt>
      <trkpt lat="47.533685" lon="7.734026">
        <ele>294.891039</ele>
        <time>2021-11-18T22:13:38.533Z</time>
      </trkpt>
      <trkpt lat="47.533860" lon="7.734479">
        <ele>294.643718</ele>
        <time>2021-11-18T22:13:43.027Z</time>
      </trkpt>
      <trkpt lat="47.534301" lon="7.735625">
        <ele>294.108297</ele>
        <time>2021-11-18T22:13:53.852Z</time>
      </trkpt>
      <trkpt lat="47.534450" lon="7.736026">
        <ele>294.234897</ele>
        <time>2021-11-18T22:13:57.629Z</time>
      </trkpt>
      <trkpt lat="47.534670" lon="7.736644">
        <ele>294.428135</ele>
        <time>2021-11-18T22:14:03.652Z</time>
      </trkpt>
      <trkpt lat="47.534765" lon="7.736911">
        <ele>294.511612</ele>
        <time>2021-11-18T22:14:06.317Z</time>
      </trkpt>
      <trkpt lat="47.534765" lon="7.736911">
        <ele>294.511612</ele>
        <time>2021-11-18T22:14:06.318Z</time>
      </trkpt>
      <trkpt lat="47.534765" lon="7.736911">
        <ele>294.511612</ele>
        <time>2021-11-18T22:14:06.319Z</time>
      </trkpt>
      <trkpt lat="47.535216" lon="7.738157">
        <ele>296.265837</ele>
        <time>2021-11-18T22:14:25.737Z</time>
      </trkpt>
      <trkpt lat="47.534755" lon="7.738529">
        <ele>299.719322</ele>
        <time>2021-11-18T22:14:45.960Z</time>
      </trkpt>
      <trkpt lat="47.534011" lon="7.739126">
        <ele>305.285723</ele>
        <time>2021-11-18T22:15:27.772Z</time>
      </trkpt>
      <trkpt lat="47.533446" lon="7.739598">
        <ele>309.413889</ele>
        <time>2021-11-18T22:15:59.693Z</time>
      </trkpt>
      <trkpt lat="47.533226" lon="7.739781">
        <ele>310.994395</ele>
        <time>2021-11-18T22:16:11.030Z</time>
      </trkpt>
      <trkpt lat="47.533191" lon="7.739816">
        <ele>311.258922</ele>
        <time>2021-11-18T22:16:14.281Z</time>
      </trkpt>
      <trkpt lat="47.533352" lon="7.740430">
        <ele>314.044568</ele>
        <time>2021-11-18T22:16:32.964Z</time>
      </trkpt>
      <trkpt lat="47.533707" lon="7.742025">
        <ele>318.189741</ele>
        <time>2021-11-18T22:17:05.249Z</time>
      </trkpt>
      <trkpt lat="47.533870" lon="7.743466">
        <ele>318.722395</ele>
        <time>2021-11-18T22:17:17.327Z</time>
      </trkpt>
      <trkpt lat="47.534043" lon="7.744207">
        <ele>318.832902</ele>
        <time>2021-11-18T22:17:24.410Z</time>
      </trkpt>
      <trkpt lat="47.534097" lon="7.744343">
        <ele>318.810551</ele>
        <time>2021-11-18T22:17:25.858Z</time>
      </trkpt>
      <trkpt lat="47.534179" lon="7.744495">
        <ele>318.782989</ele>
        <time>2021-11-18T22:17:27.737Z</time>
      </trkpt>
      <trkpt lat="47.534370" lon="7.744709">
        <ele>318.732739</ele>
        <time>2021-11-18T22:17:31.031Z</time>
      </trkpt>
      <trkpt lat="47.534429" lon="7.744856">
        <ele>318.708513</ele>
        <time>2021-11-18T22:17:32.793Z</time>
      </trkpt>
      <trkpt lat="47.534874" lon="7.746551">
        <ele>318.573800</ele>
        <time>2021-11-18T22:17:50.344Z</time>
      </trkpt>
      <trkpt lat="47.535912" lon="7.749669">
        <ele>319.232179</ele>
        <time>2021-11-18T22:18:28.684Z</time>
      </trkpt>
      <trkpt lat="47.537134" lon="7.752309">
        <ele>320.045628</ele>
        <time>2021-11-18T22:19:02.837Z</time>
      </trkpt>
      <trkpt lat="47.537371" lon="7.752851">
        <ele>320.238279</ele>
        <time>2021-11-18T22:19:09.485Z</time>
      </trkpt>
      <trkpt lat="47.537564" lon="7.753073">
        <ele>320.478113</ele>
        <time>2021-11-18T22:19:13.300Z</time>
      </trkpt>
      <trkpt lat="47.537715" lon="7.753194">
        <ele>321.022281</ele>
        <time>2021-11-18T22:19:17.145Z</time>
      </trkpt>
      <trkpt lat="47.538052" lon="7.753460">
        <ele>322.232650</ele>
        <time>2021-11-18T22:19:26.230Z</time>
      </trkpt>
      <trkpt lat="47.538359" lon="7.753900">
        <ele>323.586673</ele>
        <time>2021-11-18T22:19:37.461Z</time>
      </trkpt>
      <trkpt lat="47.538494" lon="7.754103">
        <ele>324.196422</ele>
        <time>2021-11-18T22:19:43.251Z</time>
      </trkpt>
      <trkpt lat="47.538723" lon="7.754445">
        <ele>325.227162</ele>
        <time>2021-11-18T22:19:53.266Z</time>
      </trkpt>
      <trkpt lat="47.538792" lon="7.754549">
        <ele>325.539183</ele>
        <time>2021-11-18T22:19:57.025Z</time>
      </trkpt>
      <trkpt lat="47.539079" lon="7.754976">
        <ele>327.383080</ele>
        <time>2021-11-18T22:20:12.030Z</time>
      </trkpt>
      <trkpt lat="47.539230" lon="7.755294">
        <ele>328.789888</ele>
        <time>2021-11-18T22:20:22.015Z</time>
      </trkpt>
      <trkpt lat="47.539346" lon="7.755736">
        <ele>330.505850</ele>
        <time>2021-11-18T22:20:35.119Z</time>
      </trkpt>
      <trkpt lat="47.539501" lon="7.756866">
        <ele>334.678242</ele>
        <time>2021-11-18T22:21:05.733Z</time>
      </trkpt>
      <trkpt lat="47.539562" lon="7.757310">
        <ele>335.721707</ele>
        <time>2021-11-18T22:21:14.584Z</time>
      </trkpt>
      <trkpt lat="47.539595" lon="7.757548">
        <ele>335.795945</ele>
        <time>2021-11-18T22:21:19.777Z</time>
      </trkpt>
      <trkpt lat="47.539722" lon="7.758107">
        <ele>335.976157</ele>
        <time>2021-11-18T22:21:28.635Z</time>
      </trkpt>
      <trkpt lat="47.539949" lon="7.758688">
        <ele>336.181266</ele>
        <time>2021-11-18T22:21:35.652Z</time>
      </trkpt>
      <trkpt lat="47.540447" lon="7.759585">
        <ele>335.802190</ele>
        <time>2021-11-18T22:21:44.536Z</time>
      </trkpt>
      <trkpt lat="47.540567" lon="7.759901">
        <ele>334.442933</ele>
        <time>2021-11-18T22:21:46.922Z</time>
      </trkpt>
      <trkpt lat="47.540921" lon="7.761599">
        <ele>327.780525</ele>
        <time>2021-11-18T22:21:58.045Z</time>
      </trkpt>
      <trkpt lat="47.541004" lon="7.762306">
        <ele>324.097274</ele>
        <time>2021-11-18T22:22:02.265Z</time>
      </trkpt>
      <trkpt lat="47.541023" lon="7.762922">
        <ele>320.148021</ele>
        <time>2021-11-18T22:22:05.849Z</time>
      </trkpt>
      <trkpt lat="47.541219" lon="7.763853">
        <ele>313.902272</ele>
        <time>2021-11-18T22:22:11.472Z</time>
      </trkpt>
      <trkpt lat="47.541334" lon="7.764020">
        <ele>312.374447</ele>
        <time>2021-11-18T22:22:12.939Z</time>
      </trkpt>
      <trkpt lat="47.541377" lon="7.764045">
        <ele>311.936203</ele>
        <time>2021-11-18T22:22:13.311Z</time>
      </trkpt>
      <trkpt lat="47.541364" lon="7.764150">
        <ele>311.252525</ele>
        <time>2021-11-18T22:22:13.923Z</time>
      </trkpt>
      <trkpt lat="47.541443" lon="7.764512">
        <ele>309.063073</ele>
        <time>2021-11-18T22:22:16.233Z</time>
      </trkpt>
      <trkpt lat="47.541552" lon="7.764869">
        <ele>307.566793</ele>
        <time>2021-11-18T22:22:18.527Z</time>
      </trkpt>
      <trkpt lat="47.541697" lon="7.765479">
        <ele>305.097118</ele>
        <time>2021-11-18T22:22:22.409Z</time>
      </trkpt>
      <trkpt lat="47.542317" lon="7.768533">
        <ele>296.849281</ele>
        <time>2021-11-18T22:22:43.883Z</time>
      </trkpt>
      <trkpt lat="47.542450" lon="7.769311">
        <ele>295.686292</ele>
        <time>2021-11-18T22:22:51.597Z</time>
      </trkpt>
      <trkpt lat="47.542720" lon="7.770771">
        <ele>295.688319</ele>
        <time>2021-11-18T22:23:08.141Z</time>
      </trkpt>
      <trkpt lat="47.543108" lon="7.773069">
        <ele>296.113972</ele>
        <time>2021-11-18T22:23:34.993Z</time>
      </trkpt>
      <trkpt lat="47.543145" lon="7.773277">
        <ele>296.139291</ele>
        <time>2021-11-18T22:23:37.119Z</time>
      </trkpt>
      <trkpt lat="47.543350" lon="7.774507">
        <ele>296.288420</ele>
        <time>2021-11-18T22:23:49.582Z</time>
      </trkpt>
      <trkpt lat="47.543402" lon="7.775016">
        <ele>296.479421</ele>
        <time>2021-11-18T22:23:54.645Z</time>
      </trkpt>
      <trkpt lat="47.543449" lon="7.775478">
        <ele>296.709874</ele>
        <time>2021-11-18T22:23:59.338Z</time>
      </trkpt>
      <trkpt lat="47.543482" lon="7.776095">
        <ele>297.015159</ele>
        <time>2021-11-18T22:24:06.046Z</time>
      </trkpt>
      <trkpt lat="47.543527" lon="7.776532">
        <ele>297.233200</ele>
        <time>2021-11-18T22:24:11.205Z</time>
      </trkpt>
      <trkpt lat="47.543707" lon="7.777394">
        <ele>297.929732</ele>
        <time>2021-11-18T22:24:23.492Z</time>
      </trkpt>
      <trkpt lat="47.543933" lon="7.778374">
        <ele>300.740706</ele>
        <time>2021-11-18T22:24:41.818Z</time>
      </trkpt>
      <trkpt lat="47.544100" lon="7.779438">
        <ele>303.705766</ele>
        <time>2021-11-18T22:25:06.019Z</time>
      </trkpt>
      <trkpt lat="47.544461" lon="7.782254">
        <ele>314.109062</ele>
        <time>2021-11-18T22:26:26.620Z</time>
      </trkpt>
      <trkpt lat="47.544469" lon="7.782455">
        <ele>314.871784</ele>
        <time>2021-11-18T22:26:31.654Z</time>
      </trkpt>
      <trkpt lat="47.544474" lon="7.782623">
        <ele>314.696227</ele>
        <time>2021-11-18T22:26:34.042Z</time>
      </trkpt>
      <trkpt lat="47.544490" lon="7.783060">
        <ele>313.950040</ele>
        <time>2021-11-18T22:26:37.933Z</time>
      </trkpt>
      <trkpt lat="47.544555" lon="7.783372">
        <ele>313.393315</ele>
        <time>2021-11-18T22:26:40.418Z</time>
      </trkpt>
      <trkpt lat="47.544627" lon="7.783499">
        <ele>313.110539</ele>
        <time>2021-11-18T22:26:41.815Z</time>
      </trkpt>
      <trkpt lat="47.544950" lon="7.784008">
        <ele>311.919409</ele>
        <time>2021-11-18T22:26:48.627Z</time>
      </trkpt>
      <trkpt lat="47.545054" lon="7.784227">
        <ele>311.462867</ele>
        <time>2021-11-18T22:26:51.199Z</time>
      </trkpt>
      <trkpt lat="47.545240" lon="7.784746">
        <ele>310.460989</ele>
        <time>2021-11-18T22:26:56.354Z</time>
      </trkpt>
      <trkpt lat="47.545250" lon="7.784778">
        <ele>310.395782</ele>
        <time>2021-11-18T22:26:56.627Z</time>
      </trkpt>
      <trkpt lat="47.545624" lon="7.785548">
        <ele>306.915086</ele>
        <time>2021-11-18T22:27:04.791Z</time>
      </trkpt>
      <trkpt lat="47.545672" lon="7.785654">
        <ele>306.446741</ele>
        <time>2021-11-18T22:27:05.800Z</time>
      </trkpt>
      <trkpt lat="47.545856" lon="7.785973">
        <ele>304.907143</ele>
        <time>2021-11-18T22:27:09.641Z</time>
      </trkpt>
      <trkpt lat="47.546102" lon="7.786217">
        <ele>303.297909</ele>
        <time>2021-11-18T22:27:13.626Z</time>
      </trkpt>
      <trkpt lat="47.546417" lon="7.786331">
        <ele>301.535283</ele>
        <time>2021-11-18T22:27:18.200Z</time>
      </trkpt>
      <trkpt lat="47.546464" lon="7.786335">
        <ele>301.279379</ele>
        <time>2021-11-18T22:27:18.961Z</time>
      </trkpt>
      <trkpt lat="47.546526" lon="7.786353">
        <ele>300.935949</ele>
        <time>2021-11-18T22:27:19.958Z</time>
      </trkpt>
      <trkpt lat="47.546913" lon="7.786470">
        <ele>300.426557</ele>
        <time>2021-11-18T22:27:26.116Z</time>
      </trkpt>
      <trkpt lat="47.546952" lon="7.786540">
        <ele>300.390044</ele>
        <time>2021-11-18T22:27:27.054Z</time>
      </trkpt>
      <trkpt lat="47.546959" lon="7.786598">
        <ele>300.366341</ele>
        <time>2021-11-18T22:27:27.756Z</time>
      </trkpt>
      <trkpt lat="47.546897" lon="7.787133">
        <ele>300.147971</ele>
        <time>2021-11-18T22:27:34.916Z</time>
      </trkpt>
      <trkpt lat="47.546797" lon="7.787941">
        <ele>299.817507</ele>
        <time>2021-11-18T22:27:46.442Z</time>
      </trkpt>
      <trkpt lat="47.546695" lon="7.788763">
        <ele>299.668926</ele>
        <time>2021-11-18T22:27:58.499Z</time>
      </trkpt>
      <trkpt lat="47.546673" lon="7.788921">
        <ele>299.766477</ele>
        <time>2021-11-18T22:28:01.093Z</time>
      </trkpt>
      <trkpt lat="47.546429" lon="7.790712">
        <ele>300.871301</ele>
        <time>2021-11-18T22:28:30.543Z</time>
      </trkpt>
      <trkpt lat="47.546253" lon="7.791998">
        <ele>301.464507</ele>
        <time>2021-11-18T22:28:53.352Z</time>
      </trkpt>
      <trkpt lat="47.546027" lon="7.793254">
        <ele>301.933966</ele>
        <time>2021-11-18T22:29:13.172Z</time>
      </trkpt>
      <trkpt lat="47.545969" lon="7.793663">
        <ele>302.084906</ele>
        <time>2021-11-18T22:29:18.381Z</time>
      </trkpt>
      <trkpt lat="47.545965" lon="7.793729">
        <ele>302.108838</ele>
        <time>2021-11-18T22:29:19.227Z</time>
      </trkpt>
      <trkpt lat="47.545921" lon="7.794468">
        <ele>301.948519</ele>
        <time>2021-11-18T22:29:28.252Z</time>
      </trkpt>
      <trkpt lat="47.545947" lon="7.794710">
        <ele>301.883486</ele>
        <time>2021-11-18T22:29:31.089Z</time>
      </trkpt>
      <trkpt lat="47.546019" lon="7.795020">
        <ele>301.796481</ele>
        <time>2021-11-18T22:29:35.111Z</time>
      </trkpt>
      <trkpt lat="47.546165" lon="7.795511">
        <ele>301.654091</ele>
        <time>2021-11-18T22:29:42.024Z</time>
      </trkpt>
      <trkpt lat="47.546170" lon="7.795612">
        <ele>301.627215</ele>
        <time>2021-11-18T22:29:43.074Z</time>
      </trkpt>
      <trkpt lat="47.546154" lon="7.795747">
        <ele>301.590840</ele>
        <time>2021-11-18T22:29:44.898Z</time>
      </trkpt>
      <trkpt lat="47.546105" lon="7.795928">
        <ele>301.539085</ele>
        <time>2021-11-18T22:29:48.041Z</time>
      </trkpt>
      <trkpt lat="47.546038" lon="7.796107">
        <ele>301.484765</ele>
        <time>2021-11-18T22:29:50.362Z</time>
      </trkpt>
      <trkpt lat="47.545889" lon="7.796500">
        <ele>301.431089</ele>
        <time>2021-11-18T22:29:57.255Z</time>
      </trkpt>
      <trkpt lat="47.545788" lon="7.796748">
        <ele>301.442230</ele>
        <time>2021-11-18T22:30:00.907Z</time>
      </trkpt>
      <trkpt lat="47.545728" lon="7.796950">
        <ele>301.450718</ele>
        <time>2021-11-18T22:30:04.227Z</time>
      </trkpt>
      <trkpt lat="47.545714" lon="7.796996">
        <ele>301.452659</ele>
        <time>2021-11-18T22:30:04.725Z</time>
      </trkpt>
      <trkpt lat="47.545689" lon="7.797076">
        <ele>301.456050</ele>
        <time>2021-11-18T22:30:05.696Z</time>
      </trkpt>
      <trkpt lat="47.545670" lon="7.797142">
        <ele>301.458810</ele>
        <time>2021-11-18T22:30:06.757Z</time>
      </trkpt>
      <trkpt lat="47.545645" lon="7.797258">
        <ele>301.463493</ele>
        <time>2021-11-18T22:30:08.520Z</time>
      </trkpt>
      <trkpt lat="47.545637" lon="7.797310">
        <ele>301.465545</ele>
        <time>2021-11-18T22:30:09.868Z</time>
      </trkpt>
      <trkpt lat="47.545558" lon="7.798144">
        <ele>301.497937</ele>
        <time>2021-11-18T22:30:21.145Z</time>
      </trkpt>
      <trkpt lat="47.545511" lon="7.798680">
        <ele>301.518727</ele>
        <time>2021-11-18T22:30:29.214Z</time>
      </trkpt>
      <trkpt lat="47.545581" lon="7.798713">
        <ele>301.522913</ele>
        <time>2021-11-18T22:30:30.725Z</time>
      </trkpt>
      <trkpt lat="47.545731" lon="7.798810">
        <ele>301.467940</ele>
        <time>2021-11-18T22:30:34.731Z</time>
      </trkpt>
      <trkpt lat="47.545807" lon="7.798846">
        <ele>301.430765</ele>
        <time>2021-11-18T22:30:36.070Z</time>
      </trkpt>
      <trkpt lat="47.546418" lon="7.798980">
        <ele>301.142991</ele>
        <time>2021-11-18T22:30:48.123Z</time>
      </trkpt>
      <trkpt lat="47.547540" lon="7.799538">
        <ele>300.634152</ele>
        <time>2021-11-18T22:31:08.764Z</time>
      </trkpt>
      <trkpt lat="47.547912" lon="7.799646">
        <ele>300.536161</ele>
        <time>2021-11-18T22:31:16.144Z</time>
      </trkpt>
      <trkpt lat="47.548459" lon="7.799691">
        <ele>300.394543</ele>
        <time>2021-11-18T22:31:27.082Z</time>
      </trkpt>
      <trkpt lat="47.548535" lon="7.799720">
        <ele>300.374255</ele>
        <time>2021-11-18T22:31:28.602Z</time>
      </trkpt>
      <trkpt lat="47.548514" lon="7.799795">
        <ele>300.360088</ele>
        <time>2021-11-18T22:31:29.666Z</time>
      </trkpt>
      <trkpt lat="47.548519" lon="7.799896">
        <ele>300.342418</ele>
        <time>2021-11-18T22:31:31.021Z</time>
      </trkpt>
      <trkpt lat="47.548545" lon="7.800404">
        <ele>300.253528</ele>
        <time>2021-11-18T22:31:37.812Z</time>
      </trkpt>
      <trkpt lat="47.548560" lon="7.800672">
        <ele>300.214537</ele>
        <time>2021-11-18T22:31:41.504Z</time>
      </trkpt>
      <trkpt lat="47.548569" lon="7.800838">
        <ele>300.200190</ele>
        <time>2021-11-18T22:31:43.748Z</time>
      </trkpt>
      <trkpt lat="47.548576" lon="7.800968">
        <ele>300.188955</ele>
        <time>2021-11-18T22:31:45.523Z</time>
      </trkpt>
      <trkpt lat="47.548596" lon="7.801213">
        <ele>300.167694</ele>
        <time>2021-11-18T22:31:48.903Z</time>
      </trkpt>
      <trkpt lat="47.548602" lon="7.801452">
        <ele>300.147090</ele>
        <time>2021-11-18T22:31:52.118Z</time>
      </trkpt>
      <trkpt lat="47.548607" lon="7.801690">
        <ele>300.126576</ele>
        <time>2021-11-18T22:31:55.404Z</time>
      </trkpt>
      <trkpt lat="47.548626" lon="7.802129">
        <ele>300.088678</ele>
        <time>2021-11-18T22:32:01.323Z</time>
      </trkpt>
      <trkpt lat="47.548877" lon="7.802168">
        <ele>300.056465</ele>
        <time>2021-11-18T22:32:06.315Z</time>
      </trkpt>
      <trkpt lat="47.549410" lon="7.802226">
        <ele>299.980805</ele>
        <time>2021-11-18T22:32:16.729Z</time>
      </trkpt>
      <trkpt lat="47.549481" lon="7.802234">
        <ele>299.956494</ele>
        <time>2021-11-18T22:32:18.067Z</time>
      </trkpt>
      <trkpt lat="47.549879" lon="7.802247">
        <ele>299.820576</ele>
        <time>2021-11-18T22:32:25.533Z</time>
      </trkpt>
      <trkpt lat="47.550146" lon="7.802262">
        <ele>299.729352</ele>
        <time>2021-11-18T22:32:30.607Z</time>
      </trkpt>
      <trkpt lat="47.550134" lon="7.803051">
        <ele>299.547490</ele>
        <time>2021-11-18T22:32:40.831Z</time>
      </trkpt>
      <trkpt lat="47.550196" lon="7.803120">
        <ele>299.521015</ele>
        <time>2021-11-18T22:32:42.290Z</time>
      </trkpt>
      <trkpt lat="47.550981" lon="7.803132">
        <ele>299.450045</ele>
        <time>2021-11-18T22:32:56.937Z</time>
      </trkpt>
      <trkpt lat="47.551163" lon="7.803129">
        <ele>299.485385</ele>
        <time>2021-11-18T22:33:00.340Z</time>
      </trkpt>
      <trkpt lat="47.551598" lon="7.803160">
        <ele>299.569944</ele>
        <time>2021-11-18T22:33:08.933Z</time>
      </trkpt>
      <trkpt lat="47.551666" lon="7.803144">
        <ele>299.583313</ele>
        <time>2021-11-18T22:33:13.677Z</time>
      </trkpt>
      <trkpt lat="47.551732" lon="7.803125">
        <ele>299.596367</ele>
        <time>2021-11-18T22:33:18.344Z</time>
      </trkpt>
      <trkpt lat="47.551744" lon="7.803277">
        <ele>299.616422</ele>
        <time>2021-11-18T22:33:20.038Z</time>
      </trkpt>
      <trkpt lat="47.551751" lon="7.803369">
        <ele>299.628555</ele>
        <time>2021-11-18T22:33:21.112Z</time>
      </trkpt>
      <trkpt lat="47.551692" lon="7.803510">
        <ele>299.650295</ele>
        <time>2021-11-18T22:33:23.706Z</time>
      </trkpt>
      <trkpt lat="47.551741" lon="7.804294">
        <ele>299.822645</ele>
        <time>2021-11-18T22:33:36.724Z</time>
      </trkpt>
      <trkpt lat="47.551744" lon="7.804473">
        <ele>299.909419</ele>
        <time>2021-11-18T22:33:39.243Z</time>
      </trkpt>
      <trkpt lat="47.551731" lon="7.804667">
        <ele>300.003897</ele>
        <time>2021-11-18T22:33:43.223Z</time>
      </trkpt>
      <trkpt lat="47.551709" lon="7.805000">
        <ele>300.166046</ele>
        <time>2021-11-18T22:33:47.715Z</time>
      </trkpt>
      <trkpt lat="47.551681" lon="7.805477">
        <ele>300.398081</ele>
        <time>2021-11-18T22:33:55.451Z</time>
      </trkpt>
      <trkpt lat="47.551671" lon="7.806117">
        <ele>300.708320</ele>
        <time>2021-11-18T22:34:05.541Z</time>
      </trkpt>
      <trkpt lat="47.551651" lon="7.806246">
        <ele>300.772464</ele>
        <time>2021-11-18T22:34:08.443Z</time>
      </trkpt>
      <trkpt lat="47.551895" lon="7.806278">
        <ele>300.948349</ele>
        <time>2021-11-18T22:34:11.969Z</time>
      </trkpt>
      <trkpt lat="47.552015" lon="7.806307">
        <ele>301.011965</ele>
        <time>2021-11-18T22:34:14.839Z</time>
      </trkpt>
      <trkpt lat="47.552068" lon="7.806445">
        <ele>300.977295</ele>
        <time>2021-11-18T22:34:16.296Z</time>
      </trkpt>
      <trkpt lat="47.552398" lon="7.808880">
        <ele>300.432345</ele>
        <time>2021-11-18T22:34:38.439Z</time>
      </trkpt>
      <trkpt lat="47.552566" lon="7.810386">
        <ele>299.734871</ele>
        <time>2021-11-18T22:34:51.450Z</time>
      </trkpt>
      <trkpt lat="47.552711" lon="7.812955">
        <ele>298.597697</ele>
        <time>2021-11-18T22:35:14.059Z</time>
      </trkpt>
      <trkpt lat="47.552844" lon="7.816432">
        <ele>297.387204</ele>
        <time>2021-11-18T22:35:44.551Z</time>
      </trkpt>
      <trkpt lat="47.552948" lon="7.819358">
        <ele>297.738937</ele>
        <time>2021-11-18T22:36:15.782Z</time>
      </trkpt>
      <trkpt lat="47.552896" lon="7.820699">
        <ele>298.351508</ele>
        <time>2021-11-18T22:36:31.865Z</time>
      </trkpt>
      <trkpt lat="47.552567" lon="7.824508">
        <ele>300.249159</ele>
        <time>2021-11-18T22:37:18.350Z</time>
      </trkpt>
      <trkpt lat="47.552491" lon="7.827227">
        <ele>301.603837</ele>
        <time>2021-11-18T22:37:50.090Z</time>
      </trkpt>
      <trkpt lat="47.552515" lon="7.828094">
        <ele>302.465710</ele>
        <time>2021-11-18T22:38:01.800Z</time>
      </trkpt>
      <trkpt lat="47.552477" lon="7.828294">
        <ele>302.707551</ele>
        <time>2021-11-18T22:38:04.417Z</time>
      </trkpt>
      <trkpt lat="47.552421" lon="7.828481">
        <ele>302.945675</ele>
        <time>2021-11-18T22:38:07.348Z</time>
      </trkpt>
      <trkpt lat="47.552404" lon="7.828582">
        <ele>303.066836</ele>
        <time>2021-11-18T22:38:09.033Z</time>
      </trkpt>
      <trkpt lat="47.552416" lon="7.828822">
        <ele>303.346952</ele>
        <time>2021-11-18T22:38:12.267Z</time>
      </trkpt>
      <trkpt lat="47.552554" lon="7.829266">
        <ele>303.915918</ele>
        <time>2021-11-18T22:38:19.618Z</time>
      </trkpt>
      <trkpt lat="47.552645" lon="7.830686">
        <ele>306.092398</ele>
        <time>2021-11-18T22:38:42.924Z</time>
      </trkpt>
      <trkpt lat="47.552690" lon="7.832598">
        <ele>309.832255</ele>
        <time>2021-11-18T22:39:18.401Z</time>
      </trkpt>
      <trkpt lat="47.552616" lon="7.832891">
        <ele>310.413419</ele>
        <time>2021-11-18T22:39:23.765Z</time>
      </trkpt>
      <trkpt lat="47.552556" lon="7.832977">
        <ele>310.637629</ele>
        <time>2021-11-18T22:39:26.496Z</time>
      </trkpt>
      <trkpt lat="47.552511" lon="7.833072">
        <ele>310.848013</ele>
        <time>2021-11-18T22:39:28.522Z</time>
      </trkpt>
      <trkpt lat="47.552467" lon="7.833198">
        <ele>311.105171</ele>
        <time>2021-11-18T22:39:30.924Z</time>
      </trkpt>
      <trkpt lat="47.552452" lon="7.833284">
        <ele>311.266182</ele>
        <time>2021-11-18T22:39:32.535Z</time>
      </trkpt>
      <trkpt lat="47.552696" lon="7.833789">
        <ele>312.391976</ele>
        <time>2021-11-18T22:39:43.566Z</time>
      </trkpt>
      <trkpt lat="47.552700" lon="7.833938">
        <ele>312.662276</ele>
        <time>2021-11-18T22:39:46.510Z</time>
      </trkpt>
      <trkpt lat="47.552714" lon="7.835010">
        <ele>314.605817</ele>
        <time>2021-11-18T22:40:04.987Z</time>
      </trkpt>
      <trkpt lat="47.552719" lon="7.836790">
        <ele>316.654214</ele>
        <time>2021-11-18T22:40:30.271Z</time>
      </trkpt>
      <trkpt lat="47.552697" lon="7.838068">
        <ele>318.041639</ele>
        <time>2021-11-18T22:40:47.913Z</time>
      </trkpt>
      <trkpt lat="47.552736" lon="7.838578">
        <ele>318.578696</ele>
        <time>2021-11-18T22:40:55.040Z</time>
      </trkpt>
      <trkpt lat="47.552802" lon="7.839009">
        <ele>319.041137</ele>
        <time>2021-11-18T22:41:01.259Z</time>
      </trkpt>
      <trkpt lat="47.552939" lon="7.839526">
        <ele>319.622305</ele>
        <time>2021-11-18T22:41:09.049Z</time>
      </trkpt>
      <trkpt lat="47.553231" lon="7.841529">
        <ele>321.685525</ele>
        <time>2021-11-18T22:41:39.178Z</time>
      </trkpt>
      <trkpt lat="47.553216" lon="7.841849">
        <ele>321.998579</ele>
        <time>2021-11-18T22:41:43.702Z</time>
      </trkpt>
      <trkpt lat="47.553123" lon="7.842222">
        <ele>322.386652</ele>
        <time>2021-11-18T22:41:48.932Z</time>
      </trkpt>
      <trkpt lat="47.553133" lon="7.842431">
        <ele>322.591137</ele>
        <time>2021-11-18T22:41:52.061Z</time>
      </trkpt>
      <trkpt lat="47.552833" lon="7.842495">
        <ele>323.029424</ele>
        <time>2021-11-18T22:41:59.370Z</time>
      </trkpt>
      <trkpt lat="47.552380" lon="7.842592">
        <ele>323.460271</ele>
        <time>2021-11-18T22:42:10.419Z</time>
      </trkpt>
      <trkpt lat="47.551922" lon="7.842704">
        <ele>323.837279</ele>
        <time>2021-11-18T22:42:20.985Z</time>
      </trkpt>
      <trkpt lat="47.551668" lon="7.842770">
        <ele>324.046720</ele>
        <time>2021-11-18T22:42:26.944Z</time>
      </trkpt>
      <trkpt lat="47.551454" lon="7.842815">
        <ele>324.222267</ele>
        <time>2021-11-18T22:42:31.650Z</time>
      </trkpt>
      <trkpt lat="47.551344" lon="7.844621">
        <ele>325.443249</ele>
        <time>2021-11-18T22:42:54.254Z</time>
      </trkpt>
      <trkpt lat="47.551279" lon="7.845585">
        <ele>326.178204</ele>
        <time>2021-11-18T22:43:07.322Z</time>
      </trkpt>
      <trkpt lat="47.551205" lon="7.846694">
        <ele>327.163852</ele>
        <time>2021-11-18T22:43:22.244Z</time>
      </trkpt>
      <trkpt lat="47.551184" lon="7.847206">
        <ele>327.697785</ele>
        <time>2021-11-18T22:43:29.632Z</time>
      </trkpt>
      <trkpt lat="47.551196" lon="7.847517">
        <ele>328.022040</ele>
        <time>2021-11-18T22:43:34.181Z</time>
      </trkpt>
      <trkpt lat="47.551669" lon="7.848083">
        <ele>328.959728</ele>
        <time>2021-11-18T22:43:47.188Z</time>
      </trkpt>
      <trkpt lat="47.551242" lon="7.848702">
        <ele>329.834113</ele>
        <time>2021-11-18T22:43:59.751Z</time>
      </trkpt>
      <trkpt lat="47.550975" lon="7.849066">
        <ele>330.336629</ele>
        <time>2021-11-18T22:44:07.078Z</time>
      </trkpt>
      <trkpt lat="47.550810" lon="7.849346">
        <ele>330.684092</ele>
        <time>2021-11-18T22:44:13.469Z</time>
      </trkpt>
      <trkpt lat="47.550488" lon="7.850081">
        <ele>331.503206</ele>
        <time>2021-11-18T22:44:28.939Z</time>
      </trkpt>
      <trkpt lat="47.550333" lon="7.850434">
        <ele>331.896870</ele>
        <time>2021-11-18T22:44:36.269Z</time>
      </trkpt>
      <trkpt lat="47.550126" lon="7.850906">
        <ele>332.060510</ele>
        <time>2021-11-18T22:44:45.853Z</time>
      </trkpt>
      <trkpt lat="47.550009" lon="7.851173">
        <ele>332.147047</ele>
        <time>2021-11-18T22:44:50.860Z</time>
      </trkpt>
      <trkpt lat="47.549652" lon="7.851969">
        <ele>332.406849</ele>
        <time>2021-11-18T22:45:04.739Z</time>
      </trkpt>
      <trkpt lat="47.549535" lon="7.852225">
        <ele>332.490894</ele>
        <time>2021-11-18T22:45:08.798Z</time>
      </trkpt>
      <trkpt lat="47.549285" lon="7.852784">
        <ele>332.594425</ele>
        <time>2021-11-18T22:45:17.428Z</time>
      </trkpt>
      <trkpt lat="47.549708" lon="7.853279">
        <ele>332.348332</ele>
        <time>2021-11-18T22:45:27.821Z</time>
      </trkpt>
      <trkpt lat="47.550221" lon="7.853833">
        <ele>332.058510</ele>
        <time>2021-11-18T22:45:39.743Z</time>
      </trkpt>
      <trkpt lat="47.549883" lon="7.854434">
        <ele>331.817449</ele>
        <time>2021-11-18T22:45:46.420Z</time>
      </trkpt>
      <trkpt lat="47.549566" lon="7.855225">
        <ele>331.546107</ele>
        <time>2021-11-18T22:45:57.565Z</time>
      </trkpt>
      <trkpt lat="47.549362" lon="7.855774">
        <ele>331.361324</ele>
        <time>2021-11-18T22:46:05.487Z</time>
      </trkpt>
      <trkpt lat="47.548887" lon="7.857308">
        <ele>331.151431</ele>
        <time>2021-11-18T22:46:27.595Z</time>
      </trkpt>
      <trkpt lat="47.548743" lon="7.857692">
        <ele>331.246857</ele>
        <time>2021-11-18T22:46:33.566Z</time>
      </trkpt>
      <trkpt lat="47.548701" lon="7.857893">
        <ele>331.292565</ele>
        <time>2021-11-18T22:46:36.538Z</time>
      </trkpt>
      <trkpt lat="47.548686" lon="7.857973">
        <ele>331.310602</ele>
        <time>2021-11-18T22:46:37.661Z</time>
      </trkpt>
      <trkpt lat="47.548611" lon="7.858381">
        <ele>331.402461</ele>
        <time>2021-11-18T22:46:43.875Z</time>
      </trkpt>
      <trkpt lat="47.548334" lon="7.859801">
        <ele>332.102864</ele>
        <time>2021-11-18T22:47:06.912Z</time>
      </trkpt>
      <trkpt lat="47.548049" lon="7.860929">
        <ele>333.225207</ele>
        <time>2021-11-18T22:47:27.931Z</time>
      </trkpt>
      <trkpt lat="47.547930" lon="7.861711">
        <ele>333.972198</ele>
        <time>2021-11-18T22:47:42.694Z</time>
      </trkpt>
      <trkpt lat="47.547568" lon="7.863151">
        <ele>335.431552</ele>
        <time>2021-11-18T22:48:11.822Z</time>
      </trkpt>
      <trkpt lat="47.547320" lon="7.863864">
        <ele>336.194621</ele>
        <time>2021-11-18T22:48:25.762Z</time>
      </trkpt>
      <trkpt lat="47.546974" lon="7.864423">
        <ele>336.545866</ele>
        <time>2021-11-18T22:48:36.586Z</time>
      </trkpt>
      <trkpt lat="47.546885" lon="7.864500">
        <ele>336.505457</ele>
        <time>2021-11-18T22:48:39.671Z</time>
      </trkpt>
      <trkpt lat="47.546894" lon="7.864837">
        <ele>336.416201</ele>
        <time>2021-11-18T22:48:43.554Z</time>
      </trkpt>
      <trkpt lat="47.546889" lon="7.865225">
        <ele>336.313500</ele>
        <time>2021-11-18T22:48:48.979Z</time>
      </trkpt>
      <trkpt lat="47.546819" lon="7.865489">
        <ele>336.238436</ele>
        <time>2021-11-18T22:48:52.924Z</time>
      </trkpt>
      <trkpt lat="47.546510" lon="7.865766">
        <ele>336.096832</ele>
        <time>2021-11-18T22:48:59.558Z</time>
      </trkpt>
      <trkpt lat="47.546327" lon="7.865959">
        <ele>336.008759</ele>
        <time>2021-11-18T22:49:03.073Z</time>
      </trkpt>
      <trkpt lat="47.546096" lon="7.866147">
        <ele>335.906956</ele>
        <time>2021-11-18T22:49:07.629Z</time>
      </trkpt>
      <trkpt lat="47.545240" lon="7.866887">
        <ele>335.556014</ele>
        <time>2021-11-18T22:49:24.303Z</time>
      </trkpt>
      <trkpt lat="47.545160" lon="7.866985">
        <ele>335.519255</ele>
        <time>2021-11-18T22:49:26.258Z</time>
      </trkpt>
      <trkpt lat="47.545003" lon="7.867278">
        <ele>335.429838</ele>
        <time>2021-11-18T22:49:31.927Z</time>
      </trkpt>
      <trkpt lat="47.544568" lon="7.867693">
        <ele>335.284350</ele>
        <time>2021-11-18T22:49:44.717Z</time>
      </trkpt>
      <trkpt lat="47.544469" lon="7.867776">
        <ele>335.284350</ele>
        <time>2021-11-18T22:49:47.580Z</time>
      </trkpt>
      <trkpt lat="47.544410" lon="7.867825">
        <ele>335.284350</ele>
        <time>2021-11-18T22:49:49.668Z</time>
      </trkpt>
      <trkpt lat="47.544246" lon="7.867967">
        <ele>335.284350</ele>
        <time>2021-11-18T22:49:54.352Z</time>
      </trkpt>
      <trkpt lat="47.544214" lon="7.867988">
        <ele>335.284350</ele>
        <time>2021-11-18T22:49:55.199Z</time>
      </trkpt>
      <trkpt lat="47.543801" lon="7.868269">
        <ele>335.284350</ele>
        <time>2021-11-18T22:50:06.790Z</time>
      </trkpt>
      <trkpt lat="47.543657" lon="7.868359">
        <ele>335.284350</ele>
        <time>2021-11-18T22:50:11.153Z</time>
      </trkpt>
      <trkpt lat="47.543201" lon="7.868657">
        <ele>335.284350</ele>
        <time>2021-11-18T22:50:21.588Z</time>
      </trkpt>
      <trkpt lat="47.543105" lon="7.868711">
        <ele>335.284350</ele>
        <time>2021-11-18T22:50:24.225Z</time>
      </trkpt>
      <trkpt lat="47.543049" lon="7.868759">
        <ele>335.284350</ele>
        <time>2021-11-18T22:50:25.609Z</time>
      </trkpt>
      <trkpt lat="47.542722" lon="7.869201">
        <ele>335.284350</ele>
        <time>2021-11-18T22:50:35.212Z</time>
      </trkpt>
      <trkpt lat="47.542696" lon="7.869257">
        <ele>335.284350</ele>
        <time>2021-11-18T22:50:35.958Z</time>
      </trkpt>
      <trkpt lat="47.542657" lon="7.869354">
        <ele>335.284350</ele>
        <time>2021-11-18T22:50:37.366Z</time>
      </trkpt>
      <trkpt lat="47.542628" lon="7.869394">
        <ele>335.284350</ele>
        <time>2021-11-18T22:50:38.253Z</time>
      </trkpt>
      <trkpt lat="47.542552" lon="7.869498">
        <ele>335.284350</ele>
        <time>2021-11-18T22:50:40.300Z</time>
      </trkpt>
      <trkpt lat="47.542453" lon="7.869634">
        <ele>335.284350</ele>
        <time>2021-11-18T22:50:42.533Z</time>
      </trkpt>
    </trkseg>
  </trk>
</gpx>